GFSWCAN_500_spd_000.txt.gz
Wind_Speed
48 51 51 47 48 48 47 46 45 45 42 40 40 39 38 36 36 36 35 35 34 34 33 32 32 32 33 33 34 35 35 37 42 45 46 50 55 53 46 41 40 40 40 35 40 39 38 41 44 48 51 56 59 62
48 46 47 53 49 48 48 47 46 46 45 43 42 40 39 37 37 36 36 36 36 36 35 36 36 36 36 37 38 37 37 42 47 48 52 57 54 49 42 39 33 35 32 38 41 42 40 46 50 54 58 61 63 65
54 52 48 52 51 49 48 47 47 47 44 43 43 42 40 38 37 37 37 36 37 37 37 37 37 37 38 39 37 37 39 47 49 54 54 53 51 46 40 39 39 37 36 40 47 43 47 50 52 58 58 63 68 70
57 52 48 55 51 48 48 48 47 46 45 44 43 42 40 40 40 40 39 38 38 38 39 39 39 40 39 40 39 43 50 51 57 58 56 54 51 47 41 41 43 39 45 48 51 51 55 59 61 62 67 70 73 72
57 61 54 53 58 49 55 50 48 47 46 44 45 44 44 43 42 41 41 40 39 40 42 40 41 42 42 42 45 49 53 59 59 56 54 50 44 42 45 48 45 44 47 52 55 58 60 64 67 70 75 77 74 73
56 56 60 59 50 51 56 53 52 50 50 44 47 45 45 44 44 44 43 42 42 43 45 44 43 46 48 49 51 53 58 55 53 49 50 48 44 46 48 49 46 48 53 56 58 61 64 69 72 76 77 76 75 77
55 57 57 60 55 49 57 55 54 49 52 47 48 48 46 45 44 43 44 44 46 47 48 49 50 51 51 56 55 55 52 49 48 48 48 46 43 46 49 50 50 54 57 61 64 66 70 72 75 76 75 77 80 79
57 58 59 58 61 55 51 50 50 51 45 57 54 49 49 48 48 48 48 48 49 50 51 56 58 55 54 54 51 49 49 49 50 51 50 47 49 51 54 50 55 59 62 66 68 71 72 72 73 75 78 77 76 77
60 63 65 62 58 58 56 58 55 51 44 51 58 56 58 59 58 57 55 56 59 57 58 59 54 48 47 47 50 47 48 50 51 51 52 52 55 57 57 57 59 64 68 69 69 71 72 73 74 76 76 77 76 74
62 59 59 65 65 63 60 57 56 53 47 49 47 56 58 54 45 46 45 47 50 52 52 53 53 52 52 53 53 55 56 55 55 55 55 55 55 58 59 63 67 69 69 71 72 72 72 74 74 75 74 72 72 72
59 62 55 59 63 60 60 63 60 59 52 53 53 52 52 53 53 52 52 51 52 57 58 56 56 54 55 55 54 58 61 61 61 60 59 60 60 61 64 66 68 69 69 70 72 73 74 73 73 76 76 73 71 71
53 58 54 49 53 61 60 58 58 60 58 50 53 58 57 55 53 54 53 52 54 55 55 50 50 53 56 57 58 62 61 60 60 60 62 63 63 65 65 67 68 69 71 73 73 72 73 75 75 72 70 71 72 73
49 47 53 51 44 43 50 58 62 60 61 63 64 61 59 60 62 61 58 56 56 53 53 52 53 54 55 56 56 57 59 60 62 63 63 61 61 63 65 67 69 71 70 70 71 73 73 70 67 68 69 70 72 71
49 48 46 45 48 47 43 44 47 52 54 57 58 60 62 62 63 62 61 58 56 55 55 56 57 56 55 55 57 58 58 60 61 60 57 60 63 65 66 67 67 67 67 70 70 67 65 65 66 67 68 68 68 66
51 48 46 40 41 44 46 47 45 41 45 49 53 57 57 56 55 55 53 52 52 53 52 52 54 54 54 55 54 56 58 59 59 58 61 64 65 65 65 64 65 68 69 66 62 62 63 65 66 65 63 63 65 66
42 48 48 47 41 39 39 40 43 44 44 42 41 40 40 42 42 42 44 44 45 47 48 49 51 53 54 54 55 57 57 56 58 62 64 65 63 63 63 64 65 64 61 60 60 62 63 63 62 61 62 64 64 59
36 38 41 44 46 42 41 40 40 42 44 42 40 40 39 41 42 43 44 45 47 48 49 51 53 52 54 56 57 56 54 59 63 66 62 61 62 61 60 60 59 58 59 60 61 61 59 59 61 63 63 59 54 44
27 31 37 40 43 42 40 41 42 40 40 40 42 43 44 45 46 47 48 49 50 50 50 50 51 52 54 55 52 53 59 65 63 59 61 61 59 58 56 57 58 60 60 58 58 57 58 59 59 59 55 51 43 35
32 37 36 31 33 38 42 44 43 41 41 42 44 45 46 46 47 48 48 48 48 49 50 50 52 52 49 48 51 59 62 57 57 58 57 53 53 55 57 59 59 57 55 55 55 55 54 53 53 52 50 46 37 34
36 36 37 37 34 34 36 37 39 43 43 44 45 45 47 47 48 48 48 48 49 50 52 51 48 45 45 53 57 55 54 55 56 52 48 48 53 56 57 55 52 52 52 51 49 49 49 48 47 45 44 36 33 31
26 27 28 30 31 32 34 34 34 37 40 43 42 43 44 45 45 45 46 45 46 46 44 43 45 49 51 50 51 50 49 49 49 51 51 51 52 52 50 51 51 50 48 45 43 42 42 41 37 38 32 27 26 26
25 26 27 30 33 35 35 34 34 34 37 38 37 37 37 37 36 36 37 40 40 38 41 43 45 46 44 44 45 47 48 49 51 53 54 53 49 48 48 48 46 43 42 41 40 38 38 36 33 32 29 27 25 25
27 28 33 35 36 33 32 32 29 26 26 27 30 31 31 32 33 35 37 36 36 38 39 40 40 41 42 43 46 48 52 54 52 51 51 50 48 47 46 42 41 38 37 36 38 37 37 36 35 32 29 29 30 29
23 23 25 27 27 23 21 25 27 28 28 28 28 29 30 32 33 34 34 32 32 34 37 39 42 44 46 48 49 49 50 50 49 48 47 47 46 44 42 39 38 39 41 40 38 38 37 35 35 34 31 29 27 26
22 24 23 24 24 24 24 26 27 28 29 29 28 28 29 30 31 30 28 29 33 37 38 41 44 46 46 47 48 49 50 50 48 47 45 43 41 39 39 41 41 44 45 44 40 38 37 34 33 32 32 31 29 28
22 22 22 21 23 25 26 27 28 27 27 26 26 25 27 29 31 32 31 32 34 36 39 43 45 47 48 47 45 45 43 44 44 41 35 37 39 41 41 39 39 37 40 40 38 35 33 33 30 29 30 31 30 29
21 20 20 22 22 22 21 21 20 21 22 24 25 27 30 32 33 33 35 37 39 42 47 49 48 46 43 40 39 39 39 38 37 35 33 32 33 33 32 31 32 32 30 29 30 29 28 28 29 31 32 32 32 31
15 13 16 19 20 22 23 23 24 25 26 29 32 33 35 35 36 38 40 41 44 50 53 51 49 45 41 36 34 34 34 35 34 33 33 32 30 30 31 31 31 30 27 25 27 29 32 34 36 38 38 37 35 35
16 18 20 21 24 27 27 27 28 29 33 35 37 38 41 42 42 44 46 48 47 46 46 46 43 40 36 34 33 31 30 31 31 32 34 34 34 34 33 31 29 29 30 32 35 38 40 42 44 43 40 38 37 37
16 20 22 23 26 27 30 35 34 36 38 41 43 44 44 47 49 45 42 40 39 39 39 39 39 36 32 30 29 30 29 29 30 31 33 35 36 38 37 36 36 36 37 38 40 43 46 47 46 44 41 39 38 37
22 25 27 29 30 32 36 38 40 41 42 42 41 42 42 46 47 48 47 45 42 39 37 36 37 35 33 32 31 31 32 33 35 36 37 37 38 39 39 40 40 41 42 44 45 46 46 47 46 44 41 39 38 38
33 33 34 35 35 35 36 35 33 34 35 38 39 41 41 44 45 49 53 52 50 45 38 34 34 34 34 34 34 34 36 37 37 38 38 39 39 39 39 40 42 44 45 46 47 47 47 46 43 41 40 41 42 42
30 32 33 34 33 33 35 37 35 35 34 36 37 38 39 40 42 42 34 25 27 32 37 37 35 34 35 36 36 36 37 38 38 37 36 37 38 40 42 45 46 47 47 46 45 44 42 42 43 44 45 45 44 43

GFSWCAN_500_spd_006.txt.gz
Wind_Speed
40 31 37 35 43 41 40 39 37 36 36 35 35 35 35 34 34 33 32 32 31 30 29 29 29 29 28 27 27 26 27 28 31 31 31 32 32 34 34 35 38 45 52 47 42 38 38 37 40 42 43 45 48 50
45 38 34 31 37 46 41 41 40 37 37 37 36 36 36 36 36 35 33 34 33 34 33 33 33 32 32 32 32 32 33 35 36 36 36 37 37 37 37 39 41 45 46 42 43 38 42 42 43 45 49 50 53 56
46 44 40 37 40 42 42 42 41 42 39 39 38 37 36 37 37 36 35 36 37 36 36 36 36 36 37 37 37 37 38 39 39 38 38 40 39 40 39 45 48 47 44 40 43 40 43 43 44 48 51 55 57 61
50 49 45 43 45 47 43 45 42 41 41 41 40 40 38 37 37 37 37 38 38 39 39 39 39 39 40 40 40 40 41 41 40 40 41 40 40 41 44 49 50 46 44 43 42 44 45 46 49 52 55 57 61 66
55 54 52 45 44 44 40 40 40 40 42 41 41 42 42 41 40 39 39 38 39 41 41 40 41 41 42 42 42 42 42 41 41 42 42 42 41 43 50 53 48 43 45 47 47 49 51 54 56 57 59 62 66 71
54 57 57 51 46 46 44 42 41 40 40 43 41 41 43 43 42 41 41 40 40 41 42 42 41 41 43 43 42 42 42 41 42 43 43 44 42 48 55 54 40 44 47 50 52 56 57 59 59 60 63 68 72 75
57 58 56 50 45 45 47 48 47 44 41 41 42 41 42 43 44 44 44 41 42 42 42 44 44 42 42 44 43 44 42 41 43 45 46 45 46 53 56 48 45 49 52 55 56 58 59 60 62 64 68 71 74 74
57 55 56 53 50 46 42 41 40 43 44 44 41 41 41 41 43 45 44 43 42 42 44 47 45 43 41 42 44 43 43 44 44 45 47 49 54 56 52 47 50 52 54 55 57 57 59 62 64 67 70 72 73 74
47 49 56 59 58 53 48 44 40 38 37 40 44 40 39 41 42 43 44 43 43 44 47 47 46 45 45 44 42 40 41 44 48 51 51 52 53 52 50 53 54 55 55 56 57 60 61 63 65 67 69 71 72 71
47 47 47 52 57 54 52 48 43 43 39 42 43 43 40 41 41 43 44 46 45 44 46 45 45 47 47 45 43 41 46 50 53 51 51 52 51 50 50 54 54 55 55 57 57 59 61 64 65 67 68 69 71 72
56 50 46 47 52 54 52 48 45 46 44 48 50 46 42 39 39 45 48 48 49 46 46 48 50 49 45 46 49 54 55 55 53 51 52 53 52 52 54 56 57 57 55 56 58 60 62 64 65 67 68 70 72 73
41 53 56 48 47 51 52 50 49 47 46 46 48 47 46 47 49 54 52 50 49 48 47 43 45 49 52 53 51 50 50 52 54 54 55 56 55 57 59 59 57 55 56 58 61 63 64 65 67 68 70 71 72 71
27 36 51 57 49 48 51 54 54 50 43 50 54 51 52 52 52 52 54 53 52 50 46 44 44 45 44 45 48 50 52 53 54 57 59 59 61 61 60 57 56 56 58 61 62 63 64 66 67 69 68 68 69 68
30 29 32 45 61 53 51 55 51 57 57 54 46 52 56 55 56 55 54 53 51 49 49 50 50 48 47 52 53 53 56 59 62 61 62 61 59 57 56 54 56 58 60 62 62 64 65 66 67 67 65 66 66 64
34 33 34 35 42 56 52 50 52 49 51 52 51 52 53 54 55 57 58 54 53 53 55 55 50 51 57 58 56 58 62 63 63 62 60 58 56 54 54 55 58 61 61 62 63 63 64 65 65 62 62 62 62 59
35 35 35 37 37 41 49 51 52 54 54 51 51 49 52 57 59 61 58 57 58 59 60 60 58 58 61 62 61 63 62 58 53 54 54 52 52 53 54 57 60 61 61 61 62 63 63 61 60 60 59 59 56 56
37 35 35 37 40 40 41 44 51 54 56 57 57 55 53 52 53 56 56 54 53 52 52 54 55 58 60 60 58 54 51 50 51 52 53 53 52 54 58 59 59 59 59 61 62 59 57 58 59 59 57 53 51 50
37 33 28 31 36 37 34 36 41 45 48 51 50 53 54 57 52 48 47 48 49 47 46 46 49 48 46 46 47 49 51 52 53 52 50 52 56 58 59 57 57 58 59 59 55 55 56 57 58 55 51 48 43 42
32 34 30 26 35 37 28 29 29 31 34 37 42 45 46 44 43 44 44 44 44 44 44 45 47 45 46 50 52 53 53 51 51 52 54 55 57 56 56 56 56 56 56 54 54 55 56 56 52 49 46 43 40 41
30 29 29 25 27 35 37 32 26 29 29 29 30 31 32 34 35 36 37 38 40 41 43 43 45 47 51 53 52 50 51 51 51 52 52 51 51 52 52 52 52 53 53 54 54 55 54 50 48 44 42 40 40 41
30 26 25 22 23 25 29 31 31 31 31 31 32 34 35 36 37 39 41 42 43 43 43 44 48 50 49 48 48 49 48 49 50 49 47 47 48 48 48 50 52 53 53 52 52 52 49 47 42 39 38 39 41 42
30 28 27 25 20 27 27 22 21 21 24 23 24 26 29 31 32 34 35 37 38 40 43 44 44 43 43 43 43 43 44 44 45 46 47 47 47 49 50 52 52 51 50 49 48 45 42 40 37 38 40 40 39 37
36 29 31 32 32 30 31 26 23 24 25 25 26 27 29 32 35 38 40 40 37 40 42 41 38 37 37 38 40 41 42 42 43 44 46 48 49 51 52 52 52 49 46 43 40 36 36 36 36 35 33 33 31 29
32 28 23 20 20 19 20 20 22 22 24 27 30 34 38 40 40 40 37 31 33 34 34 35 35 34 34 35 37 40 42 44 45 46 50 53 54 54 53 50 47 44 41 36 32 32 33 32 33 33 30 27 25 22
24 23 18 15 15 15 17 19 22 25 30 34 35 32 27 26 26 27 28 31 32 33 33 34 33 34 35 38 40 43 46 48 49 50 52 57 57 52 49 45 41 38 34 31 31 31 30 31 32 31 31 28 26 27
13 20 19 17 17 17 19 20 23 24 25 25 24 27 30 31 32 34 33 33 33 32 30 31 33 36 39 43 45 48 51 55 55 55 54 52 48 47 45 39 36 35 35 34 34 34 34 34 35 35 34 32 33 35
15 15 17 18 18 20 20 23 25 25 28 31 32 33 34 33 29 27 27 28 29 31 34 37 40 42 45 48 51 53 55 56 56 53 48 45 45 45 43 38 36 37 36 35 34 34 34 35 37 38 37 38 40 41
16 16 17 19 20 21 23 26 30 32 32 31 30 28 27 26 28 29 31 33 36 39 41 44 47 50 51 50 50 52 54 55 56 54 51 49 46 44 40 36 36 36 35 36 35 34 36 38 39 39 40 40 41 42
17 19 20 22 24 27 30 30 29 29 29 28 28 28 30 32 35 36 38 41 42 46 49 49 47 47 49 49 51 50 53 58 56 51 46 44 43 40 36 34 34 35 37 37 38 40 42 42 41 41 41 40 41 42
24 25 27 29 29 29 31 32 32 30 29 30 31 33 35 38 41 41 43 44 44 44 45 45 45 44 45 45 46 48 51 48 38 34 35 35 36 35 34 34 35 38 39 40 41 43 44 44 43 42 42 43 44 42
27 28 27 25 24 25 27 29 29 30 31 34 36 38 40 41 41 40 41 43 44 43 43 44 44 43 42 43 43 43 43 38 31 30 33 35 35 34 34 35 36 38 41 42 43 43 44 44 43 44 44 46 43 43
25 26 27 29 31 32 32 32 33 32 32 34 36 38 39 39 41 40 39 41 41 41 42 43 43 43 42 43 43 41 38 36 33 32 35 37 37 36 36 37 38 40 41 42 42 42 43 44 44 45 45 42 43 45
26 28 31 33 34 34 33 35 35 33 30 31 32 35 37 38 38 37 38 40 41 43 44 46 46 46 46 46 45 44 42 39 37 35 35 37 39 40 40 39 39 38 39 41 43 45 45 46 47 45 44 46 47 47

GFSWCAN_500_spd_009.txt.gz
Wind_Speed
39 37 43 46 38 39 41 41 40 38 35 34 33 33 32 32 33 33 32 33 34 33 33 33 34 33 32 31 30 30 30 29 30 30 30 31 32 33 35 36 38 40 40 41 45 47 49 42 40 37 38 40 43 47
41 36 35 40 40 37 38 39 38 38 37 36 34 34 34 34 35 35 34 34 34 34 33 33 33 33 33 32 32 33 33 33 34 34 34 35 36 37 39 40 39 37 39 41 48 44 41 42 44 44 44 46 51 55
39 34 34 33 41 44 40 37 39 39 37 36 36 35 35 35 36 36 36 36 36 36 37 36 35 34 34 35 36 36 36 37 38 39 40 41 42 41 42 42 41 36 39 46 49 40 41 41 43 44 48 52 55 58
41 39 39 36 39 37 36 41 39 40 38 37 36 37 36 36 37 38 38 37 37 38 40 39 40 39 39 40 40 41 41 42 43 43 44 46 45 45 44 44 44 36 43 50 51 44 44 43 48 50 52 55 56 59
45 44 45 36 32 33 32 35 43 41 38 39 38 37 38 38 37 37 38 38 39 39 42 40 41 42 42 43 44 44 44 45 46 46 46 46 47 45 47 48 43 38 45 51 51 47 45 50 53 57 57 56 59 62
42 47 45 42 37 35 33 33 36 38 39 39 39 41 39 39 39 39 39 40 40 40 41 42 42 42 44 44 44 46 47 47 47 46 46 48 46 45 51 49 42 42 49 54 52 51 53 54 55 53 56 59 62 64
49 45 47 43 41 42 41 39 40 39 38 39 39 39 40 40 41 42 41 38 39 40 41 42 42 42 41 41 42 44 44 45 45 46 48 46 46 49 51 47 44 50 52 52 51 53 54 56 58 58 61 63 65 67
49 49 49 49 48 46 44 39 38 39 37 37 38 38 40 42 42 44 45 43 42 43 42 46 47 44 40 41 43 44 45 46 47 47 47 46 48 49 51 47 50 51 51 52 53 54 56 57 60 63 64 65 67 69
53 52 50 51 52 51 48 47 41 42 42 41 39 39 40 41 42 43 44 44 44 45 44 48 46 44 44 43 44 45 46 46 48 48 47 47 49 49 47 47 52 52 52 53 55 57 59 61 63 63 64 66 68 69
51 58 55 54 55 53 53 50 48 44 45 46 45 46 46 45 44 45 45 45 45 45 46 45 43 45 45 44 44 45 46 47 49 48 49 50 51 51 50 51 53 53 54 55 58 62 64 64 63 63 65 66 67 69
50 50 58 56 55 55 54 52 48 45 43 40 42 43 39 40 45 48 47 46 45 43 41 38 41 45 43 43 45 45 47 48 49 50 52 55 57 51 50 52 53 55 57 60 63 65 64 62 62 64 64 67 68 70
53 51 47 46 48 52 57 58 54 51 48 45 44 44 43 45 44 47 49 46 45 44 40 36 39 44 48 49 51 50 46 47 51 52 54 54 51 50 52 53 58 61 62 65 65 64 61 61 62 64 66 68 69 70
34 48 54 51 44 47 47 50 56 56 51 46 44 49 50 55 54 57 57 52 47 44 42 45 49 48 46 47 45 43 47 52 53 51 50 52 53 55 56 60 62 65 67 66 64 61 60 61 63 66 67 68 69 69
20 22 31 44 50 49 44 47 45 50 52 50 49 54 57 59 60 61 56 51 51 50 49 50 50 49 49 48 49 49 53 55 55 54 55 56 58 60 62 64 65 64 62 61 59 59 61 63 64 66 67 68 66 64
24 25 25 25 31 45 53 50 44 50 51 54 54 54 55 61 62 63 59 57 57 57 55 55 55 53 52 52 53 54 57 60 59 57 59 61 63 65 66 64 61 60 60 59 59 61 62 64 65 65 65 63 62 61
24 26 29 30 28 27 35 49 55 51 52 55 58 53 51 49 51 56 57 50 50 50 51 52 57 59 58 60 61 61 62 63 62 62 63 64 64 62 59 57 57 57 58 60 61 62 63 64 64 62 60 59 60 60
27 29 31 32 33 32 31 33 44 53 57 54 55 54 47 47 48 53 56 51 49 47 49 53 55 55 57 57 57 56 56 57 58 58 57 53 50 52 55 57 57 58 59 60 61 62 62 61 59 58 58 58 58 57
34 35 35 34 35 35 37 38 39 46 50 55 54 51 51 51 49 48 47 48 48 46 46 47 48 50 52 54 54 53 53 51 48 45 47 50 54 56 57 56 57 58 59 60 60 60 59 57 56 57 58 57 56 54
38 37 37 37 37 37 39 39 39 40 44 47 51 54 54 53 53 50 49 49 47 46 46 44 46 46 46 47 48 50 49 47 46 48 51 53 54 56 57 58 59 59 59 58 57 55 55 55 56 57 57 56 54 51
37 37 35 32 32 31 34 34 31 33 35 37 40 42 46 48 47 48 47 43 41 39 39 38 39 43 45 43 43 43 45 46 47 49 51 54 56 56 57 57 56 57 55 53 53 54 53 55 55 56 54 52 49 45
36 35 31 32 32 27 27 31 27 26 25 26 28 28 29 31 31 31 31 33 34 35 38 41 42 43 43 45 46 47 50 51 51 52 54 55 55 54 53 53 53 52 51 51 52 52 54 53 51 48 45 42 41 41
44 35 31 28 29 27 23 26 34 31 28 28 29 30 30 30 30 31 32 35 37 38 40 42 44 45 45 46 48 48 47 47 48 49 50 50 50 50 50 50 50 51 52 53 54 52 49 46 43 40 38 35 34 34
44 33 33 30 27 22 21 21 21 23 23 20 18 20 23 26 27 29 31 33 38 41 43 45 46 47 48 48 45 44 45 46 46 47 47 48 48 49 49 51 53 54 53 51 49 46 40 36 36 34 33 32 31 31
41 39 37 37 34 20 19 25 27 27 26 24 22 23 24 26 30 35 37 43 46 45 44 40 39 38 39 40 41 41 42 43 44 44 46 48 50 51 54 56 56 55 53 48 47 42 35 33 33 33 32 32 32 33
30 31 35 34 36 33 31 27 26 25 20 20 23 24 28 31 36 39 36 35 33 32 34 36 37 38 39 39 40 40 41 43 46 47 49 53 56 57 58 58 56 54 50 48 46 41 34 33 34 34 34 35 34 34
34 31 31 28 19 17 15 15 14 16 19 22 27 30 34 36 37 33 33 36 37 37 37 37 35 35 35 37 40 43 46 48 50 52 54 56 57 58 59 58 55 51 50 49 46 42 36 34 33 32 32 33 34 37
21 22 20 19 17 15 16 18 21 23 25 27 28 31 33 34 34 36 37 39 38 36 35 36 37 39 40 43 45 47 48 50 50 50 52 53 55 58 60 63 58 50 47 46 44 41 36 33 32 33 34 35 38 41
13 13 12 14 16 19 21 23 24 25 26 28 32 35 37 35 33 34 35 36 37 38 39 40 41 43 45 46 46 44 44 46 47 49 50 51 53 55 58 50 43 40 39 38 39 38 35 34 35 35 36 39 41 42
18 16 17 17 18 20 23 25 27 28 31 34 35 35 34 34 35 35 35 36 37 39 41 44 47 49 47 45 45 45 46 47 48 48 49 49 50 49 42 34 31 33 34 36 36 37 37 37 38 39 40 41 42 44
18 19 20 21 24 27 29 31 32 33 33 33 33 34 33 32 33 35 38 41 43 45 46 46 46 47 47 46 46 47 47 48 49 49 49 49 48 45 40 36 35 35 36 36 36 36 37 40 41 41 42 44 45 46
21 24 26 29 31 32 33 33 33 32 33 34 36 38 39 41 41 42 43 43 45 46 46 47 47 47 46 46 47 47 48 48 49 49 49 48 47 46 43 40 39 40 40 40 40 39 39 41 43 43 43 44 46 48
28 29 30 31 31 33 34 35 36 37 39 40 40 42 42 42 42 41 41 42 44 46 46 46 45 45 46 47 48 49 50 51 51 52 51 50 49 47 45 44 42 41 42 43 43 43 42 41 41 42 45 47 49 50
25 27 29 32 34 35 36 37 36 35 34 36 37 38 39 40 40 41 43 44 44 44 44 45 46 47 49 50 52 53 54 55 55 55 54 53 51 50 48 47 46 45 44 43 43 41 41 41 43 46 48 50 51 51

GFSWCAN_500_spd_012.txt.gz
Wind_Speed
42 44 44 41 44 46 45 45 43 40 36 34 33 32 31 31 32 33 33 34 36 38 37 38 36 36 35 35 33 33 33 32 32 32 32 32 33 33 34 36 36 38 40 41 43 44 45 47 48 47 45 42 44 44
42 45 44 38 43 39 44 46 45 42 38 35 35 33 32 31 31 32 33 33 34 36 36 37 37 37 37 38 36 32 36 33 35 34 34 35 36 36 37 39 41 44 42 45 45 45 45 48 52 50 48 48 47 49
38 42 41 34 42 39 42 43 44 42 40 37 34 33 32 32 31 32 32 34 34 34 36 38 36 36 37 37 36 36 35 36 37 36 37 38 39 40 41 42 43 46 42 46 49 45 47 48 50 53 52 52 53 55
38 42 41 36 41 43 39 41 42 41 39 37 36 35 34 33 33 33 33 34 36 34 36 36 36 37 37 37 37 37 38 38 39 40 41 42 43 44 44 46 48 43 44 43 46 46 51 50 53 55 54 53 56 59
42 40 37 35 35 42 41 37 39 40 38 37 35 35 35 35 34 34 34 36 36 37 36 35 37 37 38 39 39 40 40 41 42 44 45 46 47 48 48 48 48 40 42 44 46 50 49 53 54 54 53 54 56 59
48 38 36 37 33 35 40 41 38 35 37 38 36 35 33 33 36 36 37 38 37 37 38 38 37 38 40 40 41 42 44 44 45 47 48 49 48 49 51 51 44 42 43 44 46 51 54 54 56 55 55 57 60 64
47 41 37 37 37 38 35 35 36 35 35 38 36 36 35 35 36 37 37 35 35 37 38 39 40 41 41 41 41 42 43 44 44 47 48 45 45 50 54 51 40 42 44 47 48 51 54 55 55 55 56 60 64 67
44 46 44 42 42 39 37 35 33 33 33 35 39 38 36 37 38 41 40 38 38 39 39 40 42 41 37 39 39 40 41 41 44 45 47 47 47 51 55 45 43 42 45 48 52 55 55 55 55 57 59 64 66 67
46 47 48 45 45 41 40 36 35 33 31 31 34 36 36 37 38 38 40 41 41 44 44 42 41 41 41 40 40 42 43 43 46 48 47 48 50 51 45 45 45 48 49 53 57 55 55 54 57 61 64 67 68 68
45 49 49 43 41 41 40 38 37 38 36 33 35 35 35 35 36 39 39 40 40 43 46 46 45 46 44 44 42 42 42 44 47 46 46 49 50 47 45 46 45 50 54 54 53 55 55 59 61 65 67 68 68 68
42 45 47 46 46 43 43 44 42 42 40 39 36 35 35 36 40 43 44 43 41 40 41 41 43 43 43 42 42 42 43 45 47 48 50 50 47 45 45 44 49 55 54 53 55 57 61 64 66 68 67 66 66 66
42 44 43 46 47 49 46 46 43 44 45 42 41 40 39 41 44 47 46 46 46 45 41 42 42 40 41 42 44 45 44 46 47 48 51 51 49 47 46 50 53 54 56 59 60 62 65 67 67 65 65 64 65 67
31 38 46 45 48 52 51 49 49 49 46 44 41 40 41 43 46 50 47 43 42 41 38 37 38 40 42 44 47 47 49 52 52 51 49 47 47 50 53 57 58 58 61 64 65 65 66 65 64 63 62 65 68 69
19 28 39 47 48 46 48 48 48 51 52 50 48 47 47 47 50 50 51 48 47 46 45 47 47 50 49 48 46 50 54 55 54 53 51 52 54 56 58 61 61 60 64 66 66 66 62 60 60 62 65 66 67 68
15 15 18 26 39 48 47 44 40 41 45 49 53 51 53 52 52 51 54 56 56 53 54 55 56 55 51 53 54 56 57 55 55 54 56 57 59 61 62 63 63 63 65 67 64 59 58 60 63 64 64 65 67 67
18 19 20 19 19 23 31 40 47 46 45 44 50 54 53 49 48 49 50 54 59 57 52 53 53 56 59 61 63 63 61 59 59 59 60 61 61 58 58 60 62 63 60 57 56 59 61 62 62 63 64 66 67 67
20 20 19 19 22 24 24 24 29 41 50 50 48 49 52 53 49 43 40 41 42 43 46 50 51 51 54 57 57 57 58 57 55 54 54 53 55 56 55 54 53 53 54 56 57 58 61 63 63 64 64 65 66 65
26 25 24 23 23 24 27 30 31 30 31 40 49 51 51 51 50 51 46 41 39 36 38 41 44 45 48 49 49 48 49 51 52 51 51 51 50 50 50 51 54 54 55 57 59 60 62 63 63 62 62 63 63 63
31 30 30 29 29 29 30 32 33 34 34 34 35 38 45 47 50 50 46 44 43 42 41 43 44 45 46 46 46 47 48 49 50 50 50 50 50 51 54 57 57 57 56 57 58 59 59 59 59 60 62 62 61 58
37 37 36 36 35 34 35 35 35 36 36 35 36 38 40 42 45 46 48 49 49 50 51 49 48 48 48 47 46 46 47 47 47 47 49 52 55 55 54 53 53 53 54 55 55 55 56 55 56 59 58 54 53 50
43 41 39 37 36 36 36 33 32 32 31 28 28 32 34 33 32 33 34 35 36 35 37 37 36 36 36 36 38 40 42 45 47 50 51 51 51 50 50 50 51 51 51 52 52 52 53 55 56 54 49 49 48 45
43 39 35 35 34 32 30 28 25 23 26 25 24 21 23 24 25 26 27 28 29 30 31 30 30 31 35 39 41 43 44 46 47 46 46 46 46 47 47 47 49 50 51 53 55 56 56 54 53 50 48 48 45 41
40 37 32 30 27 25 25 24 24 23 24 30 30 27 27 26 25 25 25 24 24 26 29 33 37 41 45 46 45 43 42 41 41 42 43 44 45 46 47 49 51 54 55 54 57 57 58 57 54 50 47 45 43 39
31 32 32 33 35 35 25 23 21 21 20 20 22 21 20 20 20 21 23 26 30 35 39 41 42 42 41 40 40 42 42 42 43 44 45 46 46 46 50 52 54 57 59 58 58 60 60 59 55 50 45 43 41 40
28 30 31 30 35 31 31 26 23 20 20 23 24 25 26 26 25 25 28 33 37 39 42 43 41 40 42 43 45 46 44 42 43 43 45 48 51 53 54 56 55 55 57 57 57 60 65 61 53 47 43 41 40 38
21 22 24 32 24 34 34 29 28 28 28 27 24 21 21 24 28 32 33 33 35 38 40 42 42 43 45 44 43 43 44 45 46 47 50 54 56 57 55 53 52 52 53 54 55 58 55 44 40 39 38 38 37 36
17 17 20 25 26 26 26 23 18 15 15 17 19 24 26 29 31 32 34 38 41 43 42 42 42 41 41 42 44 46 48 49 50 52 53 52 51 50 51 51 51 51 51 52 52 51 46 38 35 35 36 36 36 36
19 16 22 21 18 13 10 12 15 18 22 24 25 28 30 32 35 39 42 42 41 42 41 42 42 44 45 45 46 46 49 51 49 49 50 50 49 49 51 51 51 51 51 51 50 48 44 40 37 36 37 37 38 39
10 10 9 11 12 14 16 19 21 24 26 28 30 33 34 39 42 44 43 41 41 42 42 42 42 44 46 48 49 49 49 49 50 50 49 50 50 52 53 54 54 54 54 52 49 47 44 43 41 40 40 40 40 42
11 13 15 16 18 19 22 24 26 28 31 34 36 40 41 42 41 41 41 41 42 43 45 48 48 49 50 50 50 51 50 52 52 52 51 52 53 54 55 55 55 55 55 53 51 49 46 44 44 44 42 41 41 43
18 19 20 22 24 26 28 30 33 36 38 40 42 43 42 41 41 43 45 45 46 48 49 49 49 48 49 50 52 52 53 53 53 54 55 55 56 57 57 57 57 56 54 53 52 51 49 47 44 42 43 44 43 43
21 23 25 27 30 33 35 37 37 36 36 38 39 41 44 45 44 43 44 44 45 46 46 46 47 49 51 52 52 52 53 54 54 55 55 56 57 58 59 59 59 58 57 55 53 51 49 48 46 45 44 44 43 43
27 29 31 32 33 33 36 37 38 39 39 39 39 39 40 42 42 43 44 45 46 47 48 49 49 50 50 51 51 51 51 52 52 52 53 54 56 57 58 58 59 58 57 56 54 52 49 47 46 44 44 44 43 44

GFSWCAN_500_spd_015.txt.gz
Wind_Speed
50 45 46 48 48 47 46 44 42 39 37 35 32 31 31 31 33 37 40 42 42 42 41 41 40 37 37 35 33 31 31 31 31 33 32 32 34 34 35 34 33 35 37 37 39 41 43 46 48 47 43 46 48 48
38 41 42 46 46 44 45 44 43 40 38 36 34 33 30 29 31 33 35 37 39 40 41 42 41 41 40 38 35 35 36 32 35 35 34 36 37 36 35 37 37 39 39 40 41 44 44 49 51 51 49 49 47 50
38 39 40 45 50 46 41 45 44 42 39 37 35 34 33 31 30 31 34 35 35 35 38 40 40 39 40 41 39 37 37 37 37 35 37 39 39 37 37 37 39 41 43 44 47 47 49 53 53 51 51 50 51 53
38 39 40 43 41 44 49 41 45 43 41 39 36 35 34 33 33 30 30 32 33 33 35 36 36 36 38 39 38 37 37 38 38 38 39 39 39 40 40 41 43 40 44 45 47 46 51 52 51 53 51 50 52 56
35 32 38 36 37 37 38 45 41 43 42 41 39 36 34 33 32 32 33 32 32 32 33 32 33 33 35 37 37 37 36 38 38 39 39 40 41 41 43 44 44 40 44 45 45 49 49 49 51 50 50 53 56 56
32 35 37 36 37 34 41 36 38 40 42 41 39 38 37 36 34 33 33 33 32 32 32 32 32 32 35 36 36 36 36 37 37 37 40 43 41 43 46 47 43 40 38 42 47 46 47 52 50 50 53 56 56 55
44 39 33 34 36 32 36 38 34 38 39 39 39 38 37 36 35 34 33 32 32 32 33 34 34 35 35 36 35 35 36 36 38 40 42 41 41 45 47 46 40 40 42 47 45 45 49 50 50 53 57 56 55 55
45 42 40 37 34 32 31 35 40 37 35 36 38 38 37 35 34 33 32 31 32 33 34 36 36 34 33 34 36 35 35 36 39 40 42 41 42 44 48 42 43 42 43 46 46 47 50 52 54 57 57 55 56 60
48 47 44 41 38 37 35 33 34 38 37 37 32 33 36 37 36 35 34 33 33 35 37 36 36 36 35 34 35 35 36 38 41 42 41 44 46 48 43 43 44 45 45 45 47 49 50 51 57 59 57 59 63 66
45 46 44 41 40 38 38 37 37 37 35 34 36 35 35 35 36 37 36 35 35 36 39 38 38 39 38 38 39 40 40 42 44 44 46 48 48 43 41 44 46 46 46 48 52 50 51 54 57 59 62 66 68 71
35 45 46 45 44 42 40 39 39 38 38 35 34 32 29 29 34 36 36 34 34 34 34 32 32 34 35 37 38 40 42 43 45 46 48 47 43 37 40 43 46 48 50 50 49 51 56 59 60 62 64 67 70 71
32 34 41 46 46 44 40 42 42 40 39 36 35 34 33 32 32 36 34 33 33 33 35 35 32 32 37 39 41 41 43 44 44 45 47 47 45 44 45 47 49 49 48 49 52 57 60 63 63 64 66 68 69 65
30 35 37 40 39 45 44 43 40 39 41 40 37 37 36 36 37 38 37 36 36 35 35 35 36 33 33 35 38 40 44 46 47 48 49 49 48 49 52 52 52 52 53 55 58 62 65 65 64 65 68 67 62 62
20 29 33 38 40 42 43 44 45 42 41 39 39 38 40 41 43 41 41 42 43 40 39 40 40 41 41 41 42 45 50 54 56 56 53 51 52 55 58 58 57 57 59 61 64 65 64 63 65 65 61 61 62 65
10 12 20 30 38 42 43 43 45 45 46 46 46 45 46 45 45 44 44 44 45 45 46 48 47 48 48 48 50 54 55 55 54 55 56 58 60 63 64 61 60 60 62 61 60 60 62 61 59 59 62 64 67 70
10 9 9 10 15 27 39 46 46 44 44 45 46 45 46 49 50 49 48 46 45 48 49 51 53 55 55 54 52 51 50 51 56 59 60 61 60 55 52 52 54 54 55 57 58 56 56 58 60 62 65 67 67 66
13 12 12 13 13 13 14 18 25 36 43 43 43 42 42 45 48 52 55 52 47 43 42 45 47 47 49 50 49 51 51 52 53 50 45 43 42 45 48 51 52 52 52 52 55 57 61 63 63 62 62 63 63 62
17 16 16 16 15 15 16 16 18 19 21 25 32 41 48 48 47 47 47 49 51 51 46 41 37 36 37 40 43 46 49 47 45 44 46 46 46 46 48 50 53 55 57 56 57 57 57 58 58 59 58 58 57 59
23 23 23 22 22 21 21 21 21 21 22 24 27 28 28 29 35 41 44 44 43 41 35 35 39 39 38 38 39 40 41 43 44 45 47 50 51 50 50 50 52 53 54 53 54 55 55 54 54 55 55 56 57 55
29 29 29 29 28 28 28 27 27 27 27 28 30 31 32 31 31 32 33 33 35 38 41 42 44 45 48 50 50 49 51 50 48 46 42 44 45 46 49 50 50 51 51 51 51 51 51 51 52 54 55 56 56 55
35 36 36 36 35 35 34 33 34 33 33 32 32 32 32 33 32 32 32 31 32 30 31 29 27 26 27 26 28 29 32 34 37 39 41 44 46 47 48 49 49 48 48 48 50 50 51 53 53 53 53 53 55 56
43 42 42 42 41 40 40 38 36 34 33 32 31 30 28 26 26 25 24 23 23 23 23 23 23 24 26 27 31 33 35 39 41 42 42 41 42 43 44 46 47 48 48 49 50 53 53 54 53 53 53 54 55 60
50 49 47 45 43 41 38 35 32 30 28 26 25 22 24 21 21 21 21 21 22 22 22 22 25 29 32 35 37 40 43 41 40 40 41 43 44 45 45 46 47 49 50 51 55 56 55 54 54 54 54 55 57 59
52 49 46 41 38 35 32 29 26 23 21 19 18 19 21 22 21 19 18 19 19 22 25 28 31 34 37 40 41 39 39 41 44 46 45 44 44 44 46 48 51 54 56 57 57 57 54 54 54 53 53 52 52 50
34 33 34 32 35 32 29 25 21 19 18 19 20 19 19 19 20 21 23 24 25 27 30 33 36 38 40 41 42 43 44 44 44 45 46 46 48 49 50 53 55 57 59 60 57 54 53 52 51 50 50 49 48 45
19 21 21 21 21 27 27 27 28 24 25 24 21 21 22 24 24 24 23 26 29 29 34 37 39 41 43 46 46 44 43 45 46 48 50 52 52 53 55 57 57 56 57 56 54 52 51 51 50 50 49 48 47 44
10 9 8 11 11 15 20 19 27 32 27 28 30 29 21 17 18 23 28 30 33 35 38 42 44 45 45 47 49 48 48 49 49 49 51 52 53 55 55 54 54 53 53 53 52 52 52 52 52 52 51 49 47 45
5 6 4 5 9 12 14 16 23 28 26 19 13 16 20 23 28 31 33 35 38 41 43 45 46 45 45 47 48 47 47 49 52 53 54 54 52 53 54 55 55 54 54 54 55 56 56 57 56 54 53 51 48 46
9 7 12 16 16 15 14 12 11 11 14 17 21 24 28 30 33 36 39 42 44 45 45 46 48 49 50 50 49 49 51 52 52 53 53 55 56 57 57 57 58 58 58 58 60 61 60 59 58 57 54 51 49 46
10 12 12 11 10 11 13 15 18 21 23 26 28 31 33 37 40 42 43 44 45 47 48 49 50 52 52 53 53 53 51 51 51 51 52 54 56 56 56 56 57 57 57 57 57 57 58 58 58 57 53 51 50 46
10 11 12 14 16 18 20 22 25 28 30 33 36 38 41 42 43 43 44 46 48 50 50 49 48 48 48 48 49 51 52 52 52 53 53 54 54 54 54 54 54 54 55 57 58 59 58 58 57 55 52 49 47 45
17 18 20 21 24 26 29 31 34 36 38 40 41 42 43 44 45 46 45 45 46 47 48 49 50 51 51 51 51 51 51 52 52 51 51 51 49 48 47 48 50 52 55 57 56 54 52 49 47 45 44 43 42 41
23 25 27 29 30 32 34 36 37 37 38 39 39 38 38 40 39 41 42 44 46 48 50 52 53 53 53 52 51 50 49 49 48 47 44 43 42 43 45 47 49 49 51 52 51 48 44 40 38 36 35 35 36 35

GFSWCAN_500_spd_018.txt.gz
Wind_Speed
46 44 50 50 62 55 51 48 45 41 37 36 37 39 41 45 47 48 47 46 45 43 42 42 39 37 35 33 33 32 31 29 30 30 31 32 34 34 34 34 33 36 38 37 38 38 39 40 43 44 44 45 48 48
38 53 59 61 59 55 51 48 44 41 37 35 34 34 37 40 42 43 42 42 43 42 42 42 41 40 39 39 38 38 37 35 36 34 34 35 36 37 37 38 36 37 38 39 38 38 39 43 45 46 44 48 52 50
52 57 60 56 54 52 49 47 44 41 38 36 33 32 32 33 35 37 37 39 41 41 43 43 44 43 42 41 42 42 42 41 41 39 38 38 38 36 37 38 39 38 40 40 39 37 40 44 46 47 51 55 53 52
45 49 51 51 49 50 47 46 44 42 39 37 35 33 31 30 30 31 31 33 35 37 38 40 41 43 43 43 43 42 42 40 40 40 39 38 38 40 38 40 41 38 40 41 44 42 46 45 47 52 55 56 53 53
35 42 44 52 51 45 46 45 43 42 40 38 36 34 33 32 31 30 28 28 30 31 33 33 35 36 37 37 37 38 38 38 37 36 36 36 37 38 39 41 39 34 38 41 42 42 43 45 50 53 53 52 52 53
34 35 32 38 47 49 42 42 42 41 41 39 38 36 35 33 32 32 33 33 30 29 29 30 31 32 34 35 34 33 32 31 33 33 33 35 34 36 40 39 34 30 34 38 40 41 43 45 49 52 51 52 52 53
32 31 31 31 34 42 49 44 39 37 43 40 39 38 37 35 34 34 33 31 32 33 33 33 32 32 32 32 32 32 32 32 33 35 36 36 35 38 40 40 31 36 37 39 40 42 45 48 50 50 50 51 51 52
32 27 28 31 35 33 34 31 40 46 39 38 39 39 38 37 36 35 33 32 32 33 34 36 35 30 30 31 32 31 32 30 34 35 36 35 37 39 43 34 38 39 41 42 44 46 48 50 50 51 52 54 55 57
39 31 29 30 29 29 28 28 34 36 42 38 37 38 37 36 36 35 35 35 34 34 34 34 31 29 29 30 31 32 33 34 37 38 38 40 42 43 39 41 43 44 44 42 43 45 48 49 51 53 53 53 58 62
40 36 35 35 33 34 33 31 33 37 36 37 38 39 38 38 36 35 35 35 35 35 36 34 32 33 32 30 31 33 35 37 40 41 43 45 46 43 43 44 44 43 43 42 44 45 47 49 49 49 50 55 61 65
47 43 41 38 34 31 32 34 33 32 35 39 36 34 33 33 34 35 37 37 37 37 36 34 32 32 30 29 28 31 34 37 38 40 43 45 44 42 42 40 43 45 46 48 49 51 50 50 52 54 57 61 64 67
45 46 44 41 39 36 35 38 36 34 34 35 37 35 37 36 36 36 36 36 36 34 34 32 28 27 30 32 35 36 36 38 40 39 41 42 41 41 42 45 46 47 48 49 52 52 56 57 57 59 63 65 65 66
27 44 43 46 41 39 38 41 40 38 37 35 34 34 35 35 38 38 37 35 33 33 32 32 32 32 34 35 37 38 40 40 40 41 43 43 42 45 49 51 52 52 52 52 55 58 60 61 59 59 61 63 63 65
26 32 33 31 44 42 43 42 42 40 39 39 39 38 39 40 42 43 41 39 38 36 37 39 39 39 38 39 39 40 43 46 49 49 47 48 51 54 54 53 52 54 57 58 59 60 60 59 57 56 59 62 60 61
27 30 32 31 32 37 42 45 42 42 43 42 42 40 43 44 44 43 42 43 43 44 44 44 45 46 45 45 45 45 47 49 50 53 55 54 52 53 54 56 58 59 59 59 58 57 54 54 57 58 57 61 66 68
16 19 24 29 32 34 37 38 39 41 39 44 45 42 42 41 42 42 44 46 46 46 47 49 50 51 51 52 53 54 54 54 55 54 52 52 52 55 56 54 50 50 50 49 49 53 54 52 56 61 63 63 63 63
11 11 11 14 18 23 28 34 39 40 41 42 40 41 39 41 43 45 48 49 50 50 51 51 52 50 49 48 46 44 43 45 47 48 49 49 48 44 40 40 43 47 51 49 50 56 60 61 60 58 58 60 61 61
11 10 11 11 10 10 10 12 15 17 19 23 27 34 39 41 42 42 42 43 45 48 51 53 54 52 50 47 43 40 39 40 39 39 40 39 39 40 41 43 47 53 58 60 58 55 55 55 57 58 59 57 56 55
15 15 15 15 15 14 14 14 14 14 15 16 17 19 20 22 24 26 28 32 37 41 45 47 47 46 42 38 36 38 41 43 44 46 47 49 52 54 56 54 52 51 50 51 52 54 55 56 55 55 54 55 55 54
19 19 20 21 21 21 21 21 20 21 21 22 23 23 24 25 26 27 29 30 31 33 34 34 34 35 35 37 41 45 47 47 45 41 36 35 37 40 42 46 47 48 50 51 51 51 52 52 53 54 54 55 57 56
24 24 25 25 26 26 27 26 27 27 28 28 29 30 31 32 33 33 34 34 33 34 33 33 31 26 27 28 27 27 29 31 33 35 37 40 43 45 47 47 48 48 48 49 49 50 51 52 54 55 57 56 56 55
30 31 32 32 33 33 33 33 34 34 35 34 34 34 34 34 34 34 33 32 31 29 26 22 22 23 24 26 28 28 30 33 37 40 43 45 49 49 48 48 48 49 50 51 51 52 53 55 57 58 57 59 56 53
39 39 40 40 41 40 39 39 39 38 37 36 36 35 34 32 31 30 28 24 21 20 21 22 24 24 25 26 29 31 33 36 41 44 46 48 49 49 50 51 51 50 51 52 54 55 55 57 60 62 61 57 54 52
47 48 48 49 48 47 46 44 43 41 39 36 35 32 28 25 23 23 24 27 26 25 23 23 24 26 29 30 30 33 37 41 45 47 48 47 47 49 51 51 52 54 55 56 55 56 60 61 60 59 57 55 53 52
50 50 51 51 50 49 48 45 41 36 32 30 27 24 23 21 20 19 18 20 23 24 25 27 29 31 32 34 36 39 43 47 49 50 50 50 50 51 53 55 55 55 56 58 59 60 59 59 59 58 56 55 54 53
31 32 34 33 31 32 32 31 30 29 26 25 24 23 22 23 23 22 21 24 26 28 28 30 32 34 36 39 42 46 49 51 52 52 52 52 52 52 52 54 57 59 60 59 58 58 58 58 57 56 56 56 56 56
8 9 9 8 10 10 9 13 21 22 26 25 23 21 25 27 27 28 30 29 27 28 30 34 37 40 43 46 49 52 54 53 53 54 54 55 56 56 57 58 58 57 57 57 58 59 58 57 56 56 56 56 56 55
10 8 7 5 6 7 10 13 14 12 14 18 24 27 29 30 29 28 26 27 30 35 39 42 44 47 49 52 53 54 53 53 55 56 56 55 55 55 55 55 55 55 55 57 58 58 58 58 58 57 57 56 57 56
2 2 3 6 10 11 12 14 17 18 19 21 23 22 21 22 25 28 32 36 39 41 44 48 50 52 53 52 52 53 54 53 53 54 54 54 55 56 56 56 56 56 56 57 58 57 55 55 56 57 57 58 58 56
1 3 5 10 15 15 14 14 14 15 16 18 20 23 27 30 34 37 40 43 46 48 50 51 52 53 53 53 52 51 51 51 52 53 54 55 55 55 55 55 54 54 52 50 49 51 54 56 56 57 59 58 53 49
7 9 11 11 12 14 16 18 19 21 23 26 28 31 34 38 40 43 45 48 50 52 52 52 51 51 50 50 51 52 53 55 56 55 54 54 53 51 50 49 47 45 45 46 49 51 51 50 51 53 53 50 45 40
14 15 16 17 19 20 22 24 27 29 32 34 36 39 41 44 45 46 46 47 47 47 47 47 48 49 51 53 55 55 55 53 51 50 49 47 46 44 42 41 42 43 45 47 46 46 46 47 50 50 47 44 39 34
21 22 24 25 27 28 29 31 32 33 34 34 34 34 35 37 38 40 43 45 47 48 49 50 51 52 53 53 53 52 51 50 48 46 43 40 37 37 39 41 41 42 42 42 42 43 43 45 47 47 43 39 35 30

GFSWCAN_500_spd_021.txt.gz
Wind_Speed
54 48 43 38 41 43 46 45 42 38 33 31 32 37 42 47 50 53 53 51 49 47 44 42 41 39 37 35 33 31 30 29 29 29 28 28 31 31 31 32 33 35 38 38 40 42 44 40 43 44 43 43 45 46
47 43 40 41 41 43 47 45 42 37 34 28 31 35 40 43 47 49 48 48 48 46 44 42 41 40 39 38 36 36 34 33 34 34 34 35 37 37 36 37 36 38 39 40 40 40 40 43 45 44 45 46 48 46
45 45 43 45 41 49 47 44 41 37 35 32 30 32 36 39 42 45 47 46 47 46 45 44 43 41 41 40 40 39 38 38 40 40 40 40 41 41 41 41 40 39 40 40 39 37 39 43 45 45 47 48 47 46
42 39 44 44 45 53 48 44 41 38 34 32 30 30 32 34 36 38 40 42 43 43 44 44 44 43 42 42 42 43 42 43 44 43 43 42 42 43 42 42 43 39 38 38 42 39 43 43 43 45 46 47 48 52
44 40 42 43 46 52 49 45 42 39 36 34 30 29 29 30 31 32 34 36 37 40 40 41 42 42 42 42 42 42 41 40 39 39 38 39 41 40 42 42 38 33 35 39 39 41 43 43 44 45 46 49 51 51
32 41 43 46 55 50 49 46 42 39 35 33 33 31 29 28 28 29 29 30 31 33 34 35 36 36 36 36 36 35 34 34 34 33 35 36 33 36 39 38 31 28 34 39 41 42 42 42 43 46 47 49 49 50
30 39 48 53 54 50 48 46 43 41 38 35 33 31 31 31 30 29 27 27 28 29 29 30 30 31 29 29 30 30 31 31 32 34 34 34 33 37 38 37 26 33 36 37 39 41 41 43 46 47 47 48 49 51
35 39 44 49 45 44 44 42 41 40 39 38 36 35 34 32 32 30 29 30 31 32 33 34 33 29 29 30 31 31 31 32 33 35 36 35 38 38 39 30 36 38 39 40 42 43 45 47 47 46 45 46 49 52
26 25 25 33 45 45 41 40 40 40 39 38 38 37 38 37 36 34 34 33 33 33 33 32 30 29 29 29 31 32 33 34 36 36 36 37 40 40 36 37 40 42 43 44 45 44 45 46 47 49 51 53 55 55
28 27 28 27 30 34 40 47 46 41 37 36 37 39 41 37 37 37 37 36 36 36 36 35 32 31 30 29 30 32 34 37 39 38 39 40 41 39 39 40 42 43 43 43 44 43 42 45 48 49 55 54 52 53
31 30 29 32 34 30 31 35 37 39 36 42 45 42 37 37 38 37 38 37 36 36 35 34 32 31 30 30 31 34 38 37 39 38 37 36 34 35 38 39 39 40 42 42 44 47 49 50 50 50 52 55 59 61
35 34 30 31 30 30 29 28 28 27 30 34 34 36 39 38 37 40 42 42 42 41 38 33 30 32 34 35 37 37 36 38 40 40 41 41 40 39 40 41 43 43 44 46 49 50 50 51 50 51 54 57 58 59
39 39 33 31 31 30 28 28 27 27 30 33 34 35 35 36 38 42 40 40 36 35 34 31 32 34 37 38 39 39 40 41 42 44 46 47 46 47 48 49 50 52 54 56 57 57 55 56 58 59 58 57 56 59
44 39 41 39 34 37 34 33 31 29 30 35 32 32 36 41 42 41 39 37 37 36 36 35 35 35 35 37 39 41 44 44 47 48 49 49 51 53 54 56 56 58 57 58 58 57 57 59 56 55 57 57 56 56
33 38 39 36 39 41 38 36 34 33 33 35 37 37 39 39 39 39 39 39 39 39 39 40 41 42 42 43 43 45 47 50 53 54 54 54 55 57 58 59 58 55 55 56 55 53 53 52 52 53 55 56 56 62
29 30 33 39 41 34 35 39 40 38 39 39 41 41 41 41 42 43 44 45 45 45 46 46 46 47 47 49 50 52 53 54 52 50 50 50 49 49 50 51 52 52 49 49 48 47 49 51 55 56 59 63 64 64
26 27 29 32 34 36 35 33 39 47 43 44 43 45 44 44 45 47 48 49 48 47 47 48 49 48 51 51 51 49 48 45 41 40 41 44 44 43 43 43 41 42 44 48 53 57 59 59 61 61 61 60 61 63
16 17 18 19 22 25 27 29 31 35 35 38 38 39 40 41 42 43 41 43 45 46 47 48 51 52 53 54 55 54 54 52 51 43 44 46 45 44 44 46 48 51 53 53 52 51 53 54 55 58 59 60 59 58
13 14 15 15 15 15 14 13 15 14 14 15 15 17 19 19 22 23 23 26 29 31 33 36 40 43 45 48 49 48 45 44 42 42 43 46 47 49 50 48 46 44 48 50 53 54 56 58 60 60 59 58 58 58
14 15 16 16 16 16 16 16 16 17 17 17 17 18 19 20 21 23 24 25 26 28 29 32 34 36 36 38 39 39 38 35 34 35 34 35 36 38 40 42 45 47 48 55 57 57 56 56 57 58 58 58 58 59
20 20 20 21 21 22 22 22 23 24 24 24 25 26 27 28 29 30 31 32 33 34 36 37 39 40 41 41 41 37 31 28 30 33 35 36 37 41 42 46 48 54 58 57 55 55 57 58 57 57 58 60 60 57
22 23 24 25 26 26 26 27 28 29 30 31 31 32 32 33 34 35 36 37 38 38 39 40 41 42 40 35 29 29 30 32 34 35 37 39 40 44 47 51 54 55 55 55 55 56 56 57 59 59 59 58 59 60
29 29 30 30 30 30 31 32 32 33 34 34 35 36 37 37 38 38 38 37 37 37 37 37 34 29 27 28 31 32 34 35 36 36 38 41 43 48 51 53 54 56 56 57 58 58 58 58 59 61 63 63 62 61
38 39 39 39 39 40 40 41 41 41 41 41 42 41 40 39 38 37 35 33 30 29 28 29 29 30 31 32 32 33 36 38 39 42 44 46 49 53 57 59 60 60 59 59 59 59 61 63 64 65 64 63 62 62
44 47 47 48 48 48 48 48 48 47 46 45 43 39 36 35 34 33 31 28 28 27 26 25 25 26 29 33 36 38 40 42 43 45 49 53 57 60 63 63 62 61 61 61 62 62 62 62 61 60 60 61 61 61
46 46 46 48 49 50 49 46 44 41 39 38 37 35 33 31 29 29 25 25 25 26 27 28 30 33 36 37 38 40 43 45 48 52 56 60 62 63 62 62 62 61 60 59 58 59 60 61 61 60 59 59 59 58
2 2 3 8 16 19 17 16 16 15 15 24 25 26 25 27 28 24 23 25 27 29 31 35 36 37 37 38 41 44 49 53 57 60 62 63 62 62 62 60 58 58 59 60 60 60 59 58 58 58 57 55 55 56
5 2 3 2 2 3 5 5 8 12 12 13 16 20 21 23 22 23 27 30 33 35 37 37 37 37 40 45 51 55 58 59 62 62 62 62 60 58 58 59 60 61 61 60 59 57 56 55 53 53 53 54 54 54
2 2 4 6 6 5 5 4 5 5 9 11 13 16 20 24 27 30 32 33 33 34 35 38 43 48 52 55 57 60 62 62 62 60 58 57 58 59 61 61 60 58 56 55 55 53 51 50 51 52 53 52 51 51
2 1 2 3 5 6 8 10 13 15 16 16 17 18 20 22 25 28 31 35 38 42 45 48 51 54 56 58 58 58 57 55 55 56 58 59 59 59 58 57 55 53 52 49 46 46 48 49 50 51 51 51 51 52
7 7 8 11 14 14 14 15 17 18 19 21 23 26 28 31 34 37 40 43 45 48 50 52 53 53 53 52 53 54 55 56 57 57 57 57 56 56 54 52 48 44 41 42 44 44 45 45 45 44 46 47 48 50
15 16 17 18 19 20 21 22 23 25 27 29 31 33 36 38 40 42 42 43 44 45 47 48 50 52 53 53 53 52 52 53 53 54 54 52 50 48 44 40 37 38 40 41 43 43 41 40 40 42 43 45 47 47
24 25 26 27 28 28 29 30 30 31 32 33 31 30 30 32 34 37 41 43 46 48 49 49 49 48 48 49 49 50 50 50 50 48 46 44 41 37 35 35 36 38 40 41 39 36 35 36 38 40 42 43 45 45

GFSWCAN_500_spd_024.txt.gz
Wind_Speed
60 53 54 52 47 40 37 36 32 38 36 32 30 31 37 43 50 52 51 52 49 47 43 41 39 36 36 34 33 31 29 28 27 26 25 24 25 25 25 25 27 31 35 36 40 43 45 42 44 44 46 47 48 48
52 49 49 42 40 38 35 32 30 34 32 30 28 32 37 41 39 34 52 51 49 46 44 41 39 39 38 38 36 35 33 32 32 31 31 31 31 32 32 34 34 36 36 40 41 40 41 43 45 45 46 47 47 48
47 48 41 38 37 35 31 32 35 30 28 29 25 30 36 40 45 42 45 47 50 47 45 43 41 39 39 38 37 36 36 35 36 37 36 36 37 38 39 40 41 40 41 42 41 38 41 45 46 45 47 47 48 49
44 39 36 32 30 28 23 35 36 32 27 27 25 28 33 37 42 41 39 42 46 46 45 43 42 40 39 38 38 38 38 40 40 40 41 41 43 43 43 44 44 41 37 35 40 37 41 42 42 43 44 46 47 48
35 32 29 28 28 27 34 34 34 34 30 26 23 22 25 32 36 44 43 41 41 42 42 41 42 41 41 40 40 41 42 42 43 43 43 43 44 42 42 41 37 31 32 37 40 39 41 39 40 41 42 44 45 47
30 30 29 30 32 29 37 34 33 32 30 29 26 25 26 27 30 34 37 38 36 37 38 38 38 38 39 40 41 42 41 41 42 40 39 40 35 37 41 40 28 30 37 39 40 40 40 41 42 44 44 45 47 49
28 29 34 34 28 35 34 34 35 33 31 31 29 27 25 25 25 27 28 28 29 31 32 34 35 35 35 35 34 34 34 33 34 34 34 33 31 35 38 37 28 35 37 37 39 41 42 43 45 46 47 48 49 50
33 30 32 32 28 38 35 35 34 33 31 29 28 27 26 25 24 23 24 26 27 28 29 30 29 26 27 27 29 29 30 31 32 33 34 33 36 38 38 32 33 36 38 40 42 44 46 47 47 47 47 47 47 50
26 33 36 34 31 42 37 36 38 36 32 30 29 27 27 27 26 26 26 26 28 29 29 29 28 27 29 28 29 30 31 32 34 34 35 36 37 38 37 36 37 39 41 43 43 44 46 47 47 47 47 50 52 54
19 26 34 37 44 40 36 42 40 37 34 33 31 30 29 29 28 29 29 30 31 32 32 30 28 28 27 28 29 31 32 34 35 36 37 38 38 40 39 38 38 40 41 44 45 46 46 46 46 47 50 53 56 58
18 18 22 25 49 53 47 43 41 38 37 36 35 34 33 33 34 35 37 37 36 36 35 34 31 31 29 31 32 35 37 37 39 39 39 39 39 39 39 39 41 43 43 43 45 47 48 50 52 55 57 57 55 55
20 23 21 21 24 37 45 42 39 38 37 38 37 37 37 38 39 41 43 41 39 37 35 32 31 31 32 32 35 37 38 40 42 42 44 44 41 40 42 45 46 46 47 48 50 52 53 54 56 58 59 55 53 55
26 27 28 27 27 28 32 36 38 38 39 39 38 37 38 41 45 48 45 38 33 32 32 32 32 34 35 37 38 38 41 43 43 44 45 46 45 45 47 49 50 52 54 57 60 63 64 63 60 56 55 54 52 56
31 29 30 27 26 26 29 28 26 25 25 27 29 31 33 33 34 34 32 34 36 35 32 32 34 35 34 34 35 36 38 40 43 44 44 45 48 50 53 55 58 60 61 62 59 55 55 54 52 51 50 52 55 60
37 34 32 31 28 28 28 28 27 27 26 26 25 27 29 29 31 31 32 34 35 36 36 36 35 35 35 36 39 41 44 46 47 47 49 52 54 56 58 60 60 60 58 57 56 56 56 56 54 54 53 52 53 56
42 41 38 35 34 33 31 30 31 31 31 30 30 29 30 30 32 33 34 34 35 36 38 39 40 41 41 43 45 47 49 50 49 51 52 54 54 54 51 51 52 53 54 54 55 53 51 51 52 54 56 57 60 60
37 40 38 39 38 36 34 34 34 35 38 36 33 33 34 35 37 37 39 40 41 43 44 44 46 44 48 49 45 45 46 49 50 52 54 55 54 54 51 48 49 48 47 48 51 53 55 55 54 55 56 57 59 62
16 20 26 31 31 33 35 35 34 35 36 37 37 37 39 41 41 42 43 43 44 44 45 45 47 46 45 45 44 45 43 43 44 45 46 45 44 43 44 46 46 48 49 48 47 48 48 50 53 58 62 62 62 63
14 14 15 16 19 21 22 25 27 27 29 31 34 35 34 35 37 38 38 37 35 33 32 29 28 27 27 27 30 33 35 38 40 42 43 44 44 45 48 47 44 43 45 45 45 45 51 56 59 60 61 62 62 62
13 13 14 14 15 15 16 17 18 19 19 19 19 18 19 19 19 20 20 21 22 23 25 26 28 30 32 34 36 37 40 42 45 46 46 43 40 40 39 40 41 42 43 44 47 52 58 59 61 62 64 64 64 64
12 12 13 14 15 15 17 17 18 19 20 20 21 22 22 22 23 23 24 26 28 30 32 34 35 37 39 40 42 43 45 46 46 45 40 36 36 38 40 41 43 44 46 50 55 57 61 64 67 68 67 66 65 65
15 15 16 18 19 21 22 23 24 25 26 26 27 27 28 30 31 32 33 34 35 36 38 39 41 42 43 44 45 47 47 46 42 39 37 38 40 42 43 44 46 50 53 57 61 65 69 71 70 69 68 69 68 66
22 22 22 23 24 25 26 27 29 30 31 31 33 34 34 36 37 38 39 38 40 41 42 44 44 45 45 45 45 43 40 37 37 39 40 41 43 45 47 49 52 54 58 63 67 71 73 72 72 71 68 65 64 64
29 30 31 32 33 35 35 36 37 37 38 39 39 40 40 41 43 44 44 44 44 45 44 44 44 43 42 40 37 37 37 39 40 40 41 44 47 50 51 52 56 61 66 70 73 73 73 72 68 66 66 66 67 66
34 37 38 40 42 43 43 44 46 47 48 49 49 50 50 51 51 51 49 46 45 44 41 40 38 37 37 37 36 35 35 37 40 44 47 49 50 50 54 60 65 69 72 73 74 72 68 66 67 69 69 67 65 63
40 43 44 47 48 49 51 51 53 54 55 55 55 54 52 51 49 47 43 40 38 36 34 34 34 33 33 34 36 36 39 42 46 47 48 50 53 59 64 68 72 75 74 73 68 65 67 69 67 64 62 61 59 57
27 25 21 18 17 21 24 30 30 30 28 27 27 29 31 29 30 31 31 27 28 29 29 29 30 32 34 37 40 42 44 45 47 49 53 58 64 68 71 73 74 72 68 65 66 67 65 62 61 60 58 55 53 54
2 5 9 8 9 8 4 4 4 4 6 9 10 10 13 16 20 23 25 28 30 29 29 31 32 36 39 41 42 43 45 49 54 59 63 66 69 71 71 68 65 65 65 65 62 61 60 59 55 51 49 50 51 51
5 4 6 8 8 9 10 6 5 5 6 7 9 12 15 18 20 23 25 27 29 32 35 36 37 38 41 44 48 51 55 59 62 65 67 67 66 65 65 65 63 61 60 60 59 56 52 47 45 47 48 48 46 44
8 8 9 9 7 7 9 11 13 13 14 15 16 17 18 19 20 22 24 26 29 32 35 39 42 46 49 52 55 57 59 60 60 61 61 62 62 60 58 58 58 57 55 53 49 44 43 44 46 47 46 43 43 44
17 17 16 16 16 16 17 18 20 20 21 22 24 25 26 27 29 30 32 35 37 40 42 45 46 48 50 51 53 55 57 58 59 58 56 56 56 56 56 55 53 50 47 43 40 39 41 43 44 42 39 39 40 42
20 21 22 23 23 24 25 26 27 27 27 28 29 30 32 34 35 35 34 35 35 36 39 43 47 50 52 53 54 54 54 53 53 53 54 55 54 53 51 48 46 43 40 38 37 39 41 42 39 37 36 37 39 41
25 26 27 26 27 27 29 31 33 34 34 34 34 33 31 29 28 30 33 35 38 42 46 49 52 51 50 49 49 49 50 51 51 52 52 50 48 46 45 43 41 38 37 37 38 40 39 38 36 34 35 36 38 39

GFSWCAN_500_spd_030.txt.gz
Wind_Speed
57 56 58 71 69 73 73 70 68 61 60 57 56 54 52 49 47 46 49 53 57 57 56 53 48 45 40 35 32 27 23 18 17 15 14 12 12 12 12 13 15 18 21 23 25 28 32 34 37 40 41 43 43 44
68 71 69 71 71 69 67 62 60 58 55 51 48 46 45 44 43 43 45 49 55 54 52 50 46 42 39 37 33 30 26 24 21 19 17 18 19 18 19 20 22 24 27 28 29 31 36 41 43 44 43 43 42 42
69 69 67 63 64 61 58 55 53 50 47 44 44 43 42 42 47 42 44 47 51 51 48 47 45 41 38 35 33 31 28 26 24 23 24 23 24 24 26 27 28 29 32 33 35 36 41 43 42 42 42 42 41 42
67 65 62 60 57 53 51 50 48 46 44 42 41 39 37 44 42 39 40 42 44 47 46 45 43 40 38 35 33 31 29 28 28 28 27 27 28 29 30 32 33 33 36 39 38 38 39 39 40 41 40 42 43 43
55 52 51 50 48 39 38 41 44 43 40 39 38 40 39 34 34 35 40 41 42 43 44 43 42 40 37 36 34 32 31 32 31 30 31 31 32 33 35 36 36 36 38 40 39 38 39 38 38 40 41 42 42 43
47 45 43 42 42 36 33 45 44 38 38 35 32 37 33 32 35 35 41 38 41 38 39 42 42 41 39 37 36 34 33 33 34 35 35 35 35 37 40 40 37 35 36 37 37 38 40 41 42 42 43 44 45 45
40 38 38 39 36 35 39 42 38 35 34 34 32 37 34 37 34 35 40 39 34 37 37 38 37 38 38 38 38 37 36 35 36 37 38 37 37 39 40 41 36 32 33 35 38 40 41 42 43 45 45 46 44 43
33 33 32 34 32 36 34 34 30 30 31 31 32 34 37 40 30 33 44 38 32 36 35 31 35 36 38 35 35 35 35 36 37 37 37 36 37 38 39 34 33 34 36 36 37 39 42 43 44 45 44 44 45 47
31 30 31 32 33 36 33 27 26 31 35 38 36 37 34 40 33 32 32 30 30 30 31 30 29 29 33 32 33 33 34 35 36 36 35 36 36 36 34 34 34 36 36 38 40 41 43 43 44 44 45 47 49 51
26 25 25 32 32 29 29 29 27 27 29 31 32 33 32 31 27 26 28 28 28 29 29 26 27 28 29 29 30 31 31 33 34 33 34 35 34 33 34 35 37 38 40 41 42 43 45 45 46 47 49 51 54 57
26 26 27 31 25 30 23 24 23 30 27 26 29 31 31 31 30 29 29 29 29 28 27 25 25 24 24 25 26 29 31 32 34 34 34 34 34 34 34 35 37 40 42 44 44 43 44 46 48 51 54 56 58 59
22 21 25 30 32 30 32 29 22 24 23 24 28 24 24 25 26 26 24 23 21 20 17 18 20 21 23 25 28 30 31 32 35 33 33 34 32 35 37 38 39 39 39 40 41 44 47 49 52 55 58 61 62 60
19 21 23 28 29 31 26 28 27 27 23 21 20 20 22 23 24 23 22 20 19 18 19 21 24 25 26 28 31 32 34 36 33 34 37 35 34 35 36 37 39 41 43 46 48 49 52 55 58 58 54 52 51 51
19 17 23 29 30 29 29 31 27 32 26 20 22 26 31 32 29 24 22 21 23 24 26 27 29 31 31 32 34 33 34 36 39 39 35 34 36 38 40 41 44 47 49 51 54 57 56 50 48 50 52 52 51 51
15 15 15 17 16 21 30 36 32 28 36 35 35 35 34 30 25 23 23 26 29 30 31 32 32 29 26 28 27 31 33 35 34 34 36 38 40 42 44 46 48 51 52 50 45 44 46 48 50 52 52 55 55 53
14 13 13 13 12 14 22 38 38 33 29 33 34 32 32 33 31 31 32 30 28 27 26 25 25 26 27 28 29 31 32 34 36 38 41 42 44 46 47 48 46 41 39 41 43 46 49 51 53 54 54 52 51 52
19 18 16 15 15 17 18 20 19 19 22 25 28 28 26 26 26 25 25 24 24 25 26 28 29 29 30 31 31 33 35 37 40 42 44 45 46 44 40 36 37 40 42 45 48 51 52 53 52 52 52 51 52 55
29 29 27 27 25 23 22 22 20 22 24 25 27 27 26 27 27 27 28 29 29 29 29 29 30 32 34 37 38 39 40 41 42 41 40 38 34 34 36 39 42 45 48 50 51 52 51 50 49 50 51 53 55 57
36 35 35 35 37 38 36 31 30 28 29 30 30 30 31 32 33 34 34 34 35 36 37 39 41 41 41 42 42 40 37 35 32 32 32 34 37 39 41 43 46 48 50 51 51 50 48 47 49 51 54 57 59 62
16 25 32 39 40 39 38 39 39 37 37 40 41 41 41 40 39 39 39 40 41 42 42 41 41 39 36 33 31 30 30 31 33 35 37 39 41 43 45 47 49 50 51 50 47 46 46 48 51 54 57 60 63 65
6 6 7 11 12 18 23 21 26 29 31 32 33 35 35 35 35 35 35 34 33 32 30 29 28 27 29 30 31 33 35 37 39 41 42 44 46 48 49 50 50 49 46 46 46 47 49 51 53 57 61 63 66 69
8 9 10 10 10 12 13 15 16 17 18 19 20 22 23 25 25 26 26 26 26 27 29 30 31 33 35 36 38 40 41 43 44 46 47 48 49 49 49 48 46 45 46 47 48 48 51 54 58 61 64 67 70 74
13 14 14 15 16 16 16 17 17 18 19 20 21 22 23 25 26 27 28 30 32 33 34 35 36 38 39 40 42 44 46 48 49 50 49 49 49 47 45 45 46 46 45 47 49 52 56 59 61 64 67 71 76 80
19 19 20 21 21 22 22 23 24 25 26 26 27 28 29 30 31 33 34 36 37 38 40 41 43 45 47 49 50 51 51 50 50 48 46 45 43 43 44 45 45 46 48 51 55 58 60 62 66 69 74 78 78 76
25 25 25 27 27 27 28 28 29 30 32 33 34 35 36 37 39 40 42 44 45 46 48 49 51 52 52 52 51 49 45 42 41 40 39 39 40 42 43 45 47 50 53 56 58 61 64 68 72 75 75 73 70 67
25 25 26 27 29 29 30 32 33 35 36 38 40 42 44 45 47 49 51 52 53 52 52 51 49 46 43 40 37 34 32 33 35 36 38 40 43 45 47 49 51 53 56 59 62 65 69 72 71 70 67 64 61 60
29 29 27 27 26 26 24 25 26 27 27 27 27 26 27 26 27 28 29 28 28 28 27 25 25 25 25 27 29 31 35 38 36 38 43 45 46 48 49 51 54 57 60 63 66 66 66 65 64 62 60 59 58 55
13 8 7 5 3 5 5 7 9 10 9 10 10 10 10 10 11 11 11 12 13 15 16 18 20 21 25 29 32 34 37 40 41 43 43 44 45 48 51 54 57 60 62 62 63 62 61 60 58 58 58 55 51 47
5 5 5 6 7 9 11 12 13 14 14 15 14 15 15 15 16 17 18 19 20 21 23 24 26 28 30 32 34 35 37 39 41 42 44 46 48 51 55 58 60 61 61 61 60 58 57 57 57 55 51 47 43 40
12 12 14 14 15 16 18 19 20 22 23 24 25 26 26 27 27 27 27 28 29 30 31 32 33 35 36 38 39 40 41 43 44 47 49 51 54 57 61 63 62 60 58 57 56 56 56 54 50 46 42 39 37 36
14 17 19 21 22 24 26 27 28 29 30 30 31 32 33 33 34 35 36 37 38 39 39 40 40 40 40 41 42 43 45 47 50 52 55 58 61 63 63 60 57 55 54 55 55 52 48 46 43 41 38 36 35 35
23 26 27 28 29 29 28 28 28 28 28 29 31 32 33 34 34 34 34 35 35 35 36 37 38 40 42 44 46 49 52 54 57 59 61 63 63 60 58 56 55 54 54 52 47 44 43 41 39 37 36 36 35 35
27 26 26 26 27 28 29 30 30 30 31 30 29 27 26 26 27 27 28 29 31 33 35 38 41 45 48 51 54 57 59 60 62 62 62 60 59 58 58 57 55 52 48 44 42 42 42 40 39 38 36 36 35 35

GFSWCAN_500_spd_033.txt.gz
Wind_Speed
42 36 33 36 40 56 79 70 61 72 76 82 81 76 76 73 66 65 62 54 57 57 58 62 62 57 55 48 41 36 32 27 22 19 15 12 10 9 9 9 10 12 14 16 18 21 25 27 30 32 35 38 40 42
59 61 70 70 78 73 55 57 59 63 66 72 75 70 71 73 58 55 56 53 55 55 57 62 59 57 53 49 41 36 34 30 27 24 19 16 15 14 13 15 16 18 20 22 23 27 30 34 35 37 39 41 42 43
61 57 53 50 48 52 56 68 65 65 69 72 69 63 61 58 56 47 51 51 51 53 57 59 60 57 52 47 40 39 36 32 29 25 23 21 20 18 19 21 21 24 26 27 29 32 36 37 40 42 43 43 43 44
49 47 51 61 53 54 60 60 59 60 58 56 53 55 53 52 47 44 47 47 46 52 55 57 54 53 51 47 43 39 35 34 32 30 27 26 24 23 24 26 26 28 30 32 33 36 38 42 44 41 43 44 43 44
47 51 53 54 54 56 60 57 56 58 57 55 52 51 50 50 42 38 41 43 43 51 52 52 50 49 47 43 41 39 37 36 33 32 31 29 28 29 30 31 32 32 35 36 38 40 40 42 43 41 43 43 44 46
48 54 55 54 53 54 52 51 50 49 48 48 48 47 47 47 39 36 37 39 40 44 46 48 47 46 44 41 40 38 36 35 35 34 33 32 32 34 36 37 37 37 38 40 40 41 42 41 41 44 45 45 45 45
49 49 49 48 47 47 47 47 46 46 44 44 43 43 42 43 39 37 34 38 40 40 43 43 43 44 42 40 39 38 37 36 36 36 36 36 37 38 40 41 39 38 38 39 38 39 42 43 46 45 44 46 46 47
36 38 39 38 40 42 41 41 41 40 39 39 40 42 42 36 34 34 39 37 38 36 36 41 43 43 42 41 40 39 39 39 39 38 39 40 40 41 43 39 37 37 38 37 39 40 43 43 44 45 47 48 48 49
33 35 34 32 36 36 33 33 39 39 34 39 40 37 40 39 36 41 38 42 39 36 37 34 35 37 41 40 39 39 40 40 40 40 40 40 41 43 39 36 35 36 38 38 40 41 43 44 46 47 48 49 48 48
30 25 31 29 27 30 29 29 30 32 33 39 40 40 36 36 36 44 28 37 40 36 36 35 35 34 36 38 39 39 40 40 41 40 41 42 42 38 34 34 35 36 39 42 42 43 45 46 47 47 46 47 50 53
25 23 29 30 27 21 25 28 35 37 36 36 37 34 34 31 31 42 46 45 43 40 35 35 36 35 35 35 35 37 38 39 40 39 40 41 38 32 33 35 37 39 41 42 45 45 44 44 45 47 50 53 56 57
25 26 27 29 20 25 25 26 26 29 32 33 35 31 34 33 32 32 35 36 34 31 26 25 26 28 30 31 32 34 35 37 41 39 37 39 33 34 35 37 39 42 44 44 43 43 44 47 49 52 53 54 54 51
22 27 27 24 27 30 25 17 22 26 27 28 29 28 27 26 28 31 27 23 19 16 18 21 24 25 26 28 30 32 34 37 37 38 39 37 35 35 37 40 43 42 42 41 43 46 48 50 51 53 48 48 48 52
20 20 25 26 28 29 25 21 28 18 24 22 26 26 22 24 26 24 20 20 19 21 23 24 25 26 26 28 33 35 38 39 41 42 40 35 37 40 42 41 40 41 43 45 47 49 50 50 47 45 47 50 52 54
19 21 23 26 28 28 26 25 29 30 30 26 26 27 25 21 22 22 24 23 24 24 23 23 26 30 31 34 35 38 41 43 43 41 37 37 37 39 41 41 43 45 47 49 51 49 44 43 45 48 51 52 54 56
17 17 19 25 27 28 29 27 25 25 30 33 30 24 24 26 28 28 27 27 29 26 26 29 32 35 36 38 37 35 34 34 33 34 35 37 39 42 44 46 48 49 50 49 45 42 44 47 50 51 53 55 56 57
12 15 17 16 18 22 25 27 30 30 30 28 28 29 31 33 33 32 32 33 32 32 35 36 35 32 31 32 32 32 33 34 36 38 40 42 45 47 49 50 50 49 45 41 43 46 49 50 52 54 56 57 58 57
18 16 16 17 15 13 14 15 17 27 34 32 29 28 28 30 31 32 32 32 30 28 28 28 29 30 31 33 33 34 36 38 40 42 45 47 48 49 49 48 43 41 43 45 48 50 52 54 56 57 58 56 56 56
27 25 22 21 21 19 19 22 23 22 22 23 25 25 25 25 26 26 27 29 30 31 32 33 35 37 37 37 38 40 42 45 46 46 46 45 44 41 39 40 42 45 47 49 52 53 55 56 57 57 56 55 56 57
22 27 29 31 29 30 30 30 30 30 32 30 31 29 28 30 31 32 33 34 36 38 39 39 39 41 43 45 46 45 45 44 42 39 37 37 38 40 42 45 47 49 51 53 55 56 57 57 56 56 55 56 56 57
7 8 11 19 24 31 34 37 38 40 42 42 42 43 40 40 41 42 43 43 44 47 46 44 44 43 41 39 37 36 35 34 35 37 39 41 44 46 48 50 51 53 54 55 56 56 56 55 55 55 54 55 57 61
4 4 5 7 9 11 13 16 19 20 24 26 30 34 35 34 35 35 34 33 33 31 31 30 30 31 31 32 34 35 38 39 41 43 45 47 48 50 52 54 55 55 56 55 54 53 53 53 53 54 56 59 62 64
9 10 11 12 12 13 13 14 15 16 17 19 20 22 23 24 25 26 27 28 29 30 30 31 33 34 36 38 40 42 43 45 47 49 51 52 54 55 55 54 53 52 50 49 50 50 51 53 54 57 60 62 65 68
12 13 17 20 21 21 21 21 22 22 23 24 24 25 26 27 28 30 31 32 33 35 36 38 39 41 43 45 47 49 51 52 54 55 55 55 54 51 48 47 45 45 45 47 50 52 54 55 58 61 63 66 68 70
22 22 22 22 21 25 27 27 27 28 29 29 30 31 32 34 35 37 38 40 41 42 44 45 47 49 51 52 54 55 55 54 53 49 46 44 41 42 43 44 46 47 48 51 53 56 57 58 61 63 66 68 69 68
26 26 26 27 25 24 25 27 29 30 32 33 35 36 38 39 41 42 45 47 49 50 51 52 53 53 53 53 50 46 41 38 38 39 41 43 45 47 48 50 47 49 54 55 54 55 58 60 63 65 66 66 66 64
30 29 25 22 22 22 23 23 24 26 27 28 29 29 30 30 32 31 32 33 33 33 33 32 29 27 26 25 29 31 32 34 35 37 38 42 46 47 48 50 51 51 52 53 55 58 60 63 66 66 65 63 61 59
22 20 15 12 10 9 7 8 8 9 10 11 12 13 13 14 16 16 16 17 17 17 17 18 19 20 22 24 26 28 30 33 36 39 42 46 47 48 49 50 52 54 56 58 60 61 64 67 66 64 60 58 57 56
8 8 7 8 9 11 13 13 13 15 16 17 19 20 21 22 23 24 25 25 26 27 27 28 29 30 31 33 34 36 38 40 41 44 46 47 49 49 52 54 56 58 60 62 63 66 67 65 61 58 56 55 52 48
11 11 12 13 14 15 17 19 21 23 25 26 28 29 30 32 32 33 34 34 34 35 35 36 37 38 39 41 42 43 44 45 46 48 49 51 53 55 57 59 61 63 65 67 68 67 64 61 59 57 54 49 45 43
12 14 17 19 21 24 26 28 29 30 30 31 31 31 31 31 32 33 34 35 35 35 35 35 37 38 39 40 41 43 44 46 48 51 53 56 58 61 64 66 67 68 68 68 66 64 61 58 54 50 46 43 42 41
21 24 26 28 28 28 28 28 28 30 31 32 32 33 33 33 33 32 30 28 28 28 28 30 32 34 37 40 43 46 48 51 54 57 60 62 64 65 66 66 65 63 61 58 55 53 50 48 45 42 41 41 41 40
24 26 26 27 27 28 30 31 32 32 32 31 30 29 28 26 25 24 23 24 26 29 33 36 40 43 46 49 51 53 56 57 59 60 61 61 60 58 56 54 53 52 51 50 49 47 45 44 43 42 41 42 41 39

GFSWCAN_500_spd_036.txt.gz
Wind_Speed
25 27 30 32 33 42 50 43 39 36 51 65 93 97 83 91 84 77 68 55 56 45 46 52 54 57 56 60 34 50 47 40 32 26 21 18 15 14 12 13 14 14 14 14 14 15 18 19 22 23 26 30 33 36
25 28 28 26 36 43 40 37 39 45 54 75 97 83 78 85 79 69 50 50 46 37 53 61 60 59 61 64 58 50 43 36 32 30 26 21 18 16 15 14 14 14 14 15 16 20 21 24 26 29 31 33 37 40
52 41 32 27 29 38 43 43 49 53 67 92 101 76 78 70 69 69 50 43 28 51 59 64 58 57 61 61 53 51 47 41 35 33 27 25 23 19 19 18 18 19 18 20 20 25 29 29 31 33 34 39 41 43
46 50 47 54 54 49 54 56 72 75 92 80 68 74 74 75 56 64 68 62 28 30 44 61 57 55 55 56 49 47 44 38 36 35 32 29 25 24 22 23 23 24 23 26 26 29 32 36 38 38 41 42 44 46
46 46 48 49 56 60 61 67 65 63 63 63 64 64 76 79 43 60 62 56 61 52 41 48 48 51 56 55 53 50 45 41 38 36 35 31 28 28 29 29 29 29 30 31 33 34 35 40 41 43 45 45 45 46
51 53 56 55 52 46 50 57 65 61 63 65 69 58 68 74 58 57 43 40 49 50 49 50 47 49 53 54 52 51 46 42 42 38 36 33 32 33 34 33 34 34 35 37 40 40 42 42 43 42 46 46 46 46
41 41 42 46 52 50 51 53 56 57 58 55 55 56 56 54 45 40 37 42 43 40 43 44 44 49 50 52 50 50 48 46 42 39 37 37 37 37 37 38 38 37 40 39 41 44 45 46 45 45 46 45 45 46
38 39 38 41 49 47 49 50 53 54 55 53 56 56 51 45 40 38 36 37 36 35 37 41 44 46 49 47 46 45 45 44 40 39 40 40 40 39 41 41 41 41 42 43 43 44 47 48 47 46 45 46 47 48
37 38 36 37 41 44 45 46 48 48 48 49 50 51 45 41 35 29 29 34 36 34 35 41 42 44 45 44 42 42 42 41 41 42 42 42 42 44 43 43 43 44 44 45 45 45 46 45 45 46 46 48 50 50
19 28 31 35 35 36 40 40 42 44 44 47 47 49 46 38 35 34 30 34 35 40 34 36 38 40 41 41 41 42 42 43 45 45 44 45 45 44 44 43 43 43 43 44 45 45 46 46 46 47 49 49 48 49
19 26 25 28 34 37 36 35 39 42 44 47 46 48 39 38 34 32 41 38 37 47 35 32 34 36 37 37 39 41 42 44 45 44 44 44 44 43 42 41 41 42 42 45 46 47 46 47 49 49 48 49 50 53
21 16 19 25 26 27 33 35 30 31 37 41 41 44 40 35 31 36 45 35 30 37 33 31 31 32 33 35 38 39 40 42 45 46 47 48 44 40 39 39 40 43 45 46 47 46 47 49 48 48 49 51 53 56
18 19 18 15 15 22 24 29 31 32 34 35 35 32 33 31 28 32 41 27 31 30 31 27 26 28 32 35 37 37 40 42 43 45 46 44 39 37 38 40 43 45 46 45 45 47 47 47 48 50 52 54 56 52
15 19 19 19 18 19 22 24 26 25 26 30 29 28 31 32 26 32 33 26 27 28 28 28 27 28 30 32 35 37 40 41 42 43 41 36 38 40 42 43 43 44 45 46 46 45 46 48 51 53 55 53 49 49
13 17 18 15 23 23 20 17 16 19 22 25 26 26 28 24 24 24 25 25 22 21 22 23 26 28 27 30 30 32 35 37 39 38 38 39 42 44 44 43 42 42 42 42 45 47 50 53 54 54 50 48 49 53
12 15 16 17 19 23 21 18 22 22 21 23 21 19 24 22 17 19 22 22 24 25 25 24 25 26 27 31 33 36 37 39 39 42 43 40 38 38 39 38 39 42 45 48 51 52 54 54 49 46 48 51 54 57
11 11 13 16 19 20 22 20 21 24 25 25 28 27 26 26 25 24 23 24 25 27 28 28 32 33 34 35 36 39 41 40 40 37 36 36 37 39 41 43 45 48 51 53 54 54 49 45 47 50 53 56 59 60
11 12 13 13 14 18 21 24 25 25 24 23 23 29 29 30 31 30 31 34 33 31 31 35 35 37 38 37 35 33 33 35 35 36 38 40 43 45 47 49 52 54 54 53 48 46 47 50 52 55 58 61 62 64
17 17 14 16 17 17 16 17 18 17 18 21 25 29 28 27 26 26 27 29 32 34 34 34 33 33 33 33 34 36 38 39 40 42 44 46 48 51 53 54 53 50 47 46 48 50 53 55 57 59 61 63 64 64
21 21 23 21 21 21 21 19 20 23 22 22 22 22 22 22 23 25 27 29 29 30 31 32 34 37 38 40 41 43 45 46 47 49 50 53 53 50 47 45 44 46 48 51 53 56 57 58 61 62 63 63 62 62
15 18 18 20 26 27 26 27 28 29 30 31 31 32 33 33 33 34 34 35 35 36 37 39 42 44 44 46 47 48 50 52 53 52 47 43 41 42 44 46 49 52 54 56 58 59 61 62 62 61 60 59 58 58
3 6 8 13 15 16 17 23 25 28 30 35 39 42 42 41 41 42 43 44 45 43 42 43 44 45 45 44 42 41 40 39 40 40 42 44 46 48 51 53 55 56 58 60 61 61 60 58 56 56 55 55 56 58
10 5 5 7 8 9 11 12 13 15 16 17 20 21 22 24 26 28 28 28 28 30 31 33 34 34 35 36 37 39 41 43 45 47 49 50 52 54 56 58 59 60 60 59 56 54 54 52 51 52 53 57 60 63
16 17 14 13 12 12 13 18 19 20 20 21 21 22 23 24 25 26 27 29 30 32 33 34 35 37 38 40 42 44 46 48 50 53 54 56 57 58 58 58 56 54 51 50 49 52 52 54 56 55 58 61 61 62
27 26 24 21 20 23 23 21 21 25 27 28 29 30 31 32 33 34 35 37 38 39 41 42 43 45 47 48 50 52 53 55 56 57 57 56 54 50 47 45 47 49 50 51 51 52 53 56 56 59 60 61 62 65
30 28 25 23 26 27 24 24 24 25 27 29 30 32 34 35 36 38 40 41 43 45 47 48 49 51 52 54 53 52 50 49 48 45 42 41 42 43 45 46 46 47 49 52 53 55 57 58 59 60 62 65 65 65
30 28 25 26 27 25 23 23 23 23 23 25 27 28 30 30 31 30 30 30 31 31 31 31 31 30 30 28 28 27 27 29 30 32 35 38 41 44 46 48 50 51 53 55 57 58 59 61 63 64 66 66 68 69
27 24 21 19 16 17 14 13 13 14 15 16 16 17 17 18 19 20 21 22 23 24 25 27 28 29 30 31 31 32 33 34 36 38 40 42 44 47 50 51 53 56 58 59 61 61 63 65 66 67 69 71 71 72
15 12 11 10 10 11 12 14 15 16 17 18 20 22 25 26 27 28 29 30 32 33 34 35 36 37 37 38 39 40 41 43 44 46 48 50 51 52 54 55 56 57 59 61 62 64 66 69 71 72 72 71 68 64
10 10 11 11 13 15 17 19 21 23 26 27 29 31 32 33 33 34 34 34 34 34 35 35 36 37 38 39 40 41 42 43 44 45 46 48 49 51 53 56 58 61 63 66 68 70 71 70 69 66 61 57 54 51
12 14 16 19 21 23 25 27 29 31 32 32 32 31 31 32 34 35 35 35 36 36 37 37 36 35 34 34 35 35 38 42 45 49 52 55 57 60 62 64 66 67 68 68 67 66 62 59 56 54 52 51 49 46
21 23 25 26 26 28 29 29 30 30 30 31 33 34 35 35 35 34 33 33 32 31 30 30 30 31 33 37 40 44 48 51 55 57 59 61 63 64 64 64 63 62 61 60 58 57 57 57 57 56 54 52 49 46
22 25 27 29 30 31 32 32 32 32 31 32 32 32 31 29 28 28 28 28 28 28 30 33 36 39 42 46 50 53 55 57 58 59 59 59 58 58 58 58 58 58 59 59 59 57 56 55 53 52 50 49 47 46

GFSWCAN_500_spd_039.txt.gz
Wind_Speed
29 28 30 31 32 35 37 33 30 28 29 30 49 61 92 98 95 88 84 79 73 50 37 43 46 48 51 49 46 47 48 51 44 40 38 31 26 23 22 19 22 21 20 18 17 18 19 17 18 19 20 20 24 28
26 26 27 31 33 36 35 32 33 36 43 38 37 60 88 98 90 83 76 71 65 48 46 39 41 45 41 50 46 42 41 42 42 39 36 31 26 23 20 17 19 17 16 16 16 15 17 18 19 19 20 24 29 32
22 25 27 29 33 36 32 34 32 30 44 39 41 64 86 94 85 81 74 59 52 36 45 41 42 51 56 53 49 48 45 55 45 38 37 32 29 24 21 18 18 16 16 17 19 19 21 21 22 24 25 30 33 37
20 17 23 29 31 33 39 38 31 28 39 41 50 70 90 85 78 76 66 51 44 38 54 37 48 50 50 51 52 48 42 43 43 41 38 36 31 28 24 24 21 19 20 20 22 24 25 28 29 31 34 35 39 42
38 27 25 29 31 33 37 36 33 30 43 57 65 82 87 74 73 72 58 47 47 43 36 49 47 56 52 52 51 55 37 35 40 44 43 39 35 30 27 28 26 25 24 25 27 28 30 33 36 38 41 43 45 45
54 59 55 47 44 33 37 38 42 59 70 74 82 87 81 68 70 62 53 49 20 40 41 44 69 48 54 49 47 52 59 55 45 46 46 42 36 32 32 31 30 30 30 31 33 34 35 37 39 42 45 46 46 46
50 53 54 59 56 52 52 59 70 75 78 87 78 76 79 70 63 47 34 43 46 44 35 41 53 49 50 45 46 53 52 50 52 52 47 43 39 36 36 35 34 34 35 36 38 39 40 41 43 46 47 48 48 48
45 47 53 62 65 72 73 68 71 73 74 80 82 68 62 66 40 24 37 28 23 22 25 27 29 35 42 41 39 45 49 52 47 47 46 43 40 39 40 38 37 37 38 39 41 43 45 46 47 48 48 47 47 47
40 43 46 46 54 58 53 53 54 56 70 72 72 66 34 27 27 47 55 39 30 23 21 21 28 35 38 40 39 42 46 50 47 46 47 45 43 43 42 41 41 42 42 43 45 46 48 50 50 49 48 48 48 50
37 38 42 44 50 51 49 51 55 53 49 58 54 34 32 31 30 32 34 29 25 23 27 28 29 33 36 37 37 39 42 45 45 44 45 47 46 45 45 44 45 46 45 46 47 48 49 50 49 48 48 50 50 51
31 33 36 39 39 41 43 48 48 52 49 53 45 36 37 33 29 25 24 25 30 30 29 31 29 31 33 34 35 38 40 42 42 43 45 46 45 44 45 46 47 47 46 47 49 49 49 49 49 49 51 51 51 53
23 26 32 35 38 40 43 43 37 43 46 44 45 41 37 29 29 32 28 27 28 36 35 28 21 27 31 33 35 38 40 40 43 43 43 45 43 43 44 45 45 46 47 48 48 49 49 49 50 51 50 50 51 51
21 23 23 29 27 32 34 37 39 43 43 34 38 39 31 30 32 32 29 29 30 33 22 29 23 23 27 30 34 35 38 41 41 43 44 43 42 42 42 41 43 44 46 46 47 49 51 50 49 50 50 49 50 53
21 20 16 25 27 28 29 28 30 35 38 40 38 42 39 30 30 29 28 27 36 22 22 33 32 29 29 32 34 36 38 38 39 40 39 38 39 39 39 40 41 43 45 48 50 50 50 49 46 45 48 51 54 56
15 18 16 22 24 18 18 19 21 26 31 37 37 43 39 30 25 21 18 20 32 22 22 27 27 27 28 29 32 33 36 39 37 36 35 35 36 38 40 42 45 47 48 47 44 42 41 43 47 51 53 55 57 56
7 11 14 18 16 16 16 15 15 16 20 23 23 24 25 26 26 20 18 22 23 24 25 26 26 27 29 31 29 29 31 32 30 32 36 39 40 41 44 47 47 44 41 38 38 42 47 50 53 55 56 56 53 50
6 4 6 13 16 17 15 12 12 17 15 15 16 19 19 21 20 15 15 15 18 21 21 22 24 25 25 27 27 29 31 33 36 37 40 43 45 43 40 39 39 39 40 43 47 50 53 56 56 54 51 50 51 54
2 3 5 6 9 12 14 15 15 15 17 18 18 20 22 20 22 22 24 26 23 23 24 26 32 33 34 33 33 35 37 39 41 42 41 39 39 39 39 40 42 45 48 51 54 57 57 54 49 49 51 54 56 59
6 5 5 6 7 8 10 13 17 18 20 19 18 19 21 24 27 27 28 28 28 30 30 31 36 36 37 38 37 37 37 38 37 38 39 40 41 43 45 48 50 53 55 56 52 50 49 49 51 54 56 59 61 62
14 13 13 13 13 12 13 12 13 15 14 16 20 24 25 27 28 28 28 29 29 30 31 32 33 34 35 36 37 39 41 42 43 45 47 48 50 51 53 54 56 55 50 48 48 49 52 55 57 59 60 62 64 65
13 13 13 15 17 19 19 19 20 19 20 22 24 25 25 26 26 26 27 27 27 29 30 32 34 36 38 40 42 45 47 49 50 50 51 52 53 54 53 49 46 46 47 50 53 55 57 59 61 62 63 63 62 60
8 8 9 12 14 17 19 22 26 29 30 32 33 33 33 34 36 36 36 36 36 37 38 40 42 43 44 45 46 48 49 50 51 51 50 47 44 44 45 47 49 51 54 56 58 60 62 63 64 64 62 59 56 55
6 6 8 9 10 12 12 15 17 19 20 23 26 28 29 32 32 34 35 34 34 36 37 39 40 41 42 41 41 40 40 40 41 42 43 45 47 49 51 53 55 58 60 62 63 64 63 61 58 56 55 55 56 55
16 17 17 17 17 21 19 20 18 18 20 21 21 21 22 23 24 25 26 27 28 29 29 30 31 33 34 35 37 39 41 42 44 46 49 51 53 56 57 59 59 60 60 60 59 56 53 53 54 54 54 55 57 58
26 27 26 26 27 30 33 26 25 27 28 28 26 28 30 31 31 31 32 33 33 34 36 37 39 40 41 43 44 46 47 49 51 53 54 56 56 57 56 56 54 53 50 50 51 52 52 53 55 56 57 58 60 62
27 29 30 35 35 29 28 27 28 29 27 27 27 29 31 32 34 35 36 37 38 39 40 42 43 44 45 46 46 46 46 46 45 44 42 41 41 41 41 41 43 45 47 49 51 53 54 56 58 60 63 64 65 66
26 26 27 31 28 26 24 23 24 24 23 23 23 23 23 23 24 24 25 26 27 29 30 30 31 31 32 31 31 31 31 33 34 35 36 38 40 42 44 45 47 49 52 55 57 59 61 63 64 65 66 66 67 67
25 25 24 25 26 24 20 17 14 13 14 14 15 16 16 17 18 20 22 24 26 28 29 30 31 33 34 36 37 39 40 41 42 44 45 46 48 49 50 52 54 56 58 59 60 61 61 62 63 65 67 69 71 72
18 17 15 13 16 14 15 16 16 17 17 19 20 22 24 26 29 30 31 33 34 34 36 37 38 39 40 41 41 42 43 44 45 46 47 47 48 50 50 50 51 53 56 59 62 64 66 68 70 71 72 71 70 68
13 12 12 13 14 15 17 19 21 24 26 27 29 30 32 33 34 34 34 33 33 34 36 37 38 39 39 41 42 43 43 43 43 43 43 44 45 48 52 56 59 63 65 68 69 70 71 70 70 68 66 63 61 59
12 14 16 19 21 23 25 27 29 30 31 31 31 32 33 33 33 34 35 36 37 37 38 38 38 38 37 37 37 37 38 39 41 44 48 51 55 59 62 65 67 68 68 68 67 66 65 64 63 63 62 61 59 57
18 19 21 23 26 29 31 33 34 34 33 33 33 34 33 34 34 34 33 33 33 32 32 32 33 34 34 35 37 40 43 47 50 54 57 61 63 65 65 65 65 65 65 64 64 63 62 61 60 58 56 55 53 51
21 24 27 28 26 27 29 29 28 27 27 27 27 27 27 27 27 27 27 28 29 30 30 31 33 35 38 41 44 48 51 54 57 58 58 58 59 59 59 59 60 61 61 62 62 61 61 59 58 56 55 53 51 49

GFSWCAN_500_spd_042.txt.gz
Wind_Speed
30 32 33 32 34 37 42 43 44 42 40 39 40 33 34 53 81 94 90 83 77 67 63 64 63 51 54 48 54 52 48 47 45 44 42 43 40 34 35 30 26 28 28 26 24 25 21 19 20 20 18 20 20 23
28 29 30 34 33 32 35 37 38 37 36 38 40 37 37 55 75 91 90 85 78 70 43 48 56 53 52 47 51 51 44 44 43 40 41 42 41 32 32 29 28 28 24 24 23 22 19 17 15 14 15 19 24 26
25 26 28 30 33 33 31 31 30 27 28 31 33 34 43 61 73 89 90 83 77 67 29 34 34 38 52 50 51 47 40 43 42 43 41 42 40 34 33 28 27 26 22 20 21 18 16 15 16 17 20 24 27 29
21 21 23 25 27 26 27 26 23 22 21 25 36 37 48 64 79 88 85 82 76 73 39 25 31 34 44 50 49 45 44 42 45 44 45 43 41 37 33 31 29 25 23 22 21 19 20 20 22 24 26 28 31 34
23 23 27 28 28 30 28 26 26 35 28 30 39 43 58 70 84 87 71 51 39 58 45 32 30 34 41 40 42 44 44 45 48 46 45 43 40 37 35 35 32 29 25 24 24 25 25 27 28 30 33 36 38 40
17 25 28 28 28 30 30 30 28 36 37 28 43 59 67 77 84 88 78 65 46 57 39 28 30 34 37 35 34 41 41 41 44 47 33 46 45 42 40 38 33 32 30 27 27 29 30 32 34 36 38 40 43 45
40 21 28 31 35 36 35 33 28 35 36 49 64 68 71 78 77 64 45 41 47 50 37 28 39 36 42 42 35 45 46 45 42 43 44 48 49 46 42 39 35 35 33 31 32 33 34 36 39 40 42 45 46 47
49 42 26 30 35 38 35 33 33 38 60 72 72 71 77 78 68 54 46 39 43 47 51 27 28 40 41 44 41 42 35 50 42 40 39 41 42 42 44 42 39 36 34 35 35 37 39 40 43 44 46 47 48 49
52 48 39 35 34 36 41 46 57 75 81 77 75 77 65 60 57 52 47 43 23 28 31 42 34 27 41 46 43 42 40 35 47 48 50 49 47 49 49 46 41 39 39 39 40 41 43 45 46 48 48 49 51 52
53 57 61 62 71 74 75 79 82 81 82 80 74 73 62 55 37 42 35 39 40 22 19 24 32 52 48 52 43 38 43 40 38 43 48 48 46 42 43 45 44 42 42 43 45 46 47 48 49 50 50 53 53 52
41 47 50 49 57 59 65 68 71 80 78 72 74 69 44 33 35 34 28 32 40 34 13 11 20 25 33 34 34 35 38 41 41 39 43 46 48 44 42 43 43 44 45 45 46 47 49 49 50 53 54 52 52 53
40 40 43 49 54 52 56 63 63 57 58 43 34 31 30 27 25 16 19 18 23 20 21 22 23 26 27 30 34 37 39 38 37 36 39 41 40 39 41 42 43 45 46 47 47 48 49 51 52 52 51 52 53 54
28 34 37 38 38 41 42 43 45 38 52 41 32 36 35 24 20 18 17 17 18 17 15 17 20 21 25 28 30 31 36 38 38 40 40 39 39 37 40 41 42 43 44 46 47 49 50 50 49 50 52 54 53 50
25 25 28 33 31 33 35 38 31 35 34 22 24 23 22 23 19 17 16 12 11 12 13 16 19 24 21 21 26 29 32 34 36 38 36 34 35 37 39 40 40 41 43 45 47 47 48 49 51 53 52 49 47 48
19 22 23 21 24 26 25 27 31 30 31 28 23 23 24 19 12 9 10 13 14 17 17 19 25 21 26 26 30 29 31 34 35 34 34 37 37 37 36 37 38 40 42 44 46 48 50 52 51 47 45 47 50 54
23 20 19 22 22 20 18 19 21 27 27 29 25 23 23 22 22 15 13 16 14 17 22 22 21 22 25 32 30 31 31 32 33 33 33 34 33 34 36 38 41 43 45 47 51 50 46 44 41 45 50 53 57 60
15 18 21 22 16 13 12 14 15 19 25 27 26 26 23 25 28 24 22 16 13 13 15 19 19 21 27 31 32 32 31 29 27 27 29 30 35 38 40 42 45 48 47 45 43 43 45 47 49 53 55 59 63 61
13 13 14 13 13 12 13 14 12 15 15 15 18 20 18 20 23 24 25 19 16 15 16 18 18 20 20 22 24 26 29 32 35 37 39 41 43 44 45 44 42 43 42 43 45 47 50 53 56 61 64 60 56 54
6 7 8 9 12 13 13 12 12 15 16 18 19 20 21 21 20 20 22 24 23 22 24 24 25 26 28 32 35 39 40 41 43 45 45 47 48 45 42 43 44 46 48 50 52 55 58 61 61 58 54 53 55 57
4 3 3 4 3 4 6 9 13 17 19 20 20 21 21 21 22 23 25 26 27 29 31 32 32 34 36 36 38 39 39 41 44 46 46 45 46 48 49 51 52 52 54 56 58 58 55 53 53 54 56 58 59 61
6 10 12 12 12 12 13 13 13 14 15 20 22 25 27 28 29 28 28 28 29 30 30 30 31 33 34 36 38 40 42 44 45 46 47 49 50 52 52 53 55 56 54 50 50 50 52 55 57 58 60 62 63 63
2 2 4 6 9 12 15 18 20 23 23 25 26 27 28 30 31 31 32 32 33 33 34 35 37 39 41 42 44 45 46 47 48 49 50 51 51 51 50 48 46 47 49 51 53 55 57 59 60 62 64 64 63 61
11 10 11 11 7 6 5 9 9 13 16 21 25 28 31 34 36 37 38 40 41 42 43 44 45 46 47 48 49 50 51 53 52 51 48 45 44 45 47 48 51 53 55 57 59 62 63 63 64 63 62 60 58 57
10 14 15 16 16 16 16 14 15 15 15 18 20 21 23 25 28 30 31 32 32 33 33 35 35 35 36 36 37 38 39 40 42 44 45 47 48 50 52 54 56 58 59 59 59 59 59 59 57 56 55 55 56 57
12 17 21 23 23 26 25 26 23 22 21 20 23 25 27 29 31 31 32 33 34 35 35 36 37 38 38 40 41 42 43 45 47 48 49 51 52 53 53 53 53 52 51 51 50 49 50 51 53 55 57 59 61 63
22 24 24 26 28 26 27 29 30 25 22 26 28 28 28 30 31 32 33 34 34 35 36 36 37 37 39 40 40 40 41 41 41 41 41 40 41 42 43 44 45 46 48 50 52 54 56 58 60 62 64 65 66 66
25 24 24 26 24 21 20 20 21 22 26 26 26 24 24 23 22 22 22 22 23 23 24 24 26 27 29 30 32 34 35 36 38 40 42 43 45 47 48 50 52 54 56 57 59 60 61 63 64 64 64 63 65 68
23 24 26 25 21 19 20 20 19 17 17 16 17 16 16 17 18 20 21 23 25 27 29 31 33 34 36 37 39 41 42 44 45 47 48 49 50 51 52 54 56 57 58 59 60 61 61 61 63 66 70 72 75 76
25 27 21 19 19 18 18 17 16 17 18 20 22 24 25 26 28 29 30 31 33 35 36 36 37 38 37 37 39 41 43 44 46 47 48 49 51 51 51 51 51 52 54 57 60 63 66 69 72 75 76 76 75 74
20 18 17 18 17 18 20 21 23 26 28 29 31 32 32 33 33 34 34 34 35 35 35 35 36 38 40 41 42 43 44 44 44 45 45 45 46 48 50 53 56 60 64 67 70 73 75 76 75 75 73 72 70 68
16 17 18 20 23 25 26 28 30 32 33 33 33 34 34 34 35 35 35 35 36 36 35 35 36 36 36 36 37 38 39 40 41 43 45 48 52 55 59 63 66 68 69 70 71 70 70 70 70 70 69 68 66 65
18 20 22 24 27 30 31 30 29 29 29 30 28 28 27 27 28 28 28 27 28 29 29 30 30 31 32 34 35 37 40 42 45 49 52 55 57 59 60 62 62 63 63 63 63 62 61 60 60 60 59 59 58 56
22 25 27 28 26 26 26 27 27 25 23 22 21 21 20 21 21 22 23 23 24 25 27 28 30 33 35 37 39 41 43 44 45 45 47 47 46 45 46 47 48 49 51 52 52 53 54 54 54 53 53 52 50 49

GFSWCAN_500_spd_045.txt.gz
Wind_Speed
35 38 39 38 38 40 43 44 45 43 41 42 41 36 30 30 37 60 78 91 88 81 77 73 69 67 64 58 58 56 61 60 58 55 47 46 44 39 38 36 35 32 33 34 32 34 31 26 26 25 19 20 20 24
25 34 33 32 33 36 41 44 43 41 40 43 38 34 27 26 36 57 70 86 85 80 79 74 67 63 60 53 55 57 60 58 56 50 48 46 44 40 34 35 33 33 33 35 33 30 28 24 21 20 20 20 21 23
23 29 32 31 31 33 36 38 39 39 41 43 38 33 29 30 40 58 67 81 85 80 75 72 67 67 60 50 52 62 60 56 52 49 48 47 43 38 34 32 29 33 34 35 30 25 22 22 19 19 19 21 22 23
18 20 23 26 27 28 29 31 34 34 35 35 35 33 33 31 41 57 67 79 81 77 73 63 64 45 45 51 53 59 61 57 53 51 50 47 41 36 36 33 34 33 32 31 28 22 19 19 20 22 22 23 25 27
20 22 24 27 27 28 27 27 28 32 34 35 33 30 31 33 41 60 72 75 77 75 71 56 49 35 36 48 57 53 53 54 55 55 50 48 42 39 40 36 41 36 31 27 26 26 25 24 24 24 26 27 30 32
20 21 23 24 25 25 24 25 25 25 25 27 29 31 36 43 52 74 78 80 78 73 51 44 45 35 40 47 49 53 48 51 49 48 46 43 39 42 40 37 38 39 34 30 29 31 31 28 29 30 32 33 35 36
21 25 27 27 25 26 25 23 22 17 19 28 33 37 43 54 64 75 77 77 71 71 59 39 41 35 38 47 49 50 46 45 49 43 48 45 43 45 38 49 40 40 38 34 33 33 36 34 34 35 37 38 38 40
24 27 28 28 26 25 24 23 23 25 31 33 44 52 54 45 64 72 71 68 69 71 46 37 37 33 34 41 47 47 47 48 49 47 46 47 44 44 42 39 46 43 40 36 36 37 38 38 38 39 40 41 43 45
25 32 31 32 30 29 24 26 27 26 31 31 44 56 61 64 64 57 48 45 44 47 58 35 26 22 27 33 44 46 48 48 50 47 43 40 44 42 45 45 44 42 40 40 41 41 41 40 41 42 43 45 47 48
31 30 32 29 30 29 29 32 35 37 44 53 59 65 64 64 66 53 35 29 18 26 48 38 26 15 17 37 43 45 46 53 53 46 55 45 42 39 38 37 34 37 41 45 47 45 44 44 44 46 48 49 49 49
46 42 37 36 40 45 52 57 64 68 72 73 75 58 68 62 50 47 31 28 21 26 36 32 33 27 23 22 34 41 34 51 40 33 40 37 38 35 36 40 46 41 38 41 44 45 47 47 48 48 49 51 50 51
68 70 66 67 69 73 62 55 59 59 59 62 63 54 50 45 34 37 29 27 25 25 23 22 22 26 31 33 38 37 45 35 31 35 41 40 37 41 42 46 49 48 45 44 44 45 46 47 48 49 49 50 50 51
51 64 62 53 49 50 56 58 67 63 47 52 44 43 32 26 25 30 24 26 22 17 11 17 18 20 23 28 34 35 36 41 40 37 39 38 34 33 35 38 39 39 40 42 43 45 46 47 48 48 48 49 51 52
40 45 49 48 39 42 56 58 55 42 32 29 24 23 24 20 19 16 12 12 9 10 10 11 17 21 22 25 29 31 33 35 34 34 34 32 30 31 33 35 38 40 42 43 45 46 47 47 47 47 48 51 53 55
28 30 31 27 28 29 28 28 27 21 14 15 19 19 16 10 9 8 8 7 5 6 10 9 8 14 20 23 24 26 27 29 28 27 28 29 32 32 33 35 39 41 42 43 43 43 43 44 47 49 52 54 54 51
19 21 24 25 25 20 18 17 19 19 10 5 10 13 11 9 8 8 10 2 2 6 7 11 13 15 15 19 20 23 23 22 25 26 27 30 32 35 37 40 44 43 39 38 41 44 45 46 49 49 49 49 49 51
17 16 18 17 17 13 11 14 15 17 14 13 15 13 11 14 16 16 15 14 9 8 7 6 16 17 16 21 26 27 27 30 30 31 33 34 36 37 35 32 32 39 42 45 46 48 47 45 46 47 48 50 53 56
21 18 15 12 12 11 11 13 12 13 16 21 22 21 20 18 17 18 18 19 17 15 12 11 12 16 19 19 20 23 27 29 31 33 33 34 34 35 39 40 42 45 49 51 51 49 48 49 50 51 52 55 58 61
15 16 14 12 10 9 8 10 11 11 12 11 11 12 14 16 16 15 13 14 16 19 19 19 20 20 21 22 24 25 26 27 30 34 37 40 42 44 45 47 49 49 49 49 49 50 51 52 54 57 59 61 63 63
12 12 10 8 7 8 9 11 11 12 14 15 16 17 17 18 20 21 20 20 20 21 24 26 25 26 28 29 30 32 34 36 38 40 42 43 44 45 46 47 47 47 49 51 53 55 57 58 59 60 59 58 59 59
10 10 10 10 10 10 10 10 11 12 14 17 20 21 22 23 24 24 24 24 24 25 26 27 30 33 35 36 37 38 40 40 41 43 44 44 46 47 49 50 51 53 54 56 57 58 57 56 55 56 57 59 62 63
8 9 10 11 12 14 16 17 18 19 20 21 22 23 24 26 27 28 30 30 31 30 31 31 33 34 36 36 37 40 41 43 44 46 48 49 49 50 51 53 54 55 56 56 55 54 54 55 58 60 62 64 67 68
4 2 4 3 6 9 8 11 11 15 16 20 22 26 29 32 34 36 36 37 38 39 39 39 40 41 42 43 44 45 46 47 48 49 50 51 52 52 53 52 51 51 51 54 56 58 60 61 62 63 63 64 64 64
7 8 10 9 10 11 7 10 11 12 11 20 22 24 25 26 27 29 30 31 33 36 38 39 40 41 42 43 44 44 44 44 44 44 45 45 46 47 49 50 52 54 55 56 57 58 59 60 60 59 58 58 59 60
2 7 9 15 19 20 24 23 17 19 26 23 18 17 20 24 31 32 32 33 34 35 35 36 37 37 38 38 39 40 41 43 44 45 46 47 48 49 50 50 51 51 51 52 53 54 56 57 59 60 62 64 66 67
11 14 17 20 26 27 24 22 20 21 23 28 31 30 31 32 31 32 33 33 35 35 35 36 37 37 37 38 38 39 39 39 40 41 42 42 44 45 46 47 49 51 53 56 58 60 62 63 65 66 67 68 69 70
19 22 25 29 25 24 25 24 24 27 29 32 33 34 31 28 26 25 24 24 24 25 25 25 25 25 26 28 30 32 34 36 38 40 42 44 46 48 50 52 54 56 57 59 60 62 63 65 66 67 67 68 68 69
23 24 24 24 24 28 28 26 28 30 32 30 27 23 22 21 22 22 23 24 24 26 28 30 31 33 34 36 37 39 40 42 43 44 45 46 47 49 51 53 55 56 57 57 58 59 61 63 66 69 72 74 77 79
25 23 24 26 29 26 25 28 29 27 26 25 26 28 30 31 32 33 34 34 35 35 36 37 37 37 38 39 39 40 41 42 43 45 46 48 49 48 48 49 50 52 55 58 61 65 69 73 75 77 79 79 79 78
25 25 24 23 23 25 26 27 28 28 29 30 32 35 36 36 36 37 37 38 37 37 37 38 39 39 39 40 40 40 40 40 41 41 41 42 43 44 47 50 54 57 60 62 64 65 66 66 67 67 67 67 66 66
21 19 19 22 24 26 28 31 33 34 34 33 32 32 31 31 32 32 31 30 30 31 32 32 32 33 33 33 34 34 34 35 36 38 40 43 45 47 49 47 45 43 44 47 50 53 55 56 58 59 59 60 60 60
18 20 23 26 28 31 30 28 29 29 28 28 27 25 24 23 22 21 22 22 22 23 23 24 25 26 27 29 31 33 35 37 39 40 40 38 33 30 30 32 35 37 40 42 45 47 49 51 52 53 54 55 55 54
20 24 26 30 28 26 27 29 28 27 26 27 24 21 19 19 19 20 20 21 23 24 26 27 29 30 31 32 32 32 32 30 27 23 22 24 26 28 30 32 33 36 38 41 43 46 47 48 48 49 48 46 43 40

GFSWCAN_500_spd_048.txt.gz
Wind_Speed
27 24 31 36 49 48 47 49 48 48 49 49 45 40 38 38 34 28 35 61 77 87 84 84 81 77 72 66 59 58 56 58 58 56 56 59 56 52 47 41 38 34 33 31 30 31 30 28 31 31 28 29 27 27
21 30 34 37 39 43 47 44 43 45 48 46 41 38 40 37 32 28 30 58 70 81 87 84 81 77 71 67 62 60 56 58 59 58 57 58 57 52 44 43 35 35 32 33 34 28 30 29 29 30 29 27 25 24
23 25 29 33 36 37 37 36 38 41 45 42 40 42 39 33 25 25 34 49 62 78 83 81 80 77 73 68 62 61 57 60 61 57 55 54 48 48 43 44 38 29 31 35 31 29 29 28 29 28 28 27 25 23
20 24 24 26 29 33 35 37 38 38 36 35 38 37 33 28 22 27 43 52 53 69 80 80 77 73 69 66 61 59 57 59 60 59 52 53 44 46 47 44 39 33 31 33 32 27 25 25 26 27 26 24 22 22
18 20 23 25 28 31 33 34 33 32 31 32 33 33 30 25 17 26 52 33 52 61 73 74 72 67 62 56 54 53 55 55 59 56 50 50 52 50 51 49 40 35 31 32 29 25 29 27 27 24 24 26 25 25
19 19 20 21 22 23 25 28 29 30 31 30 32 30 26 23 20 30 59 57 57 52 67 68 64 55 39 36 45 49 52 53 57 58 48 49 49 51 51 49 40 36 35 32 34 30 30 31 30 29 27 28 30 31
20 20 20 21 22 23 24 24 24 24 24 25 27 25 24 24 23 34 50 49 40 59 59 65 60 52 42 26 31 49 49 49 51 56 51 47 46 52 43 45 42 41 38 37 40 37 34 33 33 35 33 33 34 36
25 25 25 24 22 20 19 20 21 22 24 25 25 26 25 27 30 36 44 45 51 47 47 57 56 47 30 33 30 39 46 46 49 45 52 51 51 54 51 45 41 40 41 37 38 38 37 38 40 38 38 37 38 41
30 28 26 25 23 21 20 20 21 21 23 29 30 30 31 30 29 42 38 41 51 49 54 54 49 39 34 36 26 38 37 41 46 49 44 47 50 50 43 39 42 44 42 38 41 36 42 42 42 42 42 43 44 46
27 24 21 17 16 16 12 14 20 27 27 28 32 33 29 33 42 52 48 45 45 51 50 47 45 43 38 40 26 32 42 40 43 47 47 48 45 46 43 44 46 42 41 45 42 41 41 41 42 44 46 47 49 51
27 23 20 19 23 25 25 23 30 34 30 30 34 36 53 55 41 31 22 33 50 52 46 47 43 34 34 24 26 32 41 45 45 47 47 48 46 48 50 46 42 38 38 39 42 40 39 41 43 43 45 49 51 51
59 45 35 46 63 71 70 59 51 41 32 40 49 58 46 39 38 33 25 23 24 43 43 25 23 25 17 10 13 21 42 46 45 47 47 40 30 52 45 55 42 42 40 38 39 41 43 45 44 45 48 50 51 51
60 61 73 79 66 63 64 61 53 43 57 60 54 56 47 39 32 18 16 23 20 20 23 21 19 19 18 18 20 29 29 43 38 35 50 55 53 40 37 34 36 39 39 42 43 45 46 44 43 44 47 51 53 55
58 56 52 51 47 40 40 37 40 38 46 43 41 33 27 17 13 11 10 10 16 20 25 25 21 20 20 26 31 27 25 32 43 36 26 29 24 27 32 32 33 32 35 37 39 40 42 44 46 49 50 53 53 50
54 45 43 47 44 39 52 42 35 28 23 26 23 12 13 14 12 13 17 15 13 14 16 17 18 18 16 17 17 22 23 25 24 27 26 25 25 27 31 32 32 33 35 37 37 39 42 44 46 47 46 46 48 51
29 33 36 24 28 28 25 24 25 21 20 23 24 22 18 17 14 12 13 14 11 9 8 9 11 13 16 19 20 23 24 23 20 21 20 19 22 24 26 29 32 34 35 37 40 43 44 41 39 41 45 50 53 53
16 18 18 18 17 15 14 10 9 6 8 9 11 11 9 6 5 7 6 5 2 1 3 9 14 18 19 20 18 20 24 23 22 24 26 25 25 27 29 32 33 35 36 36 35 34 37 42 45 51 56 57 53 53
12 10 12 10 14 13 10 3 2 1 2 1 3 7 7 6 6 8 11 12 12 15 15 14 14 16 23 23 21 21 22 25 25 24 27 31 33 34 34 34 35 35 36 40 43 46 49 51 54 56 57 57 57 56
13 9 10 8 10 8 8 7 9 9 7 6 7 11 14 16 17 16 15 15 16 17 18 19 18 18 19 19 20 21 23 25 26 28 30 32 33 34 35 37 39 41 44 47 49 52 54 55 56 56 57 57 57 58
17 16 14 14 13 13 10 9 6 7 7 8 9 9 9 10 12 14 16 18 17 15 15 17 20 24 26 27 27 27 28 29 31 34 36 38 39 40 41 42 44 48 51 53 54 54 55 56 57 57 58 59 60 61
10 10 9 8 8 8 8 8 8 9 11 13 14 15 16 16 17 17 18 18 20 22 23 25 26 28 29 30 32 34 36 38 39 40 42 43 45 46 48 50 51 52 53 54 55 56 56 57 58 59 59 59 60 61
11 11 11 11 10 10 12 12 12 13 14 15 16 18 20 21 22 24 25 26 28 28 28 29 30 31 33 34 35 36 38 40 41 42 43 45 47 49 50 52 54 55 56 57 57 58 57 57 58 58 60 62 64 66
5 3 5 4 4 6 3 7 7 11 11 12 16 18 21 24 26 29 28 30 31 32 33 34 35 37 38 39 40 41 41 42 43 44 46 48 50 51 53 54 55 55 56 56 57 57 58 59 61 62 64 65 66 66
5 6 4 2 1 4 4 8 8 13 7 9 16 18 22 22 21 22 23 25 28 30 32 32 33 35 37 38 38 40 41 43 44 46 46 48 48 48 49 50 51 52 53 54 56 57 58 59 60 61 62 64 65 67
5 1 2 4 7 10 15 18 20 17 15 17 21 23 25 27 25 30 33 33 35 35 35 36 36 36 37 38 38 38 39 39 40 41 43 44 46 47 48 49 49 50 51 52 54 56 58 60 62 65 67 69 71 72
6 7 9 12 16 19 23 25 21 20 24 25 26 30 32 35 36 39 40 40 39 38 36 34 32 32 33 34 35 35 36 37 37 38 39 39 41 42 44 46 48 51 53 55 58 60 61 63 65 67 68 70 71 72
12 14 17 19 22 23 30 27 25 29 29 30 32 34 37 40 42 40 37 33 30 28 26 25 25 26 27 27 29 30 31 33 35 37 40 42 44 47 49 51 53 54 55 56 57 59 61 61 62 63 65 69 72 75
20 22 24 26 28 28 28 28 30 32 32 34 37 39 41 40 37 35 33 32 31 32 32 33 33 34 35 36 37 39 40 41 43 44 45 46 47 48 49 50 51 52 53 53 53 54 56 59 62 64 64 64 66 68
25 26 28 29 29 30 31 32 31 32 34 36 38 39 38 37 36 36 37 38 39 39 39 38 39 40 40 41 41 42 43 43 44 45 46 46 46 46 46 45 45 46 48 51 53 53 48 45 47 51 54 57 60 63
29 29 28 29 32 32 30 31 33 35 36 37 38 36 35 35 35 36 36 36 35 35 35 35 34 35 35 36 36 37 37 38 37 38 37 38 38 40 41 43 45 44 40 36 37 40 42 44 47 50 54 56 59 62
28 28 29 29 28 29 30 33 35 36 35 34 34 34 34 32 31 29 27 26 25 25 25 26 26 27 27 27 28 29 30 31 32 34 35 37 37 36 32 27 27 30 32 34 34 35 37 41 45 48 51 54 56 57
24 23 24 25 27 30 32 31 31 31 33 34 32 29 27 25 23 21 21 20 21 21 22 23 23 25 26 28 29 31 32 32 31 29 25 21 20 22 24 25 27 29 31 31 32 33 36 40 43 46 49 51 51 51
21 22 25 28 30 28 27 28 30 33 33 29 26 26 23 21 19 19 20 21 22 23 24 25 26 26 26 26 25 24 20 15 14 16 18 19 22 24 25 26 28 29 30 31 32 33 35 38 41 44 47 49 49 48

GFSWCAN_500_spd_051.txt.gz
Wind_Speed
18 9 13 17 20 32 44 47 46 47 52 55 53 51 47 44 39 35 31 30 37 64 76 83 83 82 79 75 67 61 57 55 51 52 52 56 51 49 49 40 40 36 36 34 33 35 34 21 25 26 22 22 24 25
25 12 15 23 24 34 44 40 39 44 51 49 49 48 48 42 38 31 28 27 34 56 71 78 86 82 79 77 70 65 54 52 52 51 53 51 54 53 54 45 43 41 33 33 34 32 30 26 26 25 24 24 25 25
20 27 27 33 41 40 35 36 40 47 45 46 45 45 41 37 29 25 24 23 33 52 65 78 79 80 80 77 72 66 58 55 56 54 54 51 51 44 49 50 42 37 37 35 34 29 29 28 28 28 27 24 25 26
18 20 23 26 27 29 32 36 41 42 44 43 41 39 33 26 22 23 21 23 32 52 60 55 62 68 73 75 71 64 58 56 56 55 55 55 53 48 43 44 45 41 42 38 32 28 28 28 29 31 26 25 24 24
20 21 22 23 27 30 32 34 36 38 42 40 35 29 24 24 21 20 21 20 38 53 55 47 60 48 53 65 70 66 57 57 55 57 57 58 56 49 43 43 42 41 41 36 28 24 28 28 30 30 25 25 23 23
22 23 23 25 25 27 29 31 32 33 34 31 27 25 27 23 22 17 17 18 27 39 31 51 58 60 48 39 37 57 60 57 54 54 56 56 57 50 47 44 41 41 42 38 37 34 31 34 36 33 28 28 26 25
25 24 24 25 27 27 28 30 31 30 28 26 27 27 26 23 15 15 22 36 32 29 24 41 57 50 51 43 41 38 40 54 53 54 57 56 50 47 38 36 41 44 43 42 42 40 33 31 35 39 35 31 30 29
25 26 26 26 25 24 24 24 24 24 24 24 26 26 24 20 17 22 33 37 30 35 26 31 33 51 52 37 34 39 40 41 48 52 52 53 47 45 47 39 38 43 45 46 44 44 34 36 34 40 44 38 34 34
28 28 26 26 25 23 23 23 23 22 22 24 25 22 19 17 13 31 43 45 30 27 37 44 39 36 40 30 29 32 24 26 41 46 45 46 45 44 44 44 38 40 44 37 37 38 37 36 39 42 47 46 44 43
26 25 24 22 20 18 17 17 18 20 21 21 19 18 17 15 14 24 43 35 41 35 40 44 42 39 42 34 26 24 20 29 31 39 41 37 36 40 38 44 47 44 47 49 48 39 42 45 37 35 38 40 43 47
19 17 14 14 11 10 11 13 14 16 18 18 16 14 14 15 19 26 30 30 46 27 35 37 42 39 37 30 32 39 20 28 34 33 35 38 37 38 41 42 44 46 46 46 41 38 40 40 40 43 49 46 44 45
45 44 36 33 30 28 30 32 32 32 33 30 39 45 44 42 35 25 26 38 39 30 31 32 36 39 33 28 31 23 21 24 26 31 35 39 40 42 44 43 42 42 45 50 48 45 47 44 40 43 41 43 45 44
60 60 61 61 61 60 54 55 59 62 58 46 39 33 33 26 16 12 13 13 19 27 27 27 31 31 28 30 32 28 17 29 30 29 35 38 39 39 38 38 36 42 46 45 49 52 56 40 36 41 47 47 40 42
50 44 44 50 61 67 49 44 54 47 31 27 20 17 8 17 28 28 25 23 20 16 22 24 32 30 29 26 15 12 20 24 24 28 38 39 37 39 39 44 47 37 38 38 36 41 39 37 38 38 40 41 39 41
44 45 42 50 62 60 57 52 45 34 34 18 15 16 21 16 17 17 18 19 23 17 19 19 15 18 21 20 24 25 27 28 25 22 22 24 21 22 27 28 30 31 33 31 33 30 29 32 33 34 36 40 45 50
36 36 40 38 34 37 34 30 26 25 16 6 11 14 20 21 20 19 21 25 27 26 27 25 21 20 17 17 16 16 17 16 15 16 16 18 18 15 14 17 20 24 26 27 27 30 34 39 40 42 45 48 49 49
25 28 28 31 29 28 28 27 27 23 22 26 25 23 22 23 23 23 20 19 16 13 10 11 10 13 15 16 18 17 16 14 16 17 16 16 17 18 20 22 22 25 28 30 33 36 39 40 42 44 45 45 48 50
19 20 20 21 18 17 16 17 15 15 13 11 11 11 11 10 9 8 9 9 9 8 7 7 9 10 13 18 22 21 20 18 18 18 22 26 26 25 25 27 28 32 35 37 38 38 39 40 42 45 47 50 55 56
12 12 10 10 13 10 5 4 5 6 6 4 2 1 2 3 3 4 5 6 9 11 12 15 16 16 16 17 19 23 25 25 24 24 26 28 29 30 32 33 34 35 37 38 40 41 42 46 49 52 54 56 57 58
10 7 11 9 4 2 3 3 4 3 2 2 1 0 1 2 3 4 6 9 10 11 12 15 16 19 21 22 23 25 27 27 27 29 31 32 33 35 37 38 39 40 40 41 42 45 48 52 54 54 55 56 57 57
16 13 11 9 6 7 5 3 4 4 5 6 7 7 7 8 9 10 12 14 15 17 19 22 23 23 25 26 28 30 33 35 36 36 37 39 40 41 41 42 43 44 45 47 49 51 52 53 53 55 55 55 57 59
7 6 6 6 6 6 7 7 8 8 9 11 12 13 15 16 18 19 20 20 21 22 24 25 26 27 28 30 32 33 34 36 37 38 39 41 42 44 45 46 46 46 48 49 49 51 52 53 55 56 57 59 61 63
3 2 5 5 3 3 3 2 3 5 5 8 9 11 14 16 18 21 22 24 26 27 28 29 31 33 33 35 36 36 36 36 37 39 40 41 42 42 43 44 45 47 49 51 54 55 57 58 59 60 62 63 65 66
11 15 10 5 2 1 1 4 5 7 9 9 11 14 16 18 20 21 22 22 22 24 25 27 28 30 32 34 36 37 39 41 42 43 44 46 47 48 49 50 51 53 54 55 56 57 58 59 59 60 62 63 66 68
9 6 5 3 1 4 7 11 13 15 15 14 16 18 18 19 23 30 30 29 29 32 36 37 37 37 37 37 38 39 41 43 43 44 44 45 46 47 48 49 50 50 50 51 52 54 56 58 60 62 65 66 68 68
8 7 6 7 9 12 15 18 19 21 19 20 22 23 23 26 29 33 37 39 42 42 42 42 42 39 35 34 33 34 34 35 36 36 37 37 38 39 41 43 45 48 50 53 55 57 59 61 62 62 63 64 64 64
12 11 11 13 16 19 24 28 30 29 28 29 30 30 31 34 37 40 42 43 42 40 39 36 34 32 30 30 31 31 32 33 35 37 38 40 42 44 46 48 51 52 53 54 54 55 56 56 56 56 57 58 57 54
15 16 18 21 24 28 34 36 34 33 35 35 34 36 39 42 44 45 45 44 42 39 37 36 36 36 36 37 38 39 40 41 43 44 45 46 47 47 48 49 50 50 49 49 48 48 49 50 50 46 44 46 48 49
20 22 25 29 33 36 36 37 37 36 35 37 40 42 44 46 45 42 40 38 37 36 36 35 35 35 35 35 35 36 37 38 39 39 40 40 40 40 39 39 39 40 41 42 41 38 35 37 39 38 38 42 45 49
26 29 31 34 36 37 36 34 35 38 40 41 43 44 43 41 41 41 39 37 34 32 30 29 28 28 28 29 29 29 29 29 29 29 30 31 32 34 36 36 34 30 28 30 32 33 35 36 37 38 39 42 45 48
30 33 35 35 33 32 34 36 38 39 41 39 38 39 41 40 36 31 29 26 25 23 22 22 22 22 23 23 24 25 27 28 29 30 30 29 26 21 20 22 24 26 28 29 31 32 33 34 35 36 37 39 42 45
32 29 28 28 31 32 35 36 38 36 35 35 38 40 37 31 27 24 22 21 20 21 21 22 23 24 25 26 26 26 25 23 21 15 13 15 17 19 21 23 25 27 29 30 31 32 33 33 33 34 35 37 39 42
23 25 27 29 31 33 34 33 31 31 33 35 37 34 30 25 22 22 22 23 23 23 23 23 22 21 20 19 17 12 9 10 12 14 16 17 19 20 21 23 24 26 27 29 30 31 31 31 32 32 33 34 36 39

GFSWCAN_500_spd_054.txt.gz
Wind_Speed
22 14 15 14 5 12 18 35 49 52 50 49 52 54 51 55 54 50 44 37 29 28 39 59 58 77 80 80 74 66 62 56 51 49 48 49 47 45 51 50 39 38 40 38 35 35 31 16 21 26 24 27 27 27
14 10 11 15 16 22 27 31 41 47 47 53 52 50 51 51 46 42 38 32 28 24 28 50 67 46 79 81 75 69 58 57 54 54 54 53 54 50 48 51 47 45 44 40 40 36 29 24 23 26 29 31 30 29
25 14 17 22 34 37 32 38 42 48 52 52 49 49 48 43 38 37 32 24 21 21 26 39 56 67 63 77 77 72 62 57 53 50 49 49 48 46 49 48 44 47 45 43 39 31 28 22 21 23 28 31 35 30
25 27 27 26 27 30 31 32 37 45 43 47 50 48 43 40 36 30 25 24 22 24 27 35 38 60 71 69 74 65 65 57 53 53 53 53 50 47 45 41 41 44 44 42 37 31 29 24 22 27 29 33 32 31
22 20 18 21 25 29 30 37 41 44 46 46 45 43 40 35 30 28 26 25 23 24 41 37 35 42 59 71 71 63 61 59 55 53 57 54 51 47 45 42 38 36 40 48 40 31 31 29 28 34 32 31 32 32
20 21 23 24 27 29 33 38 40 40 40 40 40 37 32 30 26 25 24 21 22 24 53 34 37 33 27 38 67 53 57 57 56 52 47 50 51 49 48 45 37 33 35 36 40 41 40 35 31 33 35 33 33 32
20 21 22 25 25 27 30 33 38 40 39 36 33 29 26 23 22 17 16 16 20 26 51 47 39 33 38 32 31 40 44 54 54 54 50 44 45 48 50 47 36 34 34 35 39 44 41 39 40 39 35 36 33 36
25 26 26 28 29 29 30 33 35 35 33 30 27 23 20 25 20 13 9 8 27 41 58 52 46 44 33 32 32 30 36 44 49 52 51 51 50 47 50 44 38 33 33 35 39 43 44 44 43 39 37 36 38 33
25 25 26 28 30 31 32 32 30 27 25 22 20 23 23 17 13 15 18 30 31 36 52 43 37 45 47 41 27 24 20 29 42 45 45 46 48 51 48 38 34 33 35 40 38 39 44 42 43 43 37 35 36 38
25 26 27 27 28 27 28 26 24 22 23 25 21 17 15 13 13 15 27 33 32 31 43 48 46 51 35 32 30 28 30 26 22 28 33 40 44 41 41 38 34 34 34 38 43 37 41 41 44 38 44 39 40 44
21 22 24 27 30 32 33 32 29 25 22 20 17 14 13 11 13 23 35 35 30 31 49 46 39 37 34 32 28 25 22 22 22 20 22 29 35 37 35 32 32 36 39 41 43 46 48 46 46 47 46 41 40 40
19 22 23 22 22 25 30 31 29 23 17 14 15 9 9 15 20 23 34 30 29 44 47 41 31 43 39 35 32 32 28 26 21 30 23 28 28 32 35 38 42 41 40 42 41 41 45 49 49 49 45 43 42 39
34 33 33 37 37 33 30 27 21 31 40 40 38 28 24 20 27 24 32 33 40 48 35 30 36 42 46 36 27 29 30 21 19 16 16 25 29 28 32 33 31 31 33 38 41 41 40 41 40 44 51 47 46 44
54 50 46 47 48 48 48 47 38 31 33 26 23 20 14 16 30 38 31 27 37 47 36 33 37 40 35 27 29 28 26 22 21 25 24 25 27 30 27 28 31 31 32 34 36 34 36 40 47 48 47 45 48 51
57 59 57 53 47 42 36 32 25 23 18 14 10 0 9 13 24 28 30 30 30 33 34 30 29 27 24 23 23 24 23 27 24 20 19 20 24 26 28 30 30 31 33 37 39 43 41 38 34 38 36 33 35 38
41 40 36 37 35 32 29 25 18 8 11 16 17 12 14 19 18 23 25 22 21 21 20 20 15 17 23 24 19 22 24 24 22 24 24 26 26 23 19 25 29 33 34 34 35 36 37 41 33 29 34 39 41 41
27 28 27 31 30 26 23 19 19 25 28 30 30 29 29 27 24 22 22 27 23 19 24 22 24 23 20 18 24 22 22 21 20 19 21 19 17 15 16 18 18 19 23 25 24 24 23 27 33 38 41 45 49 50
22 21 21 21 26 28 26 25 22 21 22 24 23 23 21 21 21 21 20 21 23 23 22 18 17 17 16 17 18 19 19 19 20 19 19 20 20 19 19 20 20 24 28 26 28 32 34 37 40 41 43 45 47 49
15 16 17 18 18 15 17 17 15 15 13 13 11 11 12 12 12 11 11 11 11 12 12 12 13 13 15 17 17 17 19 22 23 23 23 23 22 23 24 25 28 30 34 36 37 40 44 44 44 46 48 50 52 54
13 12 12 11 10 10 9 10 11 9 10 10 10 10 9 7 6 5 6 7 8 10 12 13 14 16 18 19 19 20 20 20 22 24 26 26 27 29 31 33 36 38 40 42 44 46 47 49 50 52 54 56 58 61
14 10 8 7 7 10 3 4 4 5 4 3 3 3 2 3 4 5 7 8 9 11 13 14 16 18 20 22 24 25 27 29 32 33 35 36 36 37 38 40 41 42 44 46 47 48 50 52 54 56 58 59 61 62
16 13 8 6 5 4 2 2 3 5 7 8 9 9 10 11 12 13 12 12 14 15 17 18 21 23 25 27 29 31 32 33 35 36 37 38 39 40 40 42 44 46 47 48 49 51 53 54 56 57 59 60 62 64
11 8 7 11 7 5 6 4 3 3 4 5 7 9 12 14 15 17 18 20 21 22 23 22 23 24 26 28 30 31 33 35 36 37 36 37 38 40 42 44 46 48 49 50 52 54 55 56 57 59 60 62 63 64
12 16 13 6 3 6 5 4 4 5 7 9 10 12 14 17 20 21 22 24 25 26 27 26 26 29 32 34 36 36 36 36 37 38 40 42 44 46 47 48 49 49 50 50 51 52 53 56 57 57 57 59 61 64
14 10 6 4 3 1 2 4 6 9 11 13 15 18 19 21 23 24 26 28 30 31 34 37 39 42 43 43 42 43 42 40 40 41 43 45 46 47 48 48 48 49 49 49 49 50 51 53 55 57 60 62 64 64
7 5 5 6 6 7 8 11 14 17 19 21 24 25 25 24 25 27 30 34 37 40 42 44 46 47 46 44 41 39 37 34 34 35 36 37 39 39 40 41 43 44 46 48 51 53 56 58 59 60 59 59 59 58
9 9 10 11 12 14 16 18 21 24 28 31 34 32 30 30 32 35 38 42 45 46 47 46 42 39 36 34 33 34 34 35 37 38 39 40 42 43 45 46 48 50 52 53 54 54 54 52 51 50 49 49 47 45
13 13 14 15 17 19 22 26 29 34 37 37 36 32 34 37 41 45 48 49 48 46 43 41 38 36 35 34 34 35 35 36 37 38 39 40 41 42 43 43 43 43 42 42 41 41 42 42 40 37 37 40 42 42
18 18 19 21 23 26 29 33 36 35 34 32 35 39 42 45 48 48 46 45 44 42 38 35 33 31 30 30 30 30 30 31 31 32 32 32 32 32 31 32 32 34 35 34 31 29 30 33 35 35 37 38 38 40
19 21 23 26 29 33 36 35 31 31 35 40 42 44 46 45 44 43 44 41 35 30 27 24 22 21 21 22 22 22 22 23 23 24 25 27 29 30 30 26 22 21 23 26 27 29 31 32 33 34 35 35 36 36
25 27 29 32 33 31 28 28 32 38 40 41 42 43 42 40 41 42 37 29 24 22 21 20 20 20 20 21 21 22 24 25 25 25 24 20 15 15 17 19 21 22 23 24 25 27 29 30 31 32 33 33 33 33
28 27 24 23 24 26 30 33 36 38 40 41 39 38 38 40 42 35 27 23 23 24 23 23 23 22 22 22 21 20 19 16 10 9 11 12 14 15 16 16 18 21 23 25 26 27 29 29 29 30 30 31 31 31
21 23 24 26 28 30 32 34 37 38 38 36 35 35 38 40 33 27 26 25 24 23 21 19 18 17 16 15 9 6 7 8 10 11 11 10 11 13 16 18 21 23 24 25 26 27 27 27 28 28 29 30 30 31

GFSWCAN_500_spd_057.txt.gz
Wind_Speed
29 24 27 24 20 15 22 22 21 31 38 45 48 50 50 66 69 57 58 52 51 41 40 41 39 34 46 68 75 64 57 67 62 53 56 50 46 50 51 53 48 48 46 45 38 39 39 26 20 25 16 23 33 33
13 12 17 11 12 14 12 26 42 37 39 47 53 52 54 60 54 58 49 48 48 39 32 34 26 31 41 55 69 66 58 51 55 53 54 50 49 49 49 49 48 49 49 46 41 39 36 28 26 24 24 24 28 32
15 16 16 19 14 18 29 35 40 44 45 50 47 50 59 47 50 45 41 44 41 33 26 28 33 41 35 42 60 63 56 51 53 53 55 53 50 42 41 46 43 47 46 47 42 37 38 33 32 30 28 29 29 29
17 18 17 16 20 24 31 35 40 40 42 46 52 54 51 48 43 39 42 40 34 31 25 26 30 42 36 33 42 66 62 53 57 57 55 54 49 44 39 43 45 44 45 45 46 41 38 43 33 31 34 36 36 33
17 21 24 25 31 30 34 36 36 40 45 44 47 43 41 40 40 39 39 35 30 30 28 24 25 50 31 42 25 47 65 55 60 56 56 52 50 48 47 44 39 39 38 38 40 38 41 43 42 34 35 36 35 31
24 26 28 31 33 39 41 44 42 40 40 40 38 39 42 40 38 36 34 30 28 30 24 27 30 49 45 44 34 37 58 61 49 53 53 52 49 49 47 43 37 36 35 32 32 34 40 41 40 38 40 34 34 34
22 27 28 30 31 32 34 36 39 43 45 44 42 40 38 33 30 29 30 26 25 22 20 26 39 37 55 46 45 36 39 55 49 50 53 50 47 48 47 43 37 36 36 33 34 35 34 32 32 36 37 40 36 36
20 25 28 29 31 33 35 38 39 39 37 36 35 36 33 30 28 24 20 23 25 26 30 40 34 32 32 47 46 30 39 43 50 49 48 45 43 38 40 40 35 37 37 34 31 32 34 35 36 38 40 41 40 42
23 24 28 30 33 35 36 36 36 35 34 31 29 27 25 23 22 20 19 18 20 31 37 42 40 30 35 28 25 32 27 36 44 47 48 47 44 38 39 34 26 27 28 27 28 31 34 35 36 37 40 42 45 47
27 29 30 32 32 31 32 31 28 26 23 20 19 21 23 21 17 15 15 13 14 27 52 36 36 38 32 31 33 31 29 29 33 41 41 46 45 43 48 44 34 33 32 29 28 30 33 37 40 42 41 42 45 47
27 28 30 32 32 31 28 27 25 25 26 25 22 20 20 19 17 14 17 18 24 36 57 47 38 25 27 36 35 32 28 25 22 25 29 32 33 37 38 34 30 29 28 29 31 33 37 39 41 43 47 47 42 45
32 33 33 33 31 29 26 24 24 23 21 18 17 19 21 22 22 19 17 21 28 41 56 41 31 29 35 34 34 29 28 23 22 20 17 21 24 26 29 29 29 32 33 33 35 36 38 41 42 44 44 46 47 47
35 34 33 31 28 24 21 19 19 17 15 13 10 16 23 24 25 25 25 20 21 28 48 35 30 30 31 30 33 28 29 26 24 25 27 24 22 25 26 25 26 30 34 36 37 35 36 39 42 45 44 41 41 44
36 33 33 31 34 38 31 32 31 30 24 19 16 11 20 17 22 20 21 20 16 21 38 32 18 33 35 29 35 32 28 27 25 26 17 15 14 18 23 27 28 29 29 30 32 34 36 37 38 39 40 42 42 45
38 36 31 29 31 26 21 18 18 17 17 19 19 18 14 15 22 23 24 21 22 49 55 30 17 29 30 29 29 25 26 28 29 28 23 21 23 25 22 20 23 28 30 34 35 38 38 38 37 36 39 39 40 38
49 44 38 29 22 18 13 15 15 13 11 13 20 22 22 24 27 27 24 24 24 20 19 19 14 28 36 33 29 27 27 28 26 27 26 24 22 21 23 25 24 23 28 34 39 41 43 41 39 38 38 40 42 44
25 23 24 21 21 19 18 27 29 29 27 26 24 28 28 30 32 31 26 26 23 24 25 28 31 30 27 21 21 18 21 22 21 21 24 25 25 25 24 24 25 26 28 29 31 31 30 28 29 30 31 29 35 38
23 25 23 21 20 15 20 26 31 31 30 29 27 25 25 24 23 29 31 35 28 26 24 19 14 18 24 21 18 19 18 19 21 22 22 23 25 27 27 25 24 24 25 26 27 30 31 32 33 37 40 41 43 45
18 17 19 23 23 23 20 20 18 19 21 22 24 25 23 21 18 17 17 17 16 15 13 16 18 22 25 20 17 21 22 21 22 22 23 24 25 27 28 30 31 32 34 34 34 36 38 39 39 42 47 51 52 53
14 14 14 14 17 15 16 15 14 16 16 18 17 16 14 12 11 11 10 9 8 8 8 9 10 11 12 14 16 17 19 21 23 24 25 26 27 28 29 31 33 35 37 39 41 43 46 48 51 53 54 56 58 60
12 10 10 12 13 14 11 11 11 13 11 11 11 12 9 7 6 5 3 0 2 4 7 10 12 14 16 18 20 22 24 26 28 29 31 33 34 36 37 38 39 41 43 45 47 49 52 54 55 56 57 58 59 59
13 12 12 11 13 10 7 9 11 11 10 10 9 8 7 5 3 2 2 3 7 10 13 15 18 20 22 24 26 28 29 31 32 34 36 37 38 39 40 41 42 43 45 46 48 50 51 53 53 55 57 58 59 61
14 12 12 13 11 7 11 11 10 9 8 9 9 11 11 13 13 14 13 15 16 17 18 19 20 22 24 25 27 30 32 34 35 37 38 40 41 43 44 45 45 46 47 48 49 51 52 54 55 56 58 60 61 63
14 13 15 11 8 8 7 6 6 6 6 8 10 11 13 14 17 18 21 24 26 29 30 31 33 34 37 38 39 40 41 43 44 45 44 43 44 45 46 48 50 52 53 54 56 57 58 59 60 60 61 61 62 62
14 15 12 8 3 3 3 4 6 8 10 12 14 17 19 22 25 27 28 31 33 33 35 37 40 43 44 46 48 50 52 52 51 48 46 44 42 43 44 45 46 47 48 48 49 49 50 51 52 53 55 57 60 62
15 12 7 3 1 4 7 9 11 14 17 19 21 24 27 29 31 31 33 33 35 38 41 45 50 54 56 54 50 46 42 39 38 37 37 37 37 38 39 40 41 43 45 46 48 50 52 54 56 57 58 57 55 53
9 5 3 5 9 12 14 15 17 19 21 24 27 30 32 32 33 34 37 38 42 47 51 54 54 50 46 42 40 37 36 35 35 36 37 38 40 41 42 44 45 45 46 47 47 47 46 45 43 42 42 42 41 41
5 7 8 10 11 14 16 19 21 24 27 30 32 31 33 34 36 38 42 46 49 49 46 43 41 39 36 34 34 34 34 33 34 34 34 35 35 36 36 36 35 35 34 34 34 36 35 34 32 32 34 37 38 39
11 13 14 15 16 18 21 24 26 28 28 28 29 32 35 37 41 45 46 46 41 41 40 35 30 27 26 25 24 24 24 24 24 24 24 24 24 24 25 27 29 29 28 24 23 25 29 30 30 31 32 34 35 36
16 17 18 20 23 25 25 26 26 26 26 30 32 35 38 42 43 44 40 39 40 36 29 24 22 21 20 20 20 19 20 20 21 21 22 23 24 23 19 15 15 18 20 20 21 23 26 27 29 30 31 31 31 31
20 22 23 23 24 24 24 23 25 27 29 31 35 38 41 41 39 37 37 39 34 27 24 24 24 24 23 23 22 22 22 22 21 19 16 11 9 11 13 13 13 15 18 21 23 24 25 26 28 29 30 30 30 31
22 22 21 21 21 23 24 25 26 28 31 34 37 40 38 36 34 37 37 33 28 27 26 25 24 22 20 19 18 17 16 11 6 7 9 10 10 9 11 13 16 18 20 22 23 25 26 28 29 29 30 31 31 32
18 18 21 23 22 23 24 26 29 31 34 37 37 35 34 33 34 36 33 28 27 25 23 20 18 16 14 11 5 4 5 7 8 7 6 7 9 12 14 16 18 20 21 23 24 27 28 30 31 32 33 33 34 33

GFSWCAN_500_spd_060.txt.gz
Wind_Speed
13 16 24 29 28 29 34 39 38 36 46 47 42 45 52 52 61 68 74 70 66 59 48 48 44 36 40 43 44 41 40 53 47 48 51 66 68 51 53 47 36 49 40 46 47 48 46 37 29 39 28 16 22 25
19 25 26 25 20 25 26 21 21 35 35 37 39 46 45 52 53 66 68 61 54 51 53 43 42 32 37 40 36 40 41 50 66 40 47 53 59 56 57 54 41 48 46 43 47 47 42 38 32 31 28 32 31 25
25 17 16 13 11 8 17 16 10 17 27 38 39 47 45 45 48 60 68 61 58 49 45 45 42 29 29 33 36 36 46 49 39 56 50 50 58 52 52 52 42 47 43 46 38 43 41 34 37 34 38 34 26 32
11 11 5 5 10 14 16 19 23 27 32 39 44 43 43 44 47 51 57 54 52 41 43 37 37 37 35 31 33 35 44 63 66 51 51 46 44 49 51 44 42 39 37 43 45 43 45 37 42 26 36 35 39 37
15 13 16 15 19 22 24 31 34 37 38 38 41 44 46 48 55 54 56 48 42 43 38 30 30 30 31 30 32 30 41 50 52 39 51 49 49 49 47 46 39 40 40 43 43 38 40 38 36 42 39 42 40 40
26 23 17 20 21 23 24 29 32 34 43 49 54 53 51 49 51 43 41 35 39 39 32 27 21 25 31 41 34 28 34 44 57 33 36 48 46 47 47 44 38 30 31 35 34 36 40 42 41 40 43 42 43 44
21 23 29 33 36 37 37 40 43 44 42 41 45 45 44 42 39 38 40 37 37 34 30 25 23 18 33 41 40 28 45 42 44 48 34 42 48 46 45 45 36 35 33 35 37 33 30 23 25 30 32 34 37 39
22 24 25 24 25 27 32 35 40 39 38 37 36 38 37 37 36 37 37 36 31 27 26 26 26 24 37 39 41 27 43 53 51 55 47 38 36 40 46 44 38 36 37 38 37 36 31 28 30 33 34 31 29 29
22 24 27 30 31 33 35 36 37 37 38 38 37 35 34 30 31 31 31 29 28 28 26 20 19 22 26 36 45 30 37 46 47 46 41 34 31 40 45 40 39 38 38 36 36 33 34 30 31 33 33 37 39 40
24 26 28 29 29 28 28 30 33 35 35 35 34 32 30 27 25 24 24 26 27 24 21 23 23 20 17 38 37 34 25 33 36 41 37 34 31 35 42 38 32 30 29 31 31 31 29 29 32 36 38 41 42 42
25 26 27 28 28 28 28 27 25 24 23 22 22 22 22 20 18 18 18 18 19 19 24 32 26 18 18 44 40 37 26 26 27 32 34 32 33 38 38 36 28 25 28 30 30 30 30 30 33 37 40 42 45 47
24 22 22 20 19 20 20 20 20 20 19 18 19 21 21 20 19 16 15 14 13 18 33 32 27 17 22 36 44 41 29 27 25 31 32 32 30 31 35 37 34 31 28 29 31 31 32 35 37 41 43 46 47 48
24 22 19 17 15 15 17 18 17 17 18 20 21 21 22 20 17 14 10 9 17 17 40 38 15 11 17 34 41 39 36 39 28 28 28 21 21 22 24 26 28 27 30 35 38 38 39 41 42 45 46 45 44 47
23 20 18 14 11 10 10 10 9 8 8 8 9 19 19 16 13 13 16 13 16 16 39 27 9 14 28 41 24 32 20 32 27 26 22 20 21 22 24 25 22 25 27 29 30 32 36 39 41 43 43 44 45 45
25 26 20 20 21 19 19 17 19 18 18 20 19 18 12 12 14 14 15 14 13 27 31 13 8 20 26 15 20 33 22 30 27 27 27 25 23 22 21 20 21 26 29 30 32 34 35 36 38 40 42 44 46 46
19 16 15 14 13 18 12 14 14 14 15 15 13 7 10 19 23 21 20 22 33 28 20 11 11 15 10 11 18 23 25 28 27 27 27 22 19 19 21 24 25 26 26 26 27 28 30 32 35 39 42 42 42 43
16 13 16 22 25 21 24 24 22 21 22 23 22 19 23 26 25 24 34 38 34 26 19 14 13 14 21 23 25 24 22 20 16 14 17 21 24 26 28 29 29 28 28 28 29 30 32 34 35 36 35 36 35 36
24 23 20 20 19 21 27 28 25 23 23 24 23 21 22 28 30 29 30 31 28 23 24 25 27 26 26 25 19 16 18 18 17 16 17 21 24 27 29 31 31 31 31 30 31 32 34 34 34 36 38 40 42 44
23 22 22 23 25 24 26 29 30 31 27 24 22 20 16 14 14 13 14 15 16 18 17 17 16 14 18 22 25 25 22 20 20 20 21 23 25 26 28 30 31 32 35 37 37 37 39 41 43 44 46 47 48 49
17 19 19 19 19 21 21 23 23 26 27 26 25 23 21 21 17 17 17 16 13 11 6 4 5 5 6 7 8 10 12 15 17 19 22 25 26 28 31 33 34 36 37 39 41 43 45 47 49 50 51 53 55 56
11 10 11 14 17 16 13 16 18 18 18 19 20 19 15 15 14 13 10 8 8 6 4 2 4 6 8 10 12 14 17 20 22 25 28 30 32 34 35 36 38 40 42 44 46 49 51 52 53 54 55 56 57 58
7 9 11 10 13 11 10 13 16 15 15 15 15 12 11 11 11 12 12 12 8 9 10 12 15 17 19 21 22 23 25 27 29 32 34 36 37 39 41 43 44 45 46 47 49 50 51 52 53 55 56 57 59 61
12 11 11 10 12 9 13 13 13 12 11 12 12 14 14 14 14 14 13 14 15 15 18 22 26 31 33 35 36 38 41 44 47 50 52 51 49 49 50 50 50 50 50 49 50 51 52 54 55 57 59 61 62 63
14 13 13 13 11 10 9 9 9 10 10 12 13 13 14 15 16 18 21 23 24 25 27 31 35 38 41 44 47 49 51 52 53 54 54 54 54 53 51 49 49 49 50 51 53 54 55 56 57 57 57 56 57 58
16 13 14 10 8 7 5 6 6 7 10 12 13 14 16 18 21 23 25 28 30 33 36 38 41 44 47 53 55 53 50 48 46 46 46 46 44 43 43 43 44 45 46 46 47 48 49 50 51 52 54 56 57 58
13 13 12 8 5 1 3 6 8 11 13 14 16 19 21 24 26 29 32 34 36 38 41 44 49 54 56 53 50 47 44 42 40 39 39 40 40 40 41 41 42 42 43 44 45 46 48 49 49 48 47 46 45 44
16 12 8 3 2 5 7 9 12 14 16 19 21 24 27 29 31 33 35 37 39 43 48 52 52 48 46 45 44 42 39 37 36 35 36 37 37 38 38 39 39 40 41 41 40 38 37 36 36 36 35 34 34 35
11 6 3 3 6 9 12 14 16 19 21 24 27 28 30 32 32 33 36 40 46 49 49 46 43 43 42 38 32 30 28 27 27 26 26 26 27 27 27 27 27 27 26 27 28 28 26 24 26 28 29 30 33 34
9 7 7 9 11 13 15 19 22 24 25 26 28 28 28 29 32 37 43 46 46 44 41 41 41 37 30 25 23 23 22 22 21 21 21 21 21 21 22 22 23 21 18 16 18 19 20 23 26 26 28 30 31 32
11 11 13 15 16 19 21 23 24 24 25 26 27 27 29 33 39 43 45 43 40 39 40 38 31 27 25 25 26 25 25 24 23 22 22 21 20 18 14 11 12 13 13 15 18 20 22 24 26 28 30 31 32 33
15 16 18 19 21 22 23 23 23 25 26 26 28 30 34 39 43 44 41 38 37 39 35 30 29 28 27 26 24 23 22 20 18 17 13 8 7 9 9 8 10 13 15 18 20 22 23 25 27 29 32 33 34 35
19 21 21 23 23 23 23 24 26 26 28 29 32 36 39 42 42 39 38 37 37 33 31 30 27 24 22 19 17 16 14 8 4 5 7 7 5 7 9 11 13 16 18 20 21 23 25 27 29 32 33 35 35 33
22 24 24 23 22 24 26 26 28 29 30 33 36 38 40 40 37 37 37 35 31 28 24 18 14 11 9 6 4 4 5 6 6 4 4 6 9 11 12 14 16 18 20 21 23 24 26 28 30 33 34 34 31 31

GFSWCAN_500_spd_066.txt.gz
Wind_Speed
20 19 20 29 35 39 39 36 36 41 44 46 49 50 49 50 54 57 57 58 65 68 54 55 52 51 50 50 49 46 48 50 49 49 46 41 46 46 41 42 46 52 50 55 56 35 50 51 43 43 42 47 45 46
23 19 19 16 19 25 32 37 39 42 46 48 51 51 49 46 45 47 60 60 61 65 61 60 54 44 39 36 35 41 45 48 49 51 51 47 50 49 40 43 50 53 46 36 47 23 26 46 42 39 36 35 39 38
18 14 12 12 15 20 25 28 32 35 42 44 46 41 38 40 45 45 38 47 55 65 59 45 52 48 47 39 33 34 37 41 45 50 50 50 49 44 40 41 43 49 49 32 48 23 14 23 37 31 36 33 34 40
18 14 11 11 13 18 23 27 30 29 31 37 41 38 41 38 42 51 44 36 37 37 42 45 45 40 35 41 37 36 39 36 35 39 42 49 45 41 37 39 39 42 53 49 41 35 31 35 28 35 41 43 46 38
22 15 11 14 18 17 11 6 5 4 7 28 31 42 41 37 37 39 43 41 38 33 29 30 33 37 35 35 31 32 35 29 31 37 36 34 37 36 40 35 29 36 39 37 43 45 44 43 33 29 40 43 40 43
26 26 25 30 28 20 15 13 10 13 19 32 41 42 37 39 38 42 48 48 41 34 18 29 29 30 36 39 33 30 35 37 39 37 34 35 31 35 34 29 27 36 34 33 39 45 44 41 37 30 33 41 43 47
20 24 26 32 34 23 25 22 25 25 31 39 40 42 39 33 39 34 47 46 49 31 28 29 31 35 34 28 28 26 26 31 33 34 37 39 38 30 33 24 32 31 32 34 35 37 41 36 37 36 39 32 40 39
15 22 26 31 37 36 33 39 36 36 39 39 38 37 38 37 34 31 39 51 54 19 22 25 23 31 30 29 25 31 31 28 27 33 36 40 31 31 40 39 39 35 33 30 34 35 32 31 34 33 35 35 35 35
12 15 19 25 34 44 42 39 40 39 46 41 34 35 36 35 33 38 46 43 42 25 21 22 27 24 23 22 24 28 31 32 32 32 35 35 32 35 34 39 37 37 37 34 33 31 30 26 25 31 32 30 34 39
15 13 15 19 26 35 40 41 41 40 43 35 33 35 40 32 39 52 49 45 44 34 20 18 20 21 21 19 19 24 28 32 36 32 34 38 36 38 39 37 36 33 30 27 23 29 30 25 24 29 30 31 33 31
14 16 18 19 21 25 28 33 34 32 34 34 34 31 36 38 40 41 42 40 34 35 28 21 20 19 17 17 21 25 21 19 27 26 31 45 39 39 35 36 37 32 36 35 30 34 32 28 27 29 30 31 30 32
12 12 13 14 16 18 20 22 24 25 25 26 27 30 34 33 31 31 31 29 28 25 22 19 17 14 14 16 13 19 12 17 19 18 27 43 41 27 37 24 27 28 29 31 34 35 33 31 31 32 35 34 33 34
10 9 9 10 11 13 14 15 17 20 20 23 25 27 27 26 27 27 25 23 21 17 16 17 17 12 14 11 12 21 23 17 17 18 30 44 39 22 42 30 27 31 31 31 33 33 31 30 32 31 31 36 40 42
22 18 13 14 15 15 14 13 12 12 14 18 18 18 18 20 18 18 19 19 14 12 13 17 17 14 4 1 11 17 24 16 16 15 18 31 27 29 25 23 26 34 29 30 34 36 36 33 34 37 42 47 47 47
19 16 13 14 13 13 13 13 13 14 15 15 16 17 17 16 15 16 16 16 22 22 19 12 6 8 7 11 20 19 18 17 15 9 12 29 27 28 25 27 32 31 31 32 30 27 28 31 33 35 38 40 41 43
24 23 16 14 13 11 9 15 16 16 18 21 19 18 16 15 12 11 13 23 26 21 18 15 15 11 9 9 16 22 15 11 13 9 11 12 15 21 27 30 30 33 32 30 28 33 32 32 33 35 37 37 38 39
22 21 22 16 14 15 14 12 14 17 20 25 26 24 20 15 13 12 24 28 23 16 18 15 11 10 8 5 6 9 7 2 6 9 10 19 13 21 28 28 30 32 36 40 36 31 27 28 28 30 33 35 36 37
25 22 21 24 26 28 32 28 25 24 22 21 24 26 21 17 19 33 31 23 17 14 13 9 9 7 8 4 2 4 2 2 4 4 7 10 11 11 12 13 19 22 23 25 26 27 28 29 32 35 37 38 40 41
28 25 24 24 26 26 30 32 35 40 41 37 33 31 33 35 34 29 23 17 11 9 7 9 7 7 7 6 2 3 6 8 12 13 17 16 15 15 15 15 17 20 22 25 26 27 29 32 34 37 38 40 41 42
26 26 27 28 27 25 27 26 27 31 35 35 34 34 31 28 21 14 10 10 10 9 10 9 9 8 9 10 11 12 10 10 11 12 14 15 17 20 23 26 29 32 34 35 36 38 39 40 40 41 42 44 45 47
22 21 23 25 28 24 26 25 25 27 28 28 26 24 23 24 22 20 20 16 17 17 12 8 7 5 5 9 12 14 15 17 19 22 24 26 28 31 35 38 41 42 43 43 43 44 45 46 46 47 47 47 49 49
18 18 19 24 24 23 25 26 27 25 24 25 27 25 21 20 20 20 18 17 11 7 4 4 7 10 13 16 19 21 23 25 28 30 33 36 37 39 41 42 42 43 43 44 46 46 47 47 47 48 48 49 50 51
16 15 20 22 19 20 23 24 25 23 25 26 25 22 21 18 14 13 13 6 3 3 7 10 13 16 19 22 24 27 31 34 38 41 44 45 45 45 45 45 45 43 44 45 46 47 47 48 48 48 48 48 48 49
14 15 19 18 14 17 18 19 17 15 15 16 16 12 11 10 8 7 7 7 9 11 14 16 18 21 24 27 32 36 40 44 47 49 47 45 43 41 41 41 42 42 42 42 42 41 41 40 40 40 41 41 42 42
15 15 15 15 13 12 11 11 12 10 10 9 8 6 6 6 8 10 11 13 15 17 20 23 26 31 36 41 45 48 50 50 46 43 42 40 37 34 32 32 34 35 37 38 38 38 38 37 37 36 35 35 34 33
13 14 15 12 10 8 7 7 5 5 5 4 5 6 8 11 14 15 17 19 21 24 28 32 37 42 46 50 53 54 47 42 40 38 33 29 26 24 23 24 24 25 26 26 26 26 26 26 25 24 23 22 21 21
18 17 15 12 9 6 4 3 2 3 4 6 9 12 15 17 19 20 22 24 26 30 36 41 45 49 53 56 50 44 42 39 35 30 26 23 21 21 21 20 20 19 19 19 18 18 18 18 16 14 14 17 19 22
19 16 12 8 5 3 2 2 4 6 9 11 15 17 20 22 23 25 26 28 32 37 43 47 52 56 54 49 45 42 37 33 31 28 26 25 24 23 23 22 21 21 20 18 14 10 10 11 13 15 17 20 22 24
20 15 11 8 7 6 6 7 9 10 13 17 19 21 24 25 26 28 29 32 38 43 47 53 56 52 48 42 38 36 33 29 26 24 22 20 19 18 17 17 14 9 7 8 7 9 12 13 16 18 20 22 24 26
18 14 12 10 10 10 11 12 13 15 18 21 23 25 27 29 30 31 33 38 43 46 51 56 51 44 38 33 28 26 23 19 16 15 14 13 12 9 5 5 6 5 7 9 10 12 14 17 19 20 22 24 26 28
17 15 13 15 14 14 15 16 18 20 23 26 27 28 31 34 34 36 38 41 45 48 52 49 43 38 32 21 21 22 20 16 12 9 7 5 6 5 4 4 7 9 10 12 14 16 18 20 22 23 25 27 29 31
18 17 18 16 17 17 18 21 24 25 28 30 30 32 35 37 37 38 39 42 44 48 48 42 36 32 25 21 21 20 17 15 12 9 7 5 5 6 8 9 11 12 14 15 17 18 20 22 24 26 28 30 32 33
21 20 19 19 20 22 25 27 28 30 32 31 32 35 38 37 37 38 39 40 43 45 43 38 33 30 23 20 21 19 14 11 8 8 8 9 10 11 12 13 15 16 17 18 19 21 23 25 27 29 31 33 35 37

GFSWCAN_500_spd_069.txt.gz
Wind_Speed
32 31 29 26 21 24 43 55 52 50 50 50 49 49 49 49 49 51 51 51 50 49 51 50 48 45 43 41 42 39 41 42 44 41 40 38 38 35 34 34 32 31 32 37 43 50 56 53 48 26 35 45 47 46
24 22 23 21 21 22 23 33 46 51 54 53 51 51 52 53 54 56 56 54 52 53 52 51 48 48 47 41 39 41 39 38 40 43 44 42 42 41 40 39 37 36 36 37 40 41 43 53 53 33 38 33 39 42
24 14 15 13 14 18 21 25 29 36 42 43 41 42 43 42 42 42 42 44 52 58 56 54 49 49 47 42 41 43 42 43 42 45 46 47 49 47 46 45 45 41 40 40 40 35 37 42 54 48 28 30 35 30
23 19 18 18 20 22 24 27 31 35 41 46 45 43 42 43 44 44 41 38 38 45 51 50 54 52 47 42 43 40 38 38 41 44 47 49 50 50 50 50 49 45 43 41 39 37 38 26 31 49 24 18 25 30
24 25 27 24 11 8 5 14 25 33 37 39 41 41 40 40 38 36 33 28 37 49 56 59 52 55 53 49 44 41 37 36 38 39 36 40 41 44 47 49 50 45 41 38 37 33 34 36 30 46 24 23 19 33
24 30 31 18 19 11 5 3 0 11 22 26 32 36 37 39 37 37 33 35 29 29 37 47 50 51 47 42 39 43 43 42 35 35 35 31 30 33 38 44 46 43 39 29 28 24 25 36 41 42 34 31 24 26
22 31 29 28 22 22 17 8 7 8 23 27 35 41 42 36 31 40 38 36 29 30 28 20 44 52 50 43 43 38 40 41 35 37 34 32 36 31 29 32 41 42 38 29 25 26 28 31 34 40 34 32 28 31
18 28 28 28 33 31 32 31 31 37 36 37 43 42 38 31 32 42 41 36 34 34 19 18 29 30 31 37 34 35 34 30 25 35 39 38 36 33 36 33 31 30 31 27 27 29 27 29 31 29 33 34 30 32
15 22 28 28 35 33 33 37 37 37 37 39 40 38 36 36 37 45 39 37 31 29 14 17 25 23 28 26 29 23 30 29 28 30 32 35 38 42 34 32 34 37 34 32 30 30 27 29 34 34 33 29 26 33
18 17 21 27 32 33 33 36 32 37 37 37 34 35 38 42 46 39 35 29 26 23 17 24 22 22 25 22 22 25 25 26 32 30 31 31 35 38 40 40 30 32 36 32 32 29 32 32 32 36 35 31 29 28
15 16 16 19 24 28 30 37 37 34 34 36 37 29 33 35 37 37 35 34 25 23 20 15 17 20 20 19 19 21 20 24 28 29 31 31 29 31 36 38 42 37 29 28 30 28 31 34 32 40 40 35 34 32
9 11 12 15 17 19 24 28 31 30 33 32 31 41 48 45 43 43 47 38 26 20 19 10 8 12 15 19 18 19 19 20 22 22 27 31 29 30 38 43 38 33 34 33 31 32 37 34 32 36 41 37 35 35
10 11 10 9 12 15 18 19 21 22 22 24 26 32 35 39 39 35 35 29 19 19 16 12 11 14 13 13 12 15 21 15 17 17 15 18 26 32 36 38 30 31 24 27 33 35 36 36 36 38 41 41 37 39
11 10 11 13 12 13 15 16 18 22 24 23 25 28 29 27 23 20 19 19 16 15 15 14 13 10 11 9 13 20 24 15 11 14 12 14 19 25 33 39 22 29 25 27 30 34 34 33 36 40 45 47 47 44
10 13 15 16 14 14 15 18 18 18 20 20 20 18 18 17 19 18 17 16 14 12 10 10 13 15 14 8 5 15 20 20 14 12 10 4 10 13 22 22 19 24 31 34 35 31 30 33 36 41 45 47 46 42
12 11 13 15 14 10 16 20 23 24 21 19 18 19 17 15 15 18 22 25 22 19 15 12 8 8 7 4 5 10 11 10 11 14 17 21 13 17 24 25 26 30 31 30 31 34 33 33 31 31 33 36 39 42
13 9 6 12 13 13 16 17 23 28 28 27 23 19 18 19 21 26 28 25 22 18 16 13 10 8 6 2 4 14 10 9 7 7 15 12 12 11 14 19 21 24 27 29 32 31 34 35 35 39 37 37 34 32
20 20 15 11 14 16 18 20 23 31 32 29 24 21 18 19 28 28 24 21 20 16 12 10 8 6 4 4 7 7 2 0 1 3 5 5 3 4 7 10 14 20 26 26 25 26 29 32 31 33 35 38 38 36
19 23 26 28 27 24 23 23 29 34 33 31 25 20 17 29 28 23 19 16 15 11 9 8 9 8 5 3 1 1 2 4 4 7 6 6 5 7 9 11 12 14 17 19 21 23 26 29 32 34 36 39 40 41
24 26 28 29 33 38 38 36 36 36 35 30 26 26 33 29 24 18 13 10 8 5 19 19 17 16 13 10 8 6 3 1 2 4 6 8 10 13 14 17 20 23 25 27 29 31 33 35 36 38 40 43 45 46
25 28 31 30 29 30 35 39 40 41 39 38 34 29 24 19 15 12 10 12 18 16 12 8 6 4 3 2 3 5 7 10 12 14 17 20 22 25 27 29 31 33 34 36 37 39 41 42 43 45 46 48 49 49
20 23 26 30 25 25 29 28 26 26 26 26 24 21 20 21 21 21 18 15 9 5 4 0 2 5 8 10 13 15 18 21 24 27 30 32 35 36 38 38 39 40 42 43 46 47 48 49 50 50 50 50 50 51
24 25 28 26 24 25 28 28 27 25 26 25 23 21 19 16 15 15 10 6 1 3 6 9 12 14 17 19 22 25 29 32 36 39 42 45 47 47 45 43 42 41 41 42 43 44 45 46 46 46 46 46 45 45
20 25 26 22 20 23 23 22 20 20 21 20 18 14 12 8 5 4 1 4 7 10 12 15 18 21 24 27 31 35 39 43 47 51 52 48 44 41 39 38 38 38 38 38 39 39 39 39 39 39 39 39 38 37
17 19 19 17 16 17 16 17 16 13 11 10 9 6 3 1 2 5 8 11 13 15 18 21 24 27 32 38 43 47 52 54 53 49 43 38 35 33 31 29 27 25 26 26 27 28 28 28 28 28 28 27 26 25
16 15 16 14 12 11 9 10 9 7 6 4 1 1 5 8 11 13 15 16 18 20 22 26 31 37 42 47 52 55 53 48 43 38 34 30 27 24 22 20 19 19 20 20 19 19 19 19 19 18 18 18 16 15
17 17 15 12 10 9 7 5 4 2 1 2 5 8 12 14 16 19 20 21 22 24 28 33 39 45 51 55 55 51 44 38 34 31 29 26 24 23 21 21 21 21 21 21 21 20 18 16 13 10 11 13 15 17
19 16 13 10 8 6 5 3 2 2 4 7 10 13 15 18 21 23 23 25 26 29 33 38 44 50 55 54 48 41 34 31 29 25 22 20 20 20 20 19 19 18 18 17 13 8 7 8 10 12 14 16 18 20
22 18 14 11 8 6 5 6 7 8 10 12 15 17 20 22 24 27 28 29 32 34 37 41 46 52 54 48 40 33 27 28 28 22 17 15 14 14 13 12 11 7 5 6 5 7 9 11 13 15 17 19 22 24
24 18 15 12 10 9 10 11 12 13 16 18 20 21 24 26 27 29 31 34 36 38 41 43 47 51 51 42 35 29 27 26 22 20 17 13 9 6 4 4 4 3 5 8 9 11 13 14 16 18 20 22 24 26
24 20 17 15 13 13 15 16 17 19 20 23 25 26 29 30 30 32 34 37 39 40 42 44 47 48 45 38 32 26 24 24 20 16 13 11 8 6 5 6 7 8 10 11 13 15 16 17 19 21 23 26 28 30
25 22 20 17 17 18 18 19 21 23 26 26 28 30 32 32 33 35 38 40 41 42 43 44 46 47 43 36 30 25 22 22 17 12 10 9 10 10 10 11 11 12 14 15 16 17 19 20 22 24 27 29 32 34
27 23 21 20 21 22 22 24 26 27 28 29 31 33 33 33 34 37 38 39 41 42 43 45 47 46 40 32 27 23 20 20 17 15 14 14 14 14 13 13 14 15 16 17 18 20 21 23 25 28 31 33 35 37

GFSWCAN_500_spd_072.txt.gz
Wind_Speed
26 32 33 29 28 29 30 29 35 49 43 40 40 40 41 43 45 46 46 47 48 46 42 42 40 36 32 29 27 29 31 32 32 32 32 31 30 30 29 26 24 23 22 21 23 24 23 25 33 48 55 54 39 33
23 24 22 23 26 25 23 28 27 40 52 47 45 44 45 45 46 48 48 47 46 45 46 45 42 39 36 29 27 30 31 34 34 36 34 32 32 32 31 31 29 28 26 26 25 21 24 28 32 31 32 49 51 35
23 26 28 30 28 27 24 24 27 28 44 53 51 49 48 48 47 48 48 47 46 47 46 44 41 38 38 34 30 31 32 36 39 39 38 38 37 37 38 38 37 36 35 34 31 25 26 31 34 34 34 31 55 52
24 31 32 28 21 20 24 28 27 28 30 43 49 52 51 49 49 48 47 46 47 46 46 45 44 39 38 35 33 30 28 35 38 40 41 42 40 41 41 42 42 42 42 40 37 36 34 32 36 38 32 29 37 45
26 27 31 26 21 14 11 15 26 29 31 36 40 46 48 48 48 45 44 42 42 40 44 49 44 42 41 38 36 32 30 32 37 37 42 43 44 44 45 46 46 47 47 47 43 42 40 34 36 41 31 32 28 34
23 24 28 27 23 17 7 9 9 27 30 33 36 38 43 39 34 35 35 33 33 34 39 43 47 49 48 42 38 35 33 33 37 39 41 43 41 39 43 45 45 45 46 48 47 45 42 39 38 37 32 39 35 33
18 23 27 25 24 24 15 5 15 15 30 33 35 36 34 33 29 25 23 26 29 30 32 35 38 39 40 25 23 18 26 31 34 35 33 29 31 35 36 38 38 36 38 44 47 45 37 37 34 34 25 28 35 29
16 21 26 26 24 25 27 17 10 27 28 34 34 33 31 27 25 23 25 30 26 23 19 26 31 38 41 38 37 32 40 37 37 37 36 36 34 36 39 35 35 32 27 27 34 39 36 33 34 35 33 31 32 33
15 20 25 25 23 26 30 34 30 33 34 35 39 35 40 34 33 30 31 28 26 19 23 19 19 34 34 42 37 38 31 26 28 30 30 35 38 38 34 33 28 28 33 32 31 35 37 35 34 33 31 32 33 36
13 17 23 27 24 27 29 35 41 38 44 46 46 36 34 36 37 34 30 22 18 23 27 11 3 22 31 32 33 36 34 30 31 29 29 28 29 32 35 37 38 32 30 29 29 36 31 27 29 32 33 33 36 37
12 13 15 23 25 24 25 32 35 34 37 38 36 35 31 31 31 26 23 21 19 14 15 23 18 16 24 18 18 24 25 20 23 26 29 29 29 31 30 31 34 37 36 32 24 41 35 31 31 33 35 35 34 34
7 10 13 16 20 27 28 27 30 29 28 27 30 29 35 39 33 18 28 24 25 23 23 19 16 16 21 23 21 21 24 26 25 25 27 30 30 29 31 29 30 31 34 38 38 35 33 35 35 35 32 32 33 36
6 7 9 12 14 17 24 26 25 22 31 33 35 38 37 25 26 30 27 26 24 21 17 12 8 15 16 15 17 19 21 23 23 25 25 16 17 21 26 28 31 32 34 35 35 34 35 35 34 35 35 33 38 39
8 6 6 9 14 14 14 22 23 29 32 31 32 34 30 31 31 28 24 18 14 7 4 4 5 9 12 14 14 16 18 19 17 15 14 15 11 14 16 20 23 26 28 32 28 30 28 29 32 35 35 36 35 38
15 15 14 12 13 15 15 16 22 26 27 27 29 30 28 22 22 19 16 13 11 7 7 8 9 10 10 11 13 11 15 19 16 13 13 14 15 13 9 11 17 18 26 21 24 31 30 30 31 34 34 35 37 37
13 16 15 16 16 17 18 17 17 20 20 20 19 19 19 16 15 14 14 12 11 9 9 6 9 12 11 13 11 10 20 19 17 19 19 17 18 19 17 13 15 23 24 22 23 27 28 29 32 34 33 39 38 38
11 12 17 17 15 15 19 20 19 19 17 15 14 15 16 15 14 14 16 17 17 13 9 8 5 6 8 8 7 7 11 13 13 13 20 24 24 19 16 16 21 23 24 25 25 28 30 32 33 34 33 33 32 33
10 16 19 20 15 18 21 22 21 17 21 18 15 16 19 20 22 23 21 17 15 11 8 4 4 4 4 7 6 2 5 6 6 9 7 6 7 11 15 18 20 24 27 27 28 30 29 28 29 27 26 28 28 29
13 15 18 21 22 24 26 27 25 24 22 20 16 18 25 25 23 19 16 14 10 6 5 4 4 4 2 3 3 3 3 2 1 0 2 3 3 5 7 10 13 15 16 17 19 22 24 26 29 30 31 32 33 34
18 18 16 17 21 28 32 32 31 27 23 19 16 23 24 21 19 15 13 11 9 10 10 9 11 10 9 7 5 3 2 3 5 7 9 11 12 14 16 18 20 23 26 28 30 33 35 36 38 40 41 42 43 44
28 28 27 29 29 35 37 33 32 28 19 16 24 26 21 17 13 9 9 8 17 14 10 6 4 3 2 4 5 8 10 13 15 18 20 22 24 26 28 30 32 34 36 38 39 41 42 44 46 48 49 50 51 52
29 33 34 37 37 37 35 30 26 20 23 28 24 20 15 12 13 17 17 15 9 5 4 5 6 9 12 14 16 18 20 23 26 28 31 33 36 38 40 41 41 40 40 41 43 45 48 49 50 51 52 52 53 53
28 28 29 28 30 32 32 33 32 29 26 22 17 15 16 16 14 11 8 5 3 5 9 12 15 17 19 21 24 27 30 33 36 39 43 46 48 47 45 42 40 38 38 39 41 42 44 45 46 46 47 47 47 46
29 31 27 23 22 24 23 23 22 20 19 19 16 12 11 9 6 5 4 6 9 12 15 18 20 22 25 28 31 34 38 43 47 50 50 49 46 42 39 37 36 36 36 36 36 35 34 33 32 32 32 32 32 32
26 25 24 21 21 22 22 21 19 15 14 14 11 7 4 2 3 6 10 13 15 18 20 23 25 27 30 34 37 42 46 51 52 50 44 40 38 36 34 32 31 30 28 26 24 24 23 23 23 22 21 21 20 20
19 20 17 16 15 14 12 13 12 10 7 5 3 2 4 7 10 13 16 19 22 23 24 25 27 30 34 38 42 48 53 53 47 40 35 34 34 32 30 28 26 25 23 22 21 22 21 21 21 20 19 17 14 13
16 15 14 13 11 10 9 8 7 5 4 3 3 6 10 13 16 19 21 23 25 24 25 27 30 33 37 42 46 51 52 45 38 33 32 33 29 24 22 22 21 21 21 21 21 21 20 19 16 11 10 12 14 15
14 13 11 10 9 8 8 6 5 4 4 6 9 12 15 18 20 22 25 28 28 28 29 32 34 38 41 45 48 51 48 40 33 29 27 27 23 18 16 15 14 14 15 15 14 10 8 7 9 11 12 14 16 18
18 15 12 10 11 9 7 6 5 6 8 9 13 16 18 21 24 26 28 31 31 30 33 35 39 43 45 47 48 50 45 36 29 26 24 20 19 16 13 11 8 6 5 5 5 6 8 10 12 14 16 18 19 21
22 18 16 13 12 10 9 9 10 11 12 14 17 20 23 25 27 29 31 32 32 33 36 38 43 46 46 48 50 48 41 32 26 22 20 16 14 12 10 8 7 6 6 8 9 11 12 14 16 17 19 20 22 25
25 23 20 17 14 13 13 14 15 16 17 19 21 25 27 29 30 32 32 33 34 36 39 42 44 46 48 50 51 46 35 28 24 21 19 15 12 10 10 10 10 11 12 13 14 14 16 17 18 20 21 23 25 28
27 26 23 20 19 19 18 18 19 20 21 24 27 30 31 32 33 34 34 35 36 39 41 43 45 47 50 51 46 36 27 24 21 19 19 16 15 14 14 15 15 15 15 15 16 17 18 19 20 22 24 26 28 31
30 30 28 24 22 21 22 24 24 24 26 30 31 32 33 33 34 35 36 36 38 40 42 44 46 49 51 45 36 28 24 22 21 18 18 17 17 17 17 17 17 16 16 17 17 18 19 20 22 24 26 29 31 33

GFSWCAN_500_spd_075.txt.gz
Wind_Speed
18 20 22 26 25 25 26 27 28 30 33 35 36 32 30 27 26 29 31 38 46 41 36 30 25 25 24 23 21 21 23 28 28 28 30 28 25 23 25 23 24 23 22 19 15 11 10 13 18 20 23 29 47 42
19 22 26 32 32 31 34 35 32 29 33 32 40 36 34 31 30 27 33 37 43 42 35 29 27 24 23 24 25 23 22 28 31 31 31 27 26 24 25 26 26 23 20 18 17 14 16 19 20 21 20 19 21 29
18 23 28 32 35 29 26 25 29 26 30 28 42 41 39 37 36 37 38 38 39 36 32 30 28 27 27 27 27 25 23 28 33 31 30 30 30 28 28 29 29 28 26 23 21 20 20 22 24 23 22 23 22 24
19 24 27 28 28 27 24 21 19 26 28 26 38 45 43 42 41 40 37 36 37 35 36 34 32 30 29 29 26 25 23 26 31 32 31 32 32 31 30 31 31 32 31 30 30 28 26 27 29 29 28 27 27 25
20 22 27 29 26 28 21 14 14 21 25 25 31 44 44 43 45 43 40 40 39 37 39 37 33 32 29 28 24 23 23 24 28 30 32 32 33 34 34 34 34 35 35 36 37 36 34 32 34 36 36 33 30 29
20 24 29 27 27 26 19 9 10 20 26 26 27 35 39 41 41 41 42 41 38 37 38 33 33 32 30 28 26 23 20 22 25 28 29 31 29 33 35 36 35 36 37 39 40 40 40 40 41 40 41 41 37 36
19 26 29 27 30 29 17 7 13 22 29 31 29 26 32 36 35 36 38 33 35 36 36 35 33 31 28 31 30 28 27 26 28 30 30 29 31 33 34 34 32 33 35 39 41 40 41 43 45 46 45 44 41 33
17 27 25 28 33 31 12 16 18 28 31 34 31 25 22 29 34 34 31 29 25 22 19 16 17 19 21 21 22 26 26 22 19 20 25 30 31 33 34 32 31 29 32 35 38 42 42 40 42 45 45 43 36 31
16 25 23 30 32 31 29 28 23 33 32 34 35 28 31 27 25 25 24 19 15 16 16 18 19 18 21 21 21 18 19 25 22 26 23 26 26 27 28 30 31 33 36 36 37 37 33 27 28 34 39 38 38 39
16 19 21 25 32 27 28 32 37 35 32 33 34 32 32 30 30 27 23 21 18 18 18 16 15 19 17 16 28 33 28 30 26 27 29 25 29 32 31 28 27 32 32 32 35 32 28 29 30 34 34 37 35 38
13 15 19 19 24 28 28 36 33 32 40 40 32 36 35 31 31 30 25 21 18 21 19 23 12 10 16 14 27 36 32 29 29 30 33 32 25 22 23 26 26 29 31 32 33 35 32 28 27 32 31 34 30 33
9 12 15 17 18 24 27 29 36 33 30 29 32 35 29 23 22 24 21 17 16 13 20 23 18 15 18 28 25 32 33 33 24 19 22 20 18 24 29 30 29 30 30 30 30 32 32 32 33 31 32 32 27 29
7 10 13 14 15 16 19 22 24 27 30 26 26 30 31 26 26 26 23 20 22 22 19 14 12 13 20 19 17 20 21 22 22 24 25 24 24 25 25 28 32 33 35 38 35 33 32 33 35 36 31 32 31 32
6 7 8 11 12 17 20 24 23 22 25 34 36 29 25 30 24 20 21 23 21 19 16 12 10 11 14 16 17 16 16 20 23 24 25 24 20 21 21 21 23 23 25 28 32 32 30 32 31 31 31 31 35 35
10 10 9 10 16 16 23 24 26 30 35 34 29 22 27 25 25 26 23 19 9 9 6 4 6 9 13 13 14 15 17 23 24 17 13 14 15 16 18 20 21 22 21 25 28 30 28 30 30 32 33 35 32 33
13 13 14 12 15 21 20 24 25 26 27 29 25 18 18 21 18 14 10 6 5 2 0 3 5 9 10 11 12 14 16 11 9 13 16 18 22 20 19 22 24 23 22 22 27 28 28 29 31 32 34 32 32 34
14 15 15 18 15 19 22 21 20 19 19 16 14 15 12 11 10 9 9 6 4 5 5 3 2 2 5 10 10 8 8 12 16 17 20 24 24 25 28 32 30 26 22 20 19 26 27 29 31 33 33 35 38 39
14 18 20 20 19 18 18 19 19 18 17 15 15 15 13 11 10 9 8 8 9 6 3 2 3 4 7 8 9 10 8 8 10 13 14 15 15 13 13 15 16 16 17 20 25 29 31 34 35 34 33 33 33 33
19 21 25 24 20 21 20 17 14 13 13 12 14 15 14 13 15 14 12 8 4 1 3 3 3 5 5 6 4 5 4 5 5 6 8 9 10 11 12 13 14 15 17 19 22 25 27 29 31 32 33 33 35 36
24 26 24 23 23 21 21 19 18 14 13 16 18 18 18 16 14 12 10 7 7 9 8 7 5 3 2 1 2 3 5 8 10 13 15 18 20 21 23 24 26 27 28 30 32 34 36 37 39 40 40 41 43 44
26 31 29 27 25 23 23 23 20 18 14 19 20 18 17 15 12 9 7 4 7 8 4 2 3 5 8 10 12 14 17 19 21 24 26 28 30 31 33 34 35 37 38 39 41 42 44 45 47 47 48 49 50 50
33 36 36 33 30 28 27 24 19 14 16 23 20 16 12 8 5 7 7 9 4 1 6 9 12 15 17 20 22 24 26 27 29 31 34 36 38 39 41 41 41 41 42 43 44 45 47 47 48 48 48 49 49 49
37 39 37 34 30 28 26 22 14 16 24 19 14 9 6 9 9 7 4 0 4 8 13 16 19 22 24 26 28 30 32 35 37 40 42 46 49 49 46 42 40 39 39 40 41 42 42 43 43 43 42 42 41 40
36 34 31 27 24 22 20 18 20 19 13 9 8 9 9 7 3 2 5 8 12 15 17 20 23 25 27 30 32 35 37 40 43 46 50 51 47 41 36 34 34 35 34 34 34 34 33 31 30 28 26 25 25 25
27 27 26 24 22 22 21 18 14 11 12 12 9 6 3 1 3 7 10 13 17 19 22 25 27 29 31 33 33 36 39 44 48 51 49 42 36 33 33 33 33 31 29 27 25 23 22 21 20 20 20 20 20 20
27 26 24 23 21 20 18 17 16 12 9 7 4 1 3 6 10 13 16 19 22 25 27 28 30 30 31 33 37 41 44 49 50 47 41 35 30 29 30 28 26 23 21 20 20 19 19 20 20 20 21 20 17 13
23 22 19 17 14 13 11 10 8 7 4 2 1 4 8 12 15 18 21 23 25 28 31 33 32 32 34 38 42 45 48 48 47 44 37 30 27 26 25 23 20 18 16 15 15 16 16 17 17 15 11 10 12 13
16 14 13 12 11 10 9 7 5 3 3 3 5 8 12 15 18 21 23 26 28 31 33 33 33 34 38 42 45 48 49 49 47 40 31 26 24 22 19 18 15 13 11 10 9 9 8 7 8 9 11 13 14 16
13 12 9 8 9 8 7 6 5 5 6 8 10 13 16 19 22 25 27 29 31 33 34 35 35 38 42 45 48 50 50 49 42 33 26 23 21 20 17 16 14 11 9 8 7 6 7 9 11 13 15 16 18 19
15 13 12 10 9 10 9 9 10 12 13 13 15 17 20 24 27 29 31 32 34 35 36 36 39 42 45 48 50 50 50 44 34 26 22 19 18 17 15 12 11 11 11 11 11 12 13 14 15 17 18 19 20 22
18 17 16 16 14 13 13 14 16 18 19 20 21 23 25 28 31 33 34 34 36 38 38 39 41 44 46 49 49 50 43 36 28 23 21 19 17 16 15 14 14 15 16 16 16 16 17 17 18 19 20 21 22 24
23 21 21 21 20 19 19 18 19 20 22 25 27 28 30 33 35 35 35 37 38 38 39 41 43 45 46 47 49 43 34 30 26 24 22 20 18 17 17 17 17 17 18 18 19 19 19 19 20 21 22 24 26 27
29 27 27 29 27 24 22 21 22 23 25 27 30 32 34 36 36 36 37 38 39 39 41 42 43 44 45 48 45 36 31 29 27 25 23 21 19 18 18 18 19 19 20 20 20 20 21 21 22 24 25 27 28 30

GFSWCAN_500_spd_078.txt.gz
Wind_Speed
17 18 17 18 20 26 29 29 31 32 29 27 27 28 26 32 31 29 26 27 30 28 32 34 37 37 32 26 22 20 17 20 25 25 24 23 26 21 19 17 19 22 23 25 24 23 23 21 22 23 23 23 28 35
17 17 16 20 25 27 30 28 27 30 34 32 30 29 27 32 29 27 22 23 28 30 31 36 37 32 25 22 21 18 18 19 25 26 25 27 25 23 21 21 21 19 18 19 20 19 18 18 16 11 11 12 13 16
16 16 20 23 29 32 35 33 30 28 28 34 32 29 30 33 28 23 17 24 26 26 34 37 30 24 21 17 16 17 19 22 24 28 30 30 26 25 24 21 21 21 21 23 22 22 21 20 20 18 15 14 15 15
15 20 22 30 34 32 30 28 30 26 22 28 29 30 34 34 28 20 23 26 30 34 33 30 26 21 16 17 17 19 20 22 25 28 33 30 26 25 26 25 24 24 24 24 24 22 21 24 23 23 23 23 23 25
18 21 27 34 33 32 27 24 21 18 19 26 30 28 37 37 33 28 25 32 32 31 29 25 21 19 19 17 18 20 20 23 26 27 31 30 27 26 26 26 24 25 26 26 27 27 28 30 30 30 31 31 31 31
16 23 32 32 37 36 33 26 15 15 23 30 30 28 39 39 37 34 32 32 29 28 26 25 22 22 20 20 19 18 18 23 27 26 24 25 27 26 28 28 28 27 28 29 29 30 32 33 34 35 37 38 37 37
19 26 29 35 35 26 8 12 18 21 29 29 28 29 38 39 37 33 32 27 28 28 28 26 23 20 22 22 21 19 22 25 26 27 26 24 27 29 30 29 25 26 28 30 31 33 34 36 37 38 39 40 40 42
19 25 28 30 27 22 17 20 21 32 32 28 27 30 33 35 35 34 31 29 27 28 29 26 24 24 22 19 18 19 23 26 27 27 24 23 24 25 29 26 22 24 29 31 32 34 35 36 39 40 43 45 47 48
18 22 26 27 21 15 15 24 35 36 32 31 29 34 36 34 31 27 24 24 24 27 29 26 24 23 22 20 16 14 14 19 25 29 28 27 24 30 27 23 25 25 27 30 33 35 37 39 40 41 40 40 37 39
16 19 23 23 24 28 28 29 34 31 28 28 30 36 35 29 27 26 25 24 23 24 23 21 20 19 16 16 17 18 18 21 27 28 27 27 29 27 25 22 22 24 29 32 35 38 41 39 38 33 33 39 37 34
13 16 19 23 19 19 23 29 29 30 28 29 35 35 33 31 30 29 27 24 22 19 17 14 14 17 14 18 22 27 21 22 27 29 29 31 29 28 26 27 27 28 30 32 33 34 34 36 36 37 35 33 32 28
11 14 16 17 17 17 20 28 30 31 30 30 29 31 33 33 28 25 23 22 21 18 18 17 14 17 16 15 28 31 23 26 28 26 23 24 21 23 24 24 26 28 31 35 37 37 38 37 35 35 34 35 32 27
9 12 12 14 19 24 23 25 27 36 30 28 28 29 28 26 24 23 22 21 19 22 23 16 12 11 16 16 11 29 30 29 21 23 27 21 20 22 24 27 30 32 35 37 38 40 38 38 37 35 36 38 38 36
7 10 12 11 16 18 18 21 22 26 23 24 20 21 27 29 26 23 21 22 24 21 17 13 11 11 16 17 20 15 16 18 20 20 22 23 23 26 27 30 31 31 31 29 29 30 31 35 39 37 36 37 37 33
9 9 15 15 19 23 24 18 24 25 27 27 26 24 30 27 25 28 27 22 18 15 12 11 11 13 14 15 16 16 18 18 17 17 22 24 26 22 21 23 25 25 28 29 30 32 32 31 32 35 35 35 36 35
13 12 16 18 18 20 26 26 33 33 30 22 23 24 25 24 23 21 16 9 10 10 10 9 8 10 11 12 12 13 14 13 14 15 13 16 19 20 22 27 27 28 30 30 31 32 30 31 29 31 34 34 36 37
19 17 17 21 29 31 28 26 27 23 20 20 19 22 23 20 13 7 5 5 7 11 9 7 5 4 2 4 7 10 12 12 12 14 17 20 25 27 29 30 32 34 35 37 36 32 28 26 23 28 34 38 37 40
21 22 20 20 24 24 24 22 18 16 14 13 15 15 13 10 9 8 6 8 6 6 4 3 2 2 3 5 7 7 6 8 11 15 18 17 15 14 16 18 18 17 17 20 22 23 24 25 27 30 33 36 38 38
24 23 26 25 22 20 19 19 17 15 13 12 12 10 9 9 9 9 9 8 7 6 4 2 2 5 6 7 7 7 7 8 9 11 14 16 19 21 23 25 25 26 26 27 27 27 27 28 29 31 33 35 37 38
29 27 25 25 24 22 19 17 15 13 15 16 16 16 17 17 15 12 8 5 7 9 9 7 8 8 9 9 10 12 13 15 17 19 22 24 26 28 30 31 32 32 32 34 35 37 38 39 40 40 41 42 44 44
31 30 26 23 22 21 18 16 15 17 21 21 21 19 16 13 11 8 6 8 10 12 9 7 7 9 12 14 17 19 21 22 24 25 27 27 28 30 32 34 36 37 38 39 41 42 43 44 45 46 46 47 47 48
35 29 25 25 24 23 20 18 17 21 21 20 17 16 13 9 5 5 5 5 4 4 6 10 13 15 17 19 20 21 23 26 27 29 32 35 38 41 43 44 42 39 37 39 41 43 44 45 44 44 44 43 43 43
33 30 28 28 27 25 23 20 20 21 18 15 12 9 6 8 8 8 3 3 6 8 11 13 15 17 19 22 26 29 31 32 34 37 41 43 48 51 48 43 40 37 35 34 34 35 37 38 39 39 39 38 37 36
35 32 31 30 27 23 19 16 19 21 15 11 8 9 10 8 5 1 3 6 9 11 14 17 21 24 26 28 30 30 32 35 39 43 46 51 49 43 40 37 34 32 32 32 32 32 31 29 28 27 27 26 25 24
34 31 29 27 25 20 16 19 20 13 9 13 13 9 5 2 1 5 8 10 13 17 21 24 26 28 31 32 32 34 37 41 44 49 51 47 44 40 35 31 29 28 28 25 23 22 21 21 20 20 19 19 20 20
28 26 24 23 20 19 17 15 14 14 10 9 7 5 2 3 6 9 13 17 20 22 24 26 29 31 33 34 35 37 41 46 51 52 49 46 40 33 28 26 25 24 22 20 18 17 17 16 17 17 18 19 19 18
26 25 23 21 17 16 16 15 12 10 8 6 4 0 4 7 11 14 17 20 23 26 28 30 31 34 36 37 39 42 46 51 52 51 48 40 32 26 22 22 19 18 17 16 14 13 12 12 13 13 12 11 10 11
25 23 22 20 18 16 12 9 8 6 4 2 3 6 9 13 16 19 22 24 27 31 32 33 35 38 39 40 42 46 50 51 51 48 41 33 26 22 20 20 18 16 15 13 10 9 7 7 7 7 9 11 13 15
20 18 15 14 12 10 9 7 5 3 4 6 9 12 14 17 20 23 25 28 32 35 36 38 39 40 40 43 45 49 51 50 48 39 34 29 24 21 20 19 17 14 12 11 11 11 11 12 12 13 14 15 17 18
16 14 11 9 8 7 7 6 7 8 10 13 15 17 20 22 25 27 30 33 36 38 40 41 41 41 42 45 48 50 48 48 40 33 30 28 25 22 20 19 18 17 16 15 16 16 16 17 17 18 18 19 20 21
15 13 12 11 10 9 9 11 12 14 16 17 20 21 23 26 28 31 34 37 38 40 41 41 42 43 45 47 50 48 48 44 35 31 29 27 25 23 20 19 19 19 19 19 20 20 20 21 21 21 21 22 22 23
16 16 15 15 15 15 16 16 18 19 20 20 21 23 26 28 29 34 37 39 40 41 41 42 43 44 47 49 48 48 47 39 33 31 29 27 25 23 22 21 20 20 20 20 21 21 22 22 22 23 23 23 25 26
22 22 23 23 23 23 22 22 21 22 24 25 26 28 29 31 33 37 39 40 41 41 41 42 44 46 48 47 47 48 42 35 32 30 27 25 24 23 22 21 21 21 21 21 21 20 21 21 22 23 24 25 26 28

GFSWCAN_500_spd_081.txt.gz
Wind_Speed
21 19 18 19 18 20 22 24 26 27 25 25 26 26 28 29 24 23 21 26 24 20 24 24 34 31 36 31 23 28 27 21 22 24 23 23 24 23 23 21 19 22 25 25 26 28 29 26 23 23 26 27 30 32
18 19 20 18 19 22 23 27 28 30 28 27 27 28 29 30 27 26 25 24 23 23 22 28 35 34 37 33 28 26 21 19 23 25 24 24 19 23 20 20 20 14 17 18 19 19 23 22 24 23 19 20 22 23
19 20 18 20 22 25 29 32 33 29 27 28 28 28 31 29 29 27 24 23 24 22 25 31 34 35 38 31 23 21 17 21 24 27 21 22 21 19 20 20 21 24 18 20 16 18 17 23 16 21 20 18 17 17
19 18 20 23 27 33 37 37 32 30 29 28 28 27 30 29 26 26 22 20 23 21 28 28 34 36 38 29 21 17 19 25 24 18 19 20 19 21 18 20 22 24 24 24 25 21 25 31 28 24 24 21 20 20
17 19 23 29 36 38 42 43 41 35 28 26 26 30 32 29 25 26 21 23 22 24 26 29 33 37 29 18 14 19 19 25 23 24 20 18 16 16 19 18 21 24 26 24 28 26 28 26 26 22 25 23 24 25
16 21 27 31 36 35 37 32 27 28 22 22 24 34 32 26 28 28 29 29 30 27 25 33 30 24 20 17 16 15 19 22 24 24 21 19 15 15 16 17 22 22 20 25 26 28 28 28 29 28 30 32 32 33
18 22 26 33 31 25 24 5 14 19 21 25 31 35 32 31 30 26 29 30 34 36 34 30 24 20 17 15 16 17 19 22 23 25 23 16 15 18 17 16 21 24 25 25 26 28 29 29 30 33 34 35 37 38
16 19 26 26 22 11 9 11 18 22 29 35 32 30 31 34 33 31 30 32 30 27 25 22 18 16 15 17 17 19 22 22 24 24 22 21 19 16 23 28 25 24 24 24 26 29 30 31 32 33 36 38 40 41
12 18 15 22 22 13 12 25 29 30 32 30 26 31 34 35 34 31 29 29 27 24 21 18 16 17 15 16 16 18 22 25 27 26 23 22 22 25 26 21 18 20 24 26 30 32 33 34 35 36 38 40 43 45
8 14 16 18 15 23 27 25 22 21 23 24 27 34 37 34 32 30 25 22 23 24 21 20 20 20 18 16 17 18 23 28 26 25 25 27 26 26 26 24 23 24 25 26 29 33 35 37 38 38 40 42 44 44
8 8 10 13 15 18 20 22 23 19 25 32 37 39 37 32 30 27 27 24 21 20 19 18 17 17 16 17 17 20 22 24 26 27 32 33 31 29 25 26 21 19 22 27 31 34 36 38 41 42 40 38 37 38
8 10 11 12 14 18 20 21 22 23 25 26 28 33 32 30 28 26 24 22 20 19 18 17 17 18 20 19 21 23 21 20 18 22 26 31 28 25 22 25 28 32 35 33 35 40 41 41 41 41 41 42 43 41
7 12 15 17 18 22 24 26 27 30 30 30 32 30 29 28 27 25 23 20 19 19 18 16 14 16 16 14 15 19 23 25 24 19 21 20 17 20 22 24 28 32 34 37 38 38 39 39 40 41 44 47 45 41
8 9 12 13 15 19 20 27 26 29 32 30 30 30 28 27 25 22 20 19 17 18 18 11 10 9 13 14 12 21 29 27 24 25 19 21 24 24 24 28 31 33 35 36 37 38 37 37 37 34 34 35 37 44
13 10 14 16 16 22 30 21 20 26 24 23 23 24 25 26 25 22 21 19 18 18 15 12 12 13 12 12 11 12 12 16 16 14 17 21 24 28 32 35 35 36 34 34 34 34 35 38 40 41 40 36 35 34
14 14 18 20 24 20 21 21 20 20 20 22 26 26 26 28 28 25 21 17 14 13 10 9 9 11 13 13 12 14 16 15 17 19 21 23 24 24 26 28 28 31 33 37 40 40 42 41 43 40 40 39 33 32
15 14 18 20 22 19 24 26 27 25 23 24 25 25 28 26 21 16 14 12 10 8 7 7 7 8 9 9 9 10 12 14 15 17 17 18 20 23 27 30 34 33 26 23 24 27 32 36 37 34 32 29 30 30
22 21 25 28 29 30 31 27 25 25 24 25 25 26 20 14 10 9 9 9 10 12 9 7 5 3 3 3 3 4 5 7 11 13 15 15 16 17 18 21 23 25 28 29 30 29 28 27 27 27 28 29 30 31
28 31 29 26 26 25 23 22 19 18 20 20 19 16 11 10 8 8 10 10 10 9 6 3 2 5 7 8 8 9 10 11 13 15 17 20 23 26 28 31 33 34 35 35 36 36 37 37 36 35 35 35 35 36
31 30 31 27 22 21 19 18 15 14 14 14 13 11 11 13 13 10 8 7 8 9 12 11 10 9 9 9 11 14 15 17 19 21 23 25 27 29 30 31 33 34 36 37 38 39 40 42 42 43 43 43 43 42
32 30 27 24 21 17 16 14 14 14 15 16 18 19 18 16 13 12 13 13 13 12 10 8 8 9 11 13 15 16 17 18 20 22 24 26 29 33 35 38 43 46 46 43 41 40 42 45 46 46 46 46 47 47
34 31 27 25 23 20 18 18 20 23 22 21 18 16 14 11 8 9 10 8 7 6 6 7 8 10 12 14 17 20 22 24 26 28 31 35 38 40 48 50 48 44 41 39 38 37 36 37 39 40 41 42 43 43
32 30 28 26 24 23 23 24 24 23 20 18 15 11 9 12 13 10 5 3 5 5 7 9 11 15 18 21 24 26 27 29 32 34 39 40 46 52 51 47 44 42 39 37 34 33 33 34 36 37 37 37 36 35
31 29 28 26 24 23 23 23 23 20 17 13 11 15 15 12 8 4 1 3 5 8 11 15 18 21 23 26 29 30 31 34 37 42 43 51 53 50 47 44 40 36 33 30 30 30 30 29 29 28 27 26 25 25
30 29 28 26 23 21 20 21 19 16 14 14 16 14 10 6 4 1 3 7 10 14 17 20 23 25 28 30 33 34 36 39 44 45 53 53 50 47 42 37 32 27 25 25 25 25 24 23 23 22 21 20 20 20
30 28 28 24 20 20 23 21 16 16 18 14 11 9 6 3 1 5 8 12 15 18 22 25 28 30 32 35 37 37 39 44 47 53 53 50 47 40 35 29 24 23 21 20 20 19 18 17 17 16 16 17 18 19
28 27 25 22 21 22 20 16 17 15 12 9 8 6 2 3 7 10 14 17 20 23 26 29 32 34 36 38 39 40 44 47 52 54 51 47 38 34 29 25 22 21 20 19 18 16 14 13 12 13 13 13 13 12
27 27 25 23 20 19 18 14 13 11 9 6 4 2 6 9 12 14 17 20 24 27 31 32 35 37 39 40 41 43 47 52 53 50 49 40 33 29 27 24 21 20 19 17 16 15 14 13 12 11 11 12 13 15
26 24 23 22 20 18 16 13 9 7 5 3 4 7 10 13 16 18 21 24 28 31 35 35 37 39 41 42 43 47 52 53 50 49 44 36 31 29 26 24 22 20 19 17 16 16 16 17 17 17 17 18 19 20
21 19 18 16 15 13 10 9 8 6 6 8 10 13 16 18 19 22 24 27 30 33 36 38 40 41 43 43 47 50 53 49 49 47 39 34 31 29 26 24 22 21 20 20 19 19 20 20 21 21 22 22 23 23
19 18 16 14 12 10 9 9 9 10 12 14 16 18 20 22 23 25 28 31 34 37 39 41 42 43 43 45 49 52 49 49 49 43 36 33 30 27 26 24 22 21 21 20 21 21 21 21 22 23 23 23 24 24
18 16 15 13 12 12 13 13 14 16 17 19 21 23 24 26 27 30 32 34 38 39 41 42 43 43 44 49 51 48 47 49 45 38 34 30 27 25 24 23 22 22 21 21 21 21 21 21 21 22 22 22 23 24
17 17 18 19 19 18 19 20 20 21 22 24 25 27 28 30 31 34 34 38 40 41 42 42 42 44 48 50 47 46 47 47 39 34 30 27 26 25 24 23 23 22 21 21 20 20 20 20 20 21 21 22 23 25

GFSWCAN_500_spd_084.txt.gz
Wind_Speed
32 28 25 21 21 22 22 22 22 22 22 21 20 18 18 18 19 21 14 15 17 24 23 25 26 23 37 39 29 27 21 22 27 22 17 21 20 21 21 18 12 17 22 29 30 32 33 29 28 25 25 25 29 31
30 26 24 23 25 25 23 24 25 23 24 25 25 23 21 20 22 25 24 16 13 21 20 25 29 26 35 40 37 25 21 24 25 19 24 22 23 21 20 23 22 16 14 17 20 17 19 23 26 30 28 29 28 26
27 25 25 26 26 25 27 28 29 30 31 32 30 25 27 25 25 27 26 21 23 20 23 25 24 25 37 42 40 25 17 19 18 19 25 24 24 20 19 20 17 18 15 9 14 11 11 12 22 25 25 29 27 25
24 24 25 25 26 28 31 35 39 41 39 35 30 26 27 28 25 29 29 25 26 21 20 18 24 28 37 42 36 25 24 22 22 21 23 22 22 19 19 18 22 16 16 21 21 20 10 15 20 17 21 22 25 24
21 22 24 24 29 36 42 45 45 44 40 36 32 27 28 23 25 28 28 23 19 21 15 23 25 32 34 42 31 24 24 22 25 23 20 20 21 20 20 18 25 26 29 26 28 29 22 23 25 27 29 25 26 25
19 19 21 29 35 36 41 41 36 38 39 37 35 29 27 27 28 31 31 26 23 20 13 19 22 31 32 40 29 23 21 25 26 30 27 20 20 18 16 16 21 23 26 27 29 32 38 32 34 29 29 33 31 29
15 17 24 29 29 31 22 20 17 12 21 29 32 28 29 31 29 29 24 19 25 24 24 15 16 25 31 35 22 24 23 21 24 26 24 22 17 18 16 19 18 21 27 27 30 33 33 34 34 35 35 34 34 34
11 16 19 21 23 19 15 7 5 15 23 27 29 30 32 31 28 24 26 29 33 31 27 23 17 26 30 24 23 22 22 23 26 27 23 22 20 21 23 24 22 20 24 26 30 32 29 31 33 35 35 35 35 36
7 10 15 15 11 15 15 10 12 18 24 30 34 35 34 30 25 27 32 34 34 31 30 28 20 16 15 18 20 19 19 22 22 21 21 19 21 26 26 24 27 30 28 26 28 29 29 30 32 34 35 35 37 39
5 6 10 7 5 10 16 19 25 28 32 27 28 32 31 27 31 31 32 35 32 29 27 23 19 17 17 17 17 19 18 20 23 25 22 24 25 26 27 25 20 22 25 27 29 30 30 33 34 35 36 37 38 40
4 3 6 4 8 11 15 17 19 20 20 25 30 31 34 36 34 32 31 28 27 24 20 19 15 17 17 16 16 17 20 21 23 22 22 23 24 25 26 25 23 24 26 27 32 35 35 36 36 37 38 38 38 40
2 2 5 7 8 11 11 17 20 19 19 23 28 36 38 35 32 30 27 25 21 18 17 16 16 15 16 16 17 17 19 20 22 22 24 29 26 24 24 23 20 22 25 28 32 35 38 40 41 42 41 42 43 43
7 9 10 13 12 10 18 23 27 29 34 34 33 34 32 30 27 25 22 21 19 18 18 17 17 16 17 14 11 15 20 22 22 23 23 19 19 19 22 26 30 29 27 29 31 33 36 39 40 42 44 43 44 42
11 12 17 20 15 16 21 27 33 30 25 25 29 31 30 26 21 17 16 17 19 19 17 14 12 12 12 14 14 11 13 18 21 21 19 19 19 19 22 24 26 30 31 32 34 37 40 42 43 43 44 43 42 42
13 12 13 16 17 17 22 25 25 17 17 20 24 24 23 23 24 22 20 18 17 17 13 10 10 11 12 11 9 6 7 11 16 19 24 27 22 22 24 28 30 33 36 38 38 42 41 38 39 41 42 44 44 44
15 15 14 18 21 21 23 26 23 20 19 22 23 24 23 21 20 18 17 18 20 15 11 9 9 10 9 10 8 9 10 10 14 17 18 21 24 27 30 32 33 32 33 35 37 39 42 43 38 40 44 47 48 50
17 19 20 23 22 16 20 18 20 20 20 23 24 24 24 24 21 20 18 15 13 10 9 8 6 5 5 7 9 11 12 15 16 18 20 22 24 25 27 30 32 33 33 32 30 29 33 35 35 35 34 31 30 31
21 20 26 20 20 21 19 22 21 23 25 26 31 30 25 21 18 15 13 11 9 6 5 5 4 4 4 6 7 8 5 5 6 9 11 14 16 18 21 24 27 30 32 33 35 36 37 38 38 38 38 38 37 37
20 24 24 22 25 27 29 27 27 26 25 28 26 21 15 12 11 11 10 9 9 8 7 5 4 3 4 3 1 5 9 12 14 17 19 21 24 26 29 31 33 35 37 39 41 43 44 45 45 45 44 44 43 42
26 28 31 33 30 28 27 26 25 25 26 23 18 14 11 9 10 12 12 12 11 7 10 11 7 5 5 7 10 11 14 16 18 20 23 25 26 28 30 33 36 38 41 45 47 48 47 46 45 45 46 46 46 46
33 31 26 25 24 22 22 22 21 20 18 16 12 11 13 15 14 13 13 15 18 13 8 5 5 6 7 8 9 12 16 19 21 23 25 28 30 36 36 40 47 49 49 47 45 44 43 42 41 40 41 41 42 42
34 30 26 22 21 19 17 15 15 16 16 16 18 20 17 16 17 17 15 11 8 6 5 3 3 5 8 13 16 19 23 26 27 30 31 36 40 40 47 50 50 48 47 46 45 43 40 38 36 35 35 36 37 39
32 30 26 20 19 18 17 17 20 24 24 21 20 17 15 16 16 12 7 5 4 3 2 5 9 13 15 19 22 26 28 29 31 33 38 41 44 50 49 47 46 45 43 41 37 34 31 30 30 30 31 32 32 33
29 26 24 22 20 19 21 25 25 23 21 18 15 16 18 16 11 7 5 2 3 5 9 12 15 17 20 23 27 30 32 33 34 39 42 47 50 48 47 46 42 39 35 31 27 25 24 25 26 26 26 25 25 24
28 26 24 22 22 24 26 25 22 20 17 15 18 17 13 10 7 4 2 3 6 10 13 16 19 22 25 29 32 34 36 36 39 43 49 51 48 47 45 39 35 32 29 25 23 22 21 22 22 21 20 20 19 18
27 25 24 23 24 25 24 21 18 16 16 18 16 12 9 6 3 1 2 7 10 13 16 20 25 27 30 33 36 37 39 40 44 49 52 49 48 45 39 33 30 29 26 24 23 21 19 19 18 17 16 16 16 15
27 26 25 22 21 22 23 20 16 16 17 14 11 9 6 3 1 4 7 11 14 18 22 25 30 31 34 37 39 40 41 44 49 52 50 49 48 42 35 31 29 27 25 23 22 20 18 18 17 15 14 13 13 12
27 25 22 20 22 24 20 16 17 16 14 11 8 6 3 2 5 9 12 15 19 23 25 28 32 35 38 39 41 42 43 48 53 51 49 49 44 38 33 31 28 26 24 23 21 20 19 18 17 17 17 17 18 18
25 24 22 22 22 19 17 16 13 11 10 9 7 6 6 7 11 14 17 20 23 26 29 31 35 38 40 42 43 43 46 51 52 49 49 46 40 35 32 29 27 25 24 22 22 21 21 20 20 20 21 21 22 23
25 24 21 19 19 18 17 16 15 13 10 8 7 8 11 14 16 19 22 24 27 30 33 36 39 42 43 44 44 45 49 52 50 48 48 43 36 32 29 27 26 24 23 22 21 21 21 21 21 21 21 22 22 23
23 21 20 19 17 17 15 13 11 10 10 11 13 14 16 19 21 23 26 28 31 33 36 38 42 42 43 44 44 48 52 50 48 48 46 39 32 29 27 26 24 24 23 22 21 21 20 20 20 20 20 21 21 22
22 21 19 18 16 14 13 11 12 13 14 16 17 20 22 24 26 28 30 32 35 36 39 42 42 43 44 44 47 51 50 48 47 48 42 34 30 27 26 25 24 23 22 21 21 20 20 19 19 19 20 20 21 21
20 19 18 17 16 14 15 16 17 18 19 20 22 24 26 28 30 32 34 36 37 40 41 42 42 44 44 46 50 50 47 46 47 45 37 31 28 26 26 24 23 22 21 21 21 21 21 22 22 22 23 23 24 25

GFSWCAN_500_spd_087.txt.gz
Wind_Speed
34 34 32 32 27 24 23 22 22 22 22 20 19 16 13 13 12 11 13 13 12 13 22 23 25 29 29 24 29 26 34 29 23 19 17 24 20 19 18 12 11 11 16 22 29 34 36 34 39 41 42 42 35 29
33 32 31 29 25 24 25 25 24 23 22 22 21 19 17 15 15 16 15 15 12 7 12 23 26 30 30 27 31 27 31 27 21 26 18 17 14 19 19 19 9 7 8 12 17 20 20 19 21 22 27 28 28 30
32 29 30 26 24 24 25 25 24 25 26 26 25 24 22 21 21 21 16 16 18 10 9 14 17 22 27 27 36 28 29 19 13 18 19 22 22 17 16 19 18 15 11 10 11 14 15 18 17 23 27 24 28 26
28 27 27 24 24 25 25 26 28 30 32 33 32 30 29 25 25 24 21 25 24 17 12 12 22 23 25 30 41 35 22 25 15 16 19 21 20 20 15 14 21 19 12 13 16 17 16 18 19 20 24 26 32 33
24 25 23 22 23 24 28 33 39 42 42 41 39 35 29 27 29 30 23 24 27 20 17 20 23 25 27 28 36 42 29 22 21 22 23 21 20 20 10 19 20 25 23 17 20 25 21 28 23 30 26 20 24 28
22 21 19 20 24 29 31 37 40 42 42 43 44 39 33 30 31 32 26 26 25 22 18 18 18 21 21 27 34 37 32 25 26 24 22 22 19 11 20 18 20 22 30 20 21 26 21 24 28 26 29 30 27 28
17 16 16 21 22 26 29 29 27 30 30 30 31 35 33 34 30 24 23 22 22 23 20 18 17 13 21 27 29 34 30 28 25 24 26 23 17 17 18 22 15 18 25 30 28 30 30 26 35 40 35 30 29 31
13 12 15 14 16 18 23 14 12 12 6 19 32 32 32 31 30 26 22 25 24 24 22 19 15 10 19 25 36 31 24 22 22 22 25 27 22 20 22 21 24 21 19 18 28 30 33 34 35 37 38 40 39 38
9 10 9 12 10 16 18 6 1 6 17 25 31 34 33 31 28 25 25 25 23 25 25 23 23 14 18 32 34 26 24 25 22 20 24 28 26 24 24 26 26 26 28 27 21 26 30 33 34 36 37 40 40 40
8 7 7 6 7 8 10 15 13 16 22 27 31 31 32 30 28 25 26 29 29 32 30 24 24 9 19 30 29 24 25 25 22 19 22 25 24 26 28 26 26 27 29 30 32 32 32 34 34 34 36 39 39 40
6 3 3 1 3 5 9 15 17 24 27 29 32 33 31 27 27 28 31 32 30 29 29 24 22 17 19 21 22 23 21 17 16 17 17 21 19 21 26 28 29 30 28 27 28 30 34 36 36 36 37 38 39 40
5 4 4 3 3 6 11 14 16 21 25 26 27 28 29 29 29 28 29 30 30 29 27 26 21 19 19 17 16 18 17 16 15 15 19 23 19 20 21 23 26 26 28 30 31 31 32 33 33 34 35 36 38 41
6 7 10 7 8 10 16 17 20 24 29 30 30 31 33 31 28 31 31 30 26 24 22 21 19 19 17 16 16 15 17 17 18 20 19 14 16 15 17 20 24 23 24 28 30 33 34 34 34 35 38 41 43 44
11 13 13 14 16 18 19 24 28 28 27 29 34 35 33 30 29 26 21 17 18 19 20 17 14 13 13 14 13 7 8 11 15 17 15 15 20 19 18 21 21 22 25 28 29 34 38 39 40 41 44 44 45 43
15 16 19 22 30 33 36 36 32 23 24 31 30 29 26 20 19 23 20 18 17 17 16 13 12 13 13 11 10 7 5 6 5 8 15 17 22 25 28 28 28 28 30 33 36 38 40 41 42 42 41 42 44 46
17 17 19 25 32 28 25 25 23 17 20 23 23 22 21 18 19 19 18 19 18 15 14 13 10 8 9 9 6 4 5 7 10 12 15 18 21 24 26 28 31 33 35 36 37 38 39 41 41 41 40 38 37 41
18 17 20 21 26 26 22 19 15 14 19 21 22 22 19 18 18 17 18 21 17 12 9 8 7 7 7 6 6 7 8 10 13 16 18 20 22 25 27 29 30 31 31 31 32 34 37 40 42 43 43 43 44 44
20 20 27 23 27 21 21 19 19 21 23 24 25 26 26 23 22 21 18 15 12 11 9 7 6 5 4 2 4 6 3 3 7 9 11 13 17 20 24 27 30 32 34 36 38 40 43 44 46 47 47 47 48 48
24 25 27 23 24 24 23 22 24 25 27 30 29 25 21 18 15 13 12 11 10 9 8 5 3 4 4 4 2 3 7 10 15 18 20 22 25 28 30 32 34 37 40 42 44 47 48 50 52 53 53 53 52 51
27 27 24 27 23 25 24 25 24 28 31 28 21 17 16 15 13 12 11 11 10 8 5 9 8 5 2 2 6 10 11 12 15 18 20 22 25 27 31 36 38 40 45 49 49 49 47 47 47 47 47 46 46 45
25 24 24 28 28 28 27 24 23 27 22 19 15 13 12 13 14 15 13 12 9 12 10 6 4 5 7 5 5 7 10 15 19 22 23 25 30 36 38 43 47 46 45 46 47 47 47 46 44 43 42 41 40 40
27 31 33 30 28 26 24 23 24 21 17 14 13 13 13 12 12 12 12 13 13 9 6 5 4 2 2 5 10 15 18 21 25 28 28 34 37 41 46 46 45 46 47 46 44 41 39 37 34 32 31 31 32 32
29 27 25 23 23 23 22 20 20 16 15 15 16 15 16 20 17 14 10 10 9 6 2 2 0 5 9 13 17 21 25 28 32 32 34 38 43 47 46 46 46 45 43 39 36 34 31 27 25 24 25 26 27 28
27 24 23 21 20 19 19 19 20 20 22 21 19 17 21 18 13 11 9 6 4 4 1 5 9 12 15 18 22 26 29 32 35 35 38 44 48 47 47 47 47 43 36 32 30 29 26 25 24 22 23 23 22 21
26 22 17 17 18 20 23 25 24 23 21 19 17 19 19 15 11 7 5 5 2 1 5 9 13 18 21 24 27 30 33 37 39 40 43 49 48 48 48 48 45 37 32 30 29 27 25 24 22 20 20 19 17 17
22 20 21 20 21 24 26 25 23 20 18 19 20 18 15 11 8 6 4 1 3 7 12 16 20 23 26 30 34 36 38 41 42 43 49 51 48 48 48 44 38 35 32 29 26 25 24 23 21 20 19 18 16 15
24 22 22 22 24 25 23 21 18 16 18 18 15 12 11 9 6 4 3 5 9 13 17 20 23 27 31 34 39 41 41 44 45 46 51 50 49 49 47 41 35 31 29 28 26 24 23 22 21 20 19 18 18 18
24 24 23 23 23 23 21 17 15 16 17 14 13 11 9 7 6 4 6 10 14 17 21 25 28 32 35 38 42 43 44 46 47 50 51 49 49 48 43 37 32 30 28 26 25 23 22 22 21 21 20 20 20 21
24 24 22 20 22 21 18 15 16 15 13 11 10 11 10 8 7 9 12 16 19 22 26 29 32 35 37 42 44 44 45 47 49 52 49 48 49 45 40 34 30 28 27 25 24 23 22 21 20 20 20 20 20 21
23 21 18 17 20 18 15 16 16 16 15 15 12 9 9 10 12 15 18 21 24 26 29 33 36 37 42 44 44 44 46 48 51 50 48 48 47 42 35 31 29 27 25 24 24 23 22 21 20 20 19 19 20 20
21 19 17 18 18 18 18 17 16 14 13 12 12 12 13 14 17 20 23 25 28 31 33 37 38 42 44 44 44 46 47 51 50 49 48 49 46 39 33 29 27 26 24 23 23 22 21 21 21 21 21 21 21 21
20 20 19 18 18 16 15 13 12 12 13 13 14 15 17 19 22 24 27 30 32 35 37 38 42 44 43 43 44 46 49 50 48 47 48 48 42 35 30 28 26 25 24 23 23 23 23 24 25 24 23 22 23 23
21 21 20 18 16 15 15 15 15 15 16 16 18 20 22 24 27 30 32 34 36 38 39 44 44 43 42 43 45 48 50 48 47 47 49 44 37 31 28 26 26 25 24 24 23 24 26 27 24 23 23 24 25 25

GFSWCAN_500_spd_090.txt.gz
Wind_Speed
37 36 35 33 31 29 28 24 22 20 19 19 19 17 14 11 8 7 10 6 11 18 22 21 23 23 24 24 23 23 22 23 24 23 20 19 21 22 20 14 16 12 12 14 20 32 36 29 34 34 33 33 24 25
37 36 34 33 30 29 27 23 22 21 21 20 19 19 17 16 13 10 12 10 9 9 14 16 19 21 23 25 24 20 23 24 30 9 15 18 17 19 17 22 11 10 14 18 18 22 26 23 29 31 35 36 35 34
37 35 34 32 29 29 25 24 22 22 23 22 21 21 19 19 16 12 14 18 16 11 9 10 21 24 26 24 23 21 26 16 23 14 18 19 17 16 20 25 6 5 10 12 9 9 14 16 18 19 26 27 31 33
36 34 33 31 28 27 25 24 23 24 24 25 26 25 23 23 21 18 15 19 18 17 12 8 12 16 21 24 22 26 20 23 26 19 15 20 14 18 17 17 5 16 17 9 12 12 15 21 22 24 24 28 29 20
33 33 31 28 27 25 24 25 26 27 29 29 30 30 29 27 25 24 19 21 23 20 15 13 15 13 20 20 20 34 26 18 32 20 17 17 13 17 12 16 11 8 22 13 11 19 17 19 20 22 23 29 25 34
31 29 27 25 24 22 24 26 28 31 33 36 37 36 36 33 31 29 25 25 22 25 25 18 14 15 17 19 22 38 36 23 24 24 19 14 15 13 7 20 14 16 20 23 21 12 26 31 29 31 37 32 22 31
28 25 23 21 20 20 22 24 26 31 33 34 34 33 34 37 34 29 22 19 25 24 25 19 20 15 15 21 25 32 42 28 20 21 19 17 21 16 6 13 18 16 17 14 12 19 26 20 19 24 29 29 29 29
23 21 18 17 15 18 19 25 27 24 23 25 29 29 28 33 36 31 26 26 20 21 23 20 14 14 15 19 24 31 37 38 26 22 19 20 24 19 15 14 17 20 21 20 18 14 22 28 26 27 29 29 32 35
20 16 15 12 13 13 16 18 11 9 12 16 24 29 33 36 33 28 24 26 23 22 17 13 14 14 13 17 22 26 32 28 23 19 20 21 24 25 19 19 22 24 28 28 24 23 24 26 26 28 32 34 36 37
17 14 10 7 7 6 7 6 4 9 19 29 35 36 35 31 29 29 23 25 24 21 18 23 18 13 10 9 20 28 25 20 19 20 19 22 25 28 27 25 28 29 31 33 33 33 32 32 32 32 33 36 39 39
16 11 8 6 2 4 6 11 9 15 22 31 33 31 30 31 30 25 25 24 23 26 30 25 18 19 10 3 18 25 22 18 17 20 20 21 20 23 27 27 30 31 29 31 33 34 37 41 43 44 44 43 42 40
14 10 9 9 7 8 9 14 17 20 23 26 28 33 35 32 29 29 27 24 28 33 30 24 24 23 19 13 16 19 18 22 20 17 20 20 16 19 21 22 25 27 31 34 35 36 36 37 37 38 37 36 36 36
13 12 13 11 11 14 13 19 23 29 31 32 34 32 29 29 29 27 27 33 37 29 26 21 18 19 22 20 21 23 20 21 19 16 15 13 15 14 16 19 21 22 24 26 28 30 30 30 33 35 36 37 40 42
15 16 14 11 16 21 19 23 26 27 28 27 28 27 26 26 22 23 26 29 29 28 24 21 17 17 20 18 18 17 14 11 10 8 13 18 17 17 18 20 23 24 24 26 27 28 31 34 36 39 42 44 47 48
19 20 19 18 21 23 22 24 25 25 25 23 22 22 21 21 25 27 26 26 24 23 22 19 19 17 18 16 10 6 4 3 4 6 9 11 14 17 20 23 25 28 30 32 33 35 38 40 42 43 44 44 44 45
27 32 31 32 30 31 27 23 21 21 20 20 22 22 20 19 21 19 19 21 20 19 19 17 13 12 11 8 8 7 5 7 7 9 12 15 18 20 23 26 29 31 33 34 36 37 38 40 40 41 42 43 44 45
38 39 37 35 29 28 24 17 17 18 20 19 18 17 15 18 21 18 19 19 17 15 13 12 11 11 11 9 7 5 5 7 10 11 12 13 15 17 19 22 24 27 30 33 36 39 41 43 45 46 47 48 49 49
28 34 32 28 27 24 20 16 18 20 19 20 21 22 22 20 20 21 23 20 17 15 14 13 11 8 7 5 3 3 3 3 9 11 12 13 16 20 24 28 30 34 37 40 42 45 47 49 51 52 54 54 55 55
29 28 30 27 24 19 15 19 22 25 25 25 24 24 24 26 24 22 19 17 15 13 11 10 8 7 4 3 3 3 5 6 10 15 18 20 24 26 27 28 32 35 38 42 46 48 48 48 48 49 50 51 51 52
29 30 31 26 27 21 21 23 25 27 28 28 26 24 23 21 18 17 15 13 13 12 9 7 9 8 6 4 3 3 8 10 13 16 19 21 22 24 29 33 37 42 45 46 45 47 48 49 50 50 49 48 47 46
32 29 26 27 26 24 24 25 28 32 29 24 21 19 17 15 14 13 14 14 11 9 13 9 6 5 3 2 5 7 9 12 14 19 23 25 27 30 34 38 42 45 45 47 47 47 48 46 43 42 39 37 36 35
28 28 25 25 26 26 24 27 30 27 21 18 16 14 13 13 13 14 13 11 12 12 8 7 5 2 2 4 6 8 11 16 19 23 27 29 31 35 41 45 46 47 48 48 48 45 40 36 34 33 31 29 28 27
25 27 27 28 27 25 24 27 26 21 16 13 12 11 12 12 13 14 14 14 11 9 8 4 1 3 3 5 9 14 17 21 25 29 33 36 37 42 46 47 47 49 49 48 44 38 34 32 30 29 28 28 26 26
31 30 29 27 26 25 26 24 21 16 15 13 13 15 22 20 18 15 13 10 9 6 2 3 2 5 9 13 18 23 27 30 32 35 38 41 43 47 49 48 48 48 46 42 37 34 32 30 27 26 26 25 23 23
29 27 24 24 23 22 20 17 16 15 17 18 20 24 20 17 14 11 10 8 3 4 3 4 8 13 17 20 25 29 34 36 37 38 41 44 48 51 51 50 50 47 43 37 34 31 29 28 26 25 24 23 22 22
24 22 18 16 19 17 18 18 19 20 20 19 20 22 18 15 11 8 5 5 4 4 7 10 14 18 22 25 29 32 37 41 41 41 44 46 50 51 50 51 50 45 37 33 32 29 27 25 24 24 23 23 22 21
19 16 15 16 17 19 21 22 21 20 18 18 21 20 16 12 10 7 6 5 6 8 12 16 20 24 27 30 33 36 41 44 43 44 47 50 52 51 50 50 47 40 33 30 28 27 26 25 24 23 23 22 22 21
18 19 19 19 21 23 22 21 19 16 18 20 18 16 14 12 9 8 7 8 10 13 17 20 25 28 31 34 36 40 45 45 44 46 49 52 51 51 51 50 42 35 30 28 27 26 25 24 23 23 22 22 22 22
22 21 21 21 23 22 20 18 15 17 20 18 15 13 12 12 11 10 11 13 16 19 22 25 29 32 35 37 39 44 46 45 45 47 51 52 51 51 51 46 38 32 29 27 26 25 24 23 22 22 22 21 21 21
21 21 21 21 21 19 17 17 17 18 17 16 16 14 13 12 12 13 15 17 21 24 27 29 33 36 38 39 44 47 45 45 46 49 51 50 49 50 49 42 34 29 28 27 26 24 23 23 23 24 25 25 24 23
21 19 18 17 18 19 18 17 17 17 16 15 15 14 14 14 15 17 19 22 25 28 31 33 36 39 40 44 46 45 44 45 48 50 49 49 49 49 44 37 32 28 27 26 25 25 24 24 25 27 26 24 23 23
20 18 17 17 20 19 16 16 16 14 13 13 14 14 15 17 19 21 24 27 30 33 34 37 39 40 44 46 45 43 45 47 50 49 49 49 50 47 40 34 30 28 27 26 26 25 25 25 26 27 26 24 24 24
19 19 17 17 16 15 16 16 15 14 14 15 16 17 18 20 22 26 29 32 33 36 38 39 42 43 45 44 43 44 46 48 48 48 48 50 49 43 37 33 30 28 27 26 26 26 26 27 28 29 28 26 25 26

GFSWCAN_500_spd_093.txt.gz
Wind_Speed
46 42 39 35 34 33 32 30 27 27 23 21 18 17 17 15 10 7 5 4 10 16 19 21 22 23 25 26 25 24 24 22 21 21 22 21 22 23 22 19 12 14 17 19 26 33 38 27 32 33 35 30 20 20
48 44 41 36 34 33 31 30 27 27 23 23 20 18 17 17 14 9 10 6 7 12 17 19 20 20 22 22 22 23 22 21 18 17 15 21 19 20 18 17 17 16 17 17 19 16 18 24 33 33 36 38 31 27
48 45 41 37 35 34 32 29 28 26 25 24 23 20 19 18 16 13 14 10 10 10 10 12 18 20 20 22 22 19 18 17 15 17 11 17 20 20 19 19 19 20 8 11 17 13 13 17 25 30 30 32 31 29
48 45 41 37 36 34 32 29 29 26 25 24 24 22 22 20 19 18 15 13 13 16 12 11 9 11 17 17 19 23 23 21 19 23 20 15 21 19 19 22 22 19 9 11 17 13 9 11 18 18 17 19 27 31
47 43 40 35 36 33 30 29 29 26 26 27 27 25 24 24 22 21 19 17 15 20 17 17 11 10 10 18 21 26 26 28 29 22 21 18 18 16 15 18 20 16 10 18 17 22 14 10 14 18 24 20 24 33
43 41 36 34 34 31 29 30 27 27 26 26 26 26 26 27 26 25 25 21 17 17 21 20 18 12 11 16 19 26 26 24 28 27 27 16 18 14 16 11 12 19 15 11 14 18 14 26 23 20 22 22 23 24
39 35 33 33 30 27 28 28 26 25 27 29 31 32 32 33 34 33 28 21 21 22 25 25 25 19 14 17 18 25 24 26 22 24 24 16 16 13 17 13 5 11 11 11 7 12 15 19 16 24 23 27 32 30
35 32 31 28 26 26 26 24 25 26 27 31 34 35 34 31 31 32 29 26 26 26 26 24 22 19 16 15 18 23 21 35 25 18 19 19 18 16 21 15 10 8 14 13 12 13 15 16 17 19 24 26 25 27
32 29 26 25 24 22 20 21 22 28 29 27 26 28 30 34 34 30 30 22 26 25 23 19 18 16 15 16 20 25 23 28 29 23 16 18 18 16 18 20 17 17 18 19 23 24 25 25 25 23 22 23 25 27
28 26 23 21 17 16 15 15 16 15 20 25 29 32 32 31 28 29 30 31 27 17 19 17 15 12 9 9 11 18 22 30 29 23 19 19 18 20 20 23 24 24 24 23 24 27 30 32 32 32 33 33 33 33
27 23 21 15 12 9 7 9 4 3 12 32 32 34 31 29 30 30 31 30 30 25 18 18 18 14 13 10 11 15 21 28 23 22 21 20 17 16 21 24 25 28 29 31 35 35 34 36 38 39 38 39 41 42
24 21 18 15 12 9 10 12 13 18 29 36 35 33 31 34 36 35 34 32 26 24 23 25 18 18 10 5 7 17 20 19 15 14 17 16 16 20 22 26 28 30 32 34 34 35 38 40 41 42 44 45 45 46
24 21 20 18 17 14 20 18 21 27 32 33 34 31 29 29 35 33 33 29 22 26 30 21 23 22 17 14 11 13 18 19 16 17 15 15 19 18 18 20 22 24 25 27 28 31 33 35 37 39 40 42 44 45
24 23 22 20 21 18 23 24 23 26 30 30 40 29 31 30 24 23 23 18 23 29 24 25 25 22 22 21 15 14 15 15 14 14 16 18 18 19 20 20 20 22 24 26 29 31 33 36 37 38 40 42 44 45
27 23 19 21 22 23 27 27 27 29 30 30 30 27 24 21 20 18 26 34 33 29 24 20 16 15 17 16 13 11 10 9 8 9 9 10 11 14 16 18 21 23 26 29 32 34 36 38 40 42 43 45 46 47
25 25 26 25 24 24 27 26 25 24 23 23 21 18 17 19 24 31 38 36 32 27 23 18 14 11 11 12 10 10 9 7 6 7 9 11 14 17 20 22 25 28 30 31 32 34 36 39 41 43 46 47 49 51
26 28 29 28 27 28 27 24 22 21 19 20 20 20 19 25 26 27 27 24 19 17 17 15 13 14 12 11 10 7 6 6 7 9 9 11 14 17 20 23 26 28 30 31 34 38 43 46 49 50 52 54 55 55
37 38 36 30 25 26 23 22 24 25 24 22 18 17 19 20 18 19 19 20 21 20 20 17 16 14 12 9 6 6 6 5 6 10 12 14 17 21 25 28 32 32 33 37 40 42 46 49 50 50 50 51 52 52
43 38 31 24 20 18 19 20 23 23 22 20 21 22 23 23 25 24 23 21 19 18 17 15 13 11 10 8 6 3 3 5 7 11 16 19 20 22 24 27 30 32 36 40 44 48 49 50 51 51 51 52 52 51
33 33 30 24 19 18 21 22 23 22 23 24 23 22 23 24 24 21 19 18 17 16 14 12 11 9 7 5 3 3 4 8 12 15 17 19 21 23 26 29 32 36 41 45 47 48 50 50 51 51 48 44 41 39
31 28 26 21 19 23 24 26 26 27 26 25 25 25 24 22 20 18 16 16 16 14 13 13 10 8 5 4 1 5 9 11 13 16 18 22 25 28 32 33 38 43 47 48 49 49 50 51 48 43 38 35 33 33
31 27 25 21 20 24 25 27 29 28 26 24 22 19 16 17 16 16 16 14 13 15 12 9 7 5 2 3 7 10 11 13 16 19 23 27 30 33 37 39 44 48 49 49 49 50 49 43 38 34 33 31 30 29
28 27 26 23 22 25 27 30 29 25 21 19 16 14 14 14 16 17 14 12 15 10 8 7 4 1 4 7 9 11 15 21 26 29 31 33 34 38 41 45 49 51 50 50 51 48 41 35 33 31 29 28 27 27
25 24 26 26 24 24 29 30 25 19 14 12 11 12 14 17 17 14 13 14 10 9 7 2 3 5 8 10 13 18 23 27 31 36 38 39 39 42 45 49 52 51 52 52 48 40 34 31 29 28 26 25 25 25
26 26 27 25 23 26 27 24 18 15 12 11 13 17 18 18 17 16 14 12 10 5 3 4 6 9 12 15 20 24 28 32 36 41 44 43 43 45 49 52 51 51 54 50 41 34 31 29 27 26 25 24 24 24
26 27 24 23 22 22 21 18 15 14 15 15 21 22 18 16 14 11 10 8 4 5 6 8 11 14 18 22 26 30 33 37 40 45 46 45 46 49 52 53 51 53 52 44 36 31 29 28 27 25 24 23 23 22
25 22 21 20 20 19 16 16 16 17 17 18 23 20 17 14 12 10 7 6 8 7 10 12 15 19 23 27 31 35 38 40 44 47 46 46 47 51 52 52 52 53 47 38 32 30 28 27 25 25 24 23 23 22
21 17 18 18 17 17 19 20 20 20 18 18 20 21 16 13 11 10 9 10 10 12 15 18 22 25 28 32 36 39 41 44 48 48 47 47 50 52 51 51 53 50 42 34 30 29 27 26 25 24 24 24 26 26
17 17 18 17 18 20 20 20 19 18 16 17 18 17 16 15 13 12 12 13 15 18 21 24 27 29 32 36 39 42 43 47 49 48 47 49 52 51 51 52 53 46 38 32 29 28 27 26 25 24 24 26 27 26
18 18 18 19 20 20 20 20 18 15 16 18 18 16 15 14 13 12 13 16 19 23 25 28 31 33 36 39 42 44 47 49 48 47 48 51 51 51 52 54 49 42 36 31 28 27 27 26 25 25 26 27 28 26
19 18 18 19 20 19 18 16 15 15 17 18 17 15 13 14 13 15 17 21 24 27 29 32 34 36 39 42 44 47 47 47 47 47 50 51 51 52 54 53 45 39 35 33 30 28 28 27 26 26 27 28 29 28
20 20 19 19 19 18 16 16 15 15 16 16 15 14 14 15 17 20 23 26 28 30 33 36 38 39 42 45 47 46 46 46 46 48 50 50 52 53 54 48 43 39 36 33 31 29 28 28 27 27 27 29 30 29
20 19 17 15 14 16 17 14 13 14 14 14 15 16 17 19 20 22 26 29 31 34 37 39 40 42 45 45 44 44 44 46 48 49 49 51 53 54 50 45 42 39 36 33 30 28 28 28 28 28 28 29 31 31

GFSWCAN_500_spd_096.txt.gz
Wind_Speed
50 48 45 43 40 35 33 31 30 28 28 25 25 23 18 16 14 14 9 8 9 10 10 16 22 24 22 25 24 24 22 23 21 20 20 20 18 17 17 19 20 16 15 15 19 21 21 23 24 28 26 25 25 25
53 49 47 44 41 37 33 30 30 29 27 25 24 22 19 17 15 16 13 9 9 8 10 11 16 20 24 28 28 26 24 22 20 20 19 18 19 17 18 19 21 20 17 14 16 17 18 16 21 28 30 29 30 31
61 56 50 46 42 39 35 32 31 29 27 24 24 21 20 19 17 16 17 10 8 9 6 9 13 15 19 23 23 24 24 22 22 20 16 15 16 20 19 20 19 18 17 14 10 11 16 16 18 26 28 28 31 33
52 54 55 48 43 40 36 33 32 29 27 24 23 22 21 19 19 20 15 16 11 11 9 8 5 8 14 18 18 22 21 19 17 17 17 15 17 20 22 20 18 18 17 15 16 16 14 13 15 19 19 20 26 30
35 50 50 50 44 39 36 34 32 30 27 25 24 23 22 20 20 21 16 19 15 13 12 12 9 7 8 13 16 21 23 20 17 15 16 21 11 16 19 19 21 22 20 16 12 10 19 18 13 12 12 15 16 18
36 33 47 45 43 38 36 34 33 29 27 26 24 24 22 21 22 24 21 20 18 12 13 17 15 13 8 8 14 20 23 24 25 19 17 19 16 14 16 16 13 16 20 21 11 8 13 13 22 21 18 19 20 19
34 33 37 42 38 36 35 34 31 29 28 25 24 23 22 24 25 24 20 18 20 18 17 20 20 16 13 9 11 18 22 25 26 30 25 24 18 13 15 16 15 9 13 15 13 11 13 11 13 12 19 21 19 16
33 31 36 39 36 34 35 31 29 29 26 24 25 26 26 27 29 28 26 23 23 17 23 21 20 19 16 14 14 16 18 23 21 21 25 26 23 17 13 18 14 8 9 11 13 17 16 15 13 12 13 15 16 18
32 29 35 36 35 33 30 29 28 25 25 25 26 26 27 31 29 24 26 28 28 25 28 22 20 17 16 14 15 17 17 21 25 22 22 22 20 14 14 14 15 15 11 11 14 18 20 23 24 24 25 25 24 24
29 32 33 33 30 28 27 25 25 25 26 27 31 33 35 30 29 26 25 27 28 29 27 24 20 17 15 14 15 17 20 23 21 31 22 18 13 13 13 16 15 20 19 19 19 19 22 24 26 28 30 32 33 33
34 33 30 28 25 22 22 22 23 25 27 29 29 27 24 27 27 32 31 29 29 25 23 20 17 15 13 11 10 9 13 22 18 26 26 19 12 15 18 18 19 21 22 24 25 28 31 32 32 33 36 37 36 37
31 29 26 23 22 19 18 18 17 18 20 21 23 29 31 28 29 33 34 28 29 25 20 19 16 19 13 8 4 8 10 11 19 19 17 14 14 18 19 20 20 23 28 31 30 30 32 33 34 34 35 37 38 40
29 26 25 23 19 18 18 16 14 15 27 31 30 30 33 32 38 37 31 33 23 17 21 21 21 18 12 8 6 10 15 18 17 14 11 12 14 14 15 16 18 20 23 26 27 30 33 34 35 36 37 38 40 41
28 26 26 22 21 22 20 22 26 30 29 27 32 33 35 32 22 28 22 18 18 20 22 26 22 13 13 13 13 8 9 11 13 13 9 12 14 17 19 18 19 22 24 25 27 28 30 33 35 37 39 40 42 44
29 28 26 24 23 27 28 27 27 23 26 29 26 27 26 28 22 23 24 25 21 21 26 26 19 22 21 17 9 6 7 9 8 9 8 7 8 8 10 13 17 20 23 27 30 32 34 36 37 39 41 43 44 46
30 29 29 25 26 28 29 29 26 24 32 25 31 27 17 21 21 25 28 23 26 28 26 22 20 18 15 14 12 10 8 7 5 6 8 10 10 11 13 16 19 22 25 28 32 34 37 39 41 43 46 48 51 53
31 32 29 27 28 30 30 29 28 28 29 24 22 18 17 19 20 23 24 27 32 27 21 18 15 12 9 9 9 8 8 6 7 8 7 10 12 14 17 20 24 27 30 34 37 40 43 45 47 50 52 54 56 56
30 30 28 27 28 26 26 25 23 23 22 21 20 18 19 19 22 27 29 29 27 22 18 16 12 11 10 12 11 9 6 6 6 8 11 13 15 19 22 24 27 30 33 36 39 42 45 48 51 53 54 55 55 54
30 30 31 29 28 25 22 22 22 22 24 23 21 24 24 24 25 26 24 21 20 16 14 14 15 15 13 9 6 4 3 4 7 10 13 18 21 23 25 28 30 34 36 37 41 45 49 51 51 51 50 52 53 53
33 31 30 30 26 26 25 27 29 28 25 23 22 25 22 20 21 22 21 19 18 18 18 17 14 11 9 7 5 3 4 6 10 14 18 21 24 26 28 30 33 36 38 42 46 50 50 49 51 52 53 49 44 40
31 25 20 16 19 25 28 27 25 25 24 24 25 25 25 25 23 21 20 20 19 17 15 13 11 10 8 5 4 3 6 11 14 18 20 21 23 26 29 31 35 39 42 47 50 49 49 53 53 49 42 36 33 32
29 24 20 20 23 25 24 25 25 24 23 23 23 23 23 20 19 19 18 17 16 13 14 12 11 9 6 3 4 7 12 15 16 19 24 29 33 35 34 36 39 43 47 50 50 51 55 52 44 37 33 31 29 27
23 19 19 22 25 26 25 25 26 25 25 23 21 19 18 17 16 16 15 13 14 15 11 10 8 5 3 4 8 12 16 18 22 27 30 35 39 42 41 42 44 47 50 50 51 55 53 44 36 32 30 28 27 26
19 18 18 21 24 26 27 27 26 23 19 16 14 13 15 15 16 15 13 16 14 11 10 8 5 3 5 9 13 16 19 24 28 32 36 40 44 46 45 46 48 51 52 51 54 53 45 37 32 30 28 27 26 25
22 21 21 22 25 28 29 26 22 18 16 13 12 13 14 16 17 14 14 14 12 10 7 5 4 6 10 15 18 21 26 30 34 37 40 44 48 48 47 48 51 52 52 53 54 49 40 33 30 28 27 26 25 24
21 21 22 21 23 25 26 21 16 14 12 11 13 15 15 15 15 15 14 13 11 7 4 5 8 12 16 19 23 27 31 35 38 42 44 48 50 49 49 51 53 53 52 55 52 44 36 31 29 27 26 25 24 24
21 23 21 19 21 23 21 17 13 11 11 11 16 18 17 16 15 14 13 11 7 5 6 9 13 17 20 25 29 32 35 39 42 44 48 50 51 50 51 53 54 53 55 54 48 40 34 31 29 27 26 25 24 24
24 22 20 20 21 20 17 13 14 14 14 14 17 18 15 13 12 11 10 6 5 8 11 15 19 22 26 30 33 36 40 43 44 48 50 51 51 50 53 53 54 54 56 52 44 38 34 31 29 28 27 26 25 25
19 18 18 18 17 16 15 16 16 16 15 14 16 18 17 15 13 12 9 8 10 13 16 20 24 27 30 34 37 41 43 44 47 49 50 50 50 51 53 53 54 56 55 49 43 38 34 31 30 28 27 27 26 26
17 16 17 17 18 18 19 18 17 15 14 13 15 16 17 17 14 12 10 12 15 17 21 25 28 31 35 38 41 43 44 46 49 50 50 49 50 53 53 54 56 57 52 46 42 38 34 31 30 29 28 28 27 27
18 18 18 17 18 18 17 16 15 14 14 14 15 16 15 14 12 12 13 16 20 23 26 28 32 35 38 41 43 45 46 48 48 48 48 50 52 53 53 55 58 56 50 44 41 37 33 30 29 29 28 28 27 28
19 18 18 17 17 16 15 15 14 13 12 13 15 15 15 15 15 16 18 21 25 27 29 31 36 39 41 43 45 46 48 47 47 47 48 51 53 53 55 57 58 52 46 42 39 36 32 30 29 29 28 28 28 29
18 17 17 16 16 16 16 15 14 13 12 13 15 16 16 17 17 19 22 24 27 29 32 36 39 41 44 46 47 46 45 44 45 47 50 52 53 54 56 58 55 49 43 40 37 34 32 31 30 29 29 29 30 32

GFSWCAN_500_spd_099.txt.gz
Wind_Speed
50 48 45 43 40 37 35 33 31 28 26 25 24 22 21 19 16 15 13 14 10 9 8 10 15 19 19 18 16 16 15 12 12 11 12 13 13 14 17 20 20 18 15 14 16 17 16 18 20 21 21 19 18 19
49 49 48 46 43 40 37 34 32 29 26 25 24 22 20 18 14 15 14 14 11 8 6 10 11 14 19 21 20 19 19 17 15 15 15 15 14 14 16 18 16 17 16 11 11 14 13 15 17 20 21 22 22 24
51 49 46 44 42 38 36 35 33 30 28 26 25 22 19 17 14 14 16 12 13 9 5 7 10 12 13 16 18 20 21 20 20 18 16 15 15 15 18 17 16 15 16 16 13 14 9 11 12 16 20 22 24 25
53 52 51 50 48 44 38 35 34 32 30 28 25 22 20 17 15 15 14 16 14 10 6 3 3 5 11 14 15 17 18 18 18 18 19 18 16 16 17 16 16 18 16 14 13 14 13 12 15 13 15 16 18 21
46 47 49 51 51 50 45 39 36 33 32 29 25 22 21 17 17 17 16 18 15 11 8 6 4 3 4 6 12 16 16 16 15 15 16 15 12 11 14 14 17 16 16 15 15 12 13 13 14 12 11 10 10 13
38 36 35 40 49 50 48 48 38 36 33 30 25 23 21 18 19 19 15 17 15 13 11 10 7 7 5 5 5 10 13 16 15 15 16 17 17 10 6 11 13 14 14 16 17 10 12 12 15 19 20 20 22 14
39 37 35 33 35 43 48 45 40 37 34 29 26 24 21 20 19 17 14 16 16 16 15 12 11 9 8 8 9 8 12 15 18 20 17 16 18 15 9 12 13 12 8 11 14 17 14 13 12 13 15 14 18 23
37 36 34 33 30 40 43 42 39 36 33 28 26 22 21 20 21 19 17 19 17 17 18 17 11 12 13 12 12 12 12 15 20 25 25 26 21 20 10 11 13 12 9 10 14 16 17 14 14 13 10 13 15 15
34 35 33 31 27 40 41 39 36 34 30 27 23 22 23 25 25 18 21 22 22 22 24 19 16 14 14 15 15 16 15 13 14 15 19 24 23 24 15 11 10 11 15 10 16 15 14 19 21 20 23 23 24 26
32 33 32 30 29 39 39 37 33 30 27 24 26 29 29 26 22 22 25 25 26 28 30 24 18 16 16 16 16 17 17 15 13 15 19 14 13 16 11 10 12 12 13 18 16 19 21 23 25 27 28 29 31 33
32 33 30 29 36 36 35 33 30 27 26 29 32 31 27 26 26 25 26 27 28 27 23 24 22 19 17 15 16 16 14 15 16 16 19 17 15 12 11 13 15 17 16 21 21 23 24 26 26 28 29 31 35 38
34 31 32 35 33 31 31 28 27 28 31 29 27 26 27 29 29 30 30 28 24 21 20 19 15 12 12 13 10 6 5 4 10 13 17 19 14 15 15 17 17 18 21 22 28 29 28 29 28 28 30 33 36 38
34 35 33 31 29 27 25 24 25 25 27 29 29 27 26 28 29 34 29 27 20 17 15 13 13 11 14 10 3 5 9 9 8 9 8 8 11 15 16 16 16 17 17 19 22 24 26 29 32 34 37 39 40 41
36 33 31 30 29 30 29 26 27 28 28 25 26 37 37 34 36 26 22 19 16 18 17 19 15 17 13 8 6 5 7 6 7 5 9 14 14 15 17 17 17 17 18 20 21 23 26 29 33 36 39 41 42 43
35 32 30 29 31 27 24 24 24 27 36 41 30 31 35 26 16 15 19 19 19 19 19 16 18 18 14 9 9 6 6 5 7 8 7 6 6 7 8 10 12 15 18 20 23 26 30 33 36 38 41 43 46 47
37 31 28 30 26 26 30 30 31 32 29 29 35 24 22 23 19 23 24 22 18 19 18 22 24 19 17 13 8 5 3 4 3 3 5 7 7 8 11 12 14 17 20 23 27 32 36 40 44 46 49 51 53 54
34 29 28 32 31 30 34 29 29 30 31 29 27 21 20 22 18 18 20 20 19 21 23 25 20 18 14 10 9 8 7 7 4 6 5 7 9 11 15 18 21 23 27 30 33 36 40 43 47 50 53 56 57 57
27 28 30 34 33 34 33 30 29 26 27 26 26 16 19 21 21 22 23 20 22 25 25 22 19 16 10 8 10 9 5 2 3 3 6 9 12 16 20 24 26 29 31 34 36 39 42 46 49 52 54 53 53 54
30 29 28 31 32 30 26 26 28 27 22 22 19 15 17 20 22 22 22 25 27 26 22 17 13 10 9 9 9 7 5 3 3 6 10 14 18 22 24 26 28 30 32 34 38 41 45 49 51 51 51 54 55 53
29 29 28 28 28 28 27 25 25 24 22 20 20 20 21 22 23 24 27 28 26 21 17 12 11 12 12 10 8 6 2 2 6 9 14 18 22 22 24 27 29 30 33 36 39 44 48 49 49 51 54 50 44 38
31 28 26 24 22 21 21 24 26 27 25 22 23 22 22 22 22 22 20 18 16 15 15 16 15 14 11 10 6 3 2 5 10 15 18 21 23 29 33 37 39 37 38 41 45 48 49 49 52 53 48 40 34 32
30 28 28 26 24 24 25 25 24 22 23 23 22 21 21 21 20 19 19 18 18 17 16 15 14 12 9 6 3 2 6 10 15 19 21 26 30 34 38 42 45 42 43 46 49 50 50 52 53 48 40 34 31 29
20 18 19 22 25 25 23 23 23 23 23 24 24 24 22 20 19 19 19 19 17 17 16 14 12 9 6 3 2 7 11 16 19 23 28 32 36 39 42 46 47 45 47 50 52 51 53 54 49 42 36 31 29 27
20 20 22 24 26 25 26 25 24 24 24 23 23 20 19 17 17 18 18 16 19 15 13 11 8 5 2 4 7 12 16 20 25 29 32 36 40 43 46 49 49 48 51 52 52 53 55 51 45 38 34 31 28 26
20 21 23 24 26 28 28 27 25 23 19 18 16 16 16 17 18 17 17 18 14 12 10 8 6 4 5 8 12 17 21 26 30 33 36 40 43 46 49 51 49 50 53 53 53 55 53 48 40 35 32 30 28 27
18 19 21 24 26 27 25 23 20 17 14 12 12 13 16 18 17 15 17 15 13 12 8 6 5 6 8 13 17 22 26 30 34 37 40 43 46 49 51 51 51 52 54 54 55 56 52 45 39 34 32 30 28 27
17 19 20 22 25 25 22 19 16 14 12 12 13 15 17 15 14 14 13 12 11 9 7 6 7 9 14 18 22 26 30 34 37 40 43 46 50 51 51 50 51 54 55 54 57 56 50 44 38 34 31 29 28 27
19 20 20 22 24 24 18 15 12 11 13 13 16 15 15 14 14 12 11 9 8 8 7 9 12 15 18 22 27 30 34 37 41 42 45 49 51 51 50 50 53 55 55 56 58 55 48 41 37 34 31 29 28 27
21 20 20 21 22 20 16 12 10 11 13 13 17 18 15 13 11 10 10 9 9 8 10 13 16 20 23 27 30 34 37 41 42 45 49 50 50 49 50 52 55 56 56 58 58 52 45 40 36 33 30 28 28 27
20 19 19 19 19 17 13 12 13 14 13 12 13 15 14 13 13 11 10 10 11 12 15 18 21 24 28 31 34 37 41 43 45 49 50 49 48 48 50 54 55 56 58 60 56 48 42 38 35 32 30 29 29 28
18 17 18 18 16 15 15 15 14 13 11 10 10 12 14 15 14 13 13 13 15 18 20 22 25 28 32 35 38 40 43 46 49 49 47 47 46 48 52 54 56 57 60 59 52 44 39 36 34 32 31 31 30 30
15 15 15 16 16 17 16 14 13 11 11 11 11 13 13 14 15 15 15 17 19 21 23 26 29 32 35 37 40 43 47 50 48 46 45 45 47 50 53 55 57 59 60 55 47 42 39 37 35 35 35 34 33 33
15 17 18 18 18 16 15 14 13 13 12 10 11 12 14 15 16 17 18 19 21 24 26 29 32 35 37 40 45 48 48 47 44 42 42 45 48 51 54 56 59 60 57 50 44 41 39 37 37 36 35 33 32 31

GFSWCAN_500_spd_102.txt.gz
Wind_Speed
41 39 38 37 35 34 33 31 30 28 26 24 23 21 19 18 17 16 13 13 10 8 9 8 9 14 16 17 16 12 11 9 7 7 6 4 5 5 8 10 10 12 12 11 12 17 19 17 16 13 14 14 16 17
45 44 42 40 38 35 34 31 30 28 26 24 23 22 21 19 16 15 13 11 10 8 8 8 8 11 15 18 18 17 14 14 12 10 8 7 6 7 9 12 11 13 14 12 11 12 15 18 20 20 20 19 19 21
47 46 44 43 41 40 37 35 33 31 29 27 25 23 22 20 17 15 13 11 11 8 7 7 7 9 11 14 17 18 16 16 16 14 13 11 10 10 11 13 13 16 14 15 15 13 12 14 15 19 20 21 22 23
46 45 43 41 40 39 39 37 36 34 31 29 26 25 24 20 18 16 15 13 11 9 7 6 5 4 6 9 10 13 15 16 15 15 14 13 12 12 13 15 16 16 15 14 14 14 13 14 15 17 16 16 16 19
47 45 44 43 41 40 37 35 34 32 31 29 27 26 25 21 20 17 18 15 12 10 8 4 4 1 1 1 5 9 11 13 14 14 13 13 13 12 13 14 16 16 14 14 14 13 13 14 16 17 16 15 13 14
46 45 44 43 42 41 41 40 37 35 31 30 29 28 25 23 21 18 17 15 13 12 11 8 6 5 3 1 2 2 6 11 13 14 13 12 12 13 9 11 12 13 14 14 14 14 15 9 17 14 15 18 17 16
42 40 39 39 39 40 41 40 41 41 36 33 32 29 26 24 21 19 15 16 16 15 13 11 7 6 7 6 4 4 3 7 10 15 15 13 16 15 12 9 10 11 10 8 12 14 18 15 13 16 17 18 21 21
40 39 39 40 39 39 42 44 46 46 43 38 34 30 28 24 22 21 18 19 19 16 16 15 12 10 7 7 7 6 6 6 10 13 16 17 14 14 16 11 10 12 13 12 14 16 16 16 15 15 16 17 19 20
36 36 37 36 35 34 32 37 47 48 45 41 36 32 28 26 24 20 21 21 20 20 17 15 16 14 9 9 10 11 11 11 11 14 19 23 22 19 18 15 11 11 14 16 14 16 20 20 20 21 22 21 22 23
35 34 36 36 35 33 32 32 41 42 41 40 37 33 30 27 25 22 22 23 23 23 19 15 14 14 13 12 12 13 15 15 13 15 17 15 15 15 22 18 13 11 11 13 15 16 18 23 22 22 25 28 30 32
33 32 34 36 35 32 31 37 40 40 39 37 34 30 29 27 24 24 23 25 25 24 20 17 18 18 18 15 15 15 16 17 13 14 13 9 10 13 16 15 12 14 15 14 16 19 22 22 24 27 31 32 34 35
34 33 35 36 34 31 36 38 36 36 34 32 31 32 29 29 28 28 27 27 23 20 15 15 18 19 16 14 13 12 10 7 8 13 10 13 15 14 11 11 13 15 17 18 19 20 23 28 31 31 30 31 34 37
34 34 35 35 32 37 37 34 34 35 34 33 33 32 33 32 33 30 27 23 19 15 12 15 16 14 13 10 8 5 5 6 5 8 8 12 16 15 17 18 19 17 17 19 21 22 24 27 31 33 35 37 38 40
35 37 36 34 38 36 35 35 35 35 36 33 33 35 35 33 29 23 17 15 14 13 10 16 17 14 13 14 9 6 9 6 9 9 10 10 12 15 17 17 17 17 16 16 17 19 22 24 27 29 32 35 39 42
39 38 40 39 38 37 35 34 34 35 34 35 32 31 31 30 20 17 17 15 15 18 17 18 16 16 19 13 12 12 8 5 5 6 7 6 4 4 5 7 8 10 12 14 16 20 23 27 31 35 39 43 47 51
43 42 41 41 39 35 35 36 34 31 34 36 32 24 27 25 19 20 20 18 16 17 21 18 18 21 17 15 13 9 7 2 2 3 2 3 2 3 4 6 9 12 16 20 24 28 31 34 37 40 43 49 53 56
42 41 35 35 37 36 34 34 36 36 34 23 22 15 25 25 19 19 24 18 18 19 18 20 23 21 16 13 7 4 4 6 4 4 3 2 4 6 9 14 18 22 25 28 30 33 36 38 40 44 48 52 53 55
37 34 34 30 31 30 29 29 30 40 41 36 24 19 22 26 20 19 22 22 21 22 22 23 22 17 14 9 7 8 8 7 4 1 1 4 7 12 16 19 22 24 26 28 30 33 35 38 42 47 50 51 51 52
31 34 30 35 37 34 33 30 27 29 29 27 26 22 22 22 20 22 22 22 21 23 24 24 20 15 13 10 10 10 7 5 3 1 4 7 12 16 20 21 23 26 28 30 31 33 37 41 45 48 49 49 52 54
35 33 32 36 36 30 32 31 27 29 28 26 22 22 24 23 22 23 22 21 24 25 24 21 17 13 12 12 11 9 8 5 2 4 8 12 16 20 22 26 31 36 38 39 38 39 42 46 49 49 50 53 54 49
33 32 33 34 31 30 31 31 30 28 25 21 16 19 23 23 23 23 24 26 26 23 19 15 13 14 14 12 12 9 5 2 2 8 12 16 19 23 28 32 36 41 44 43 42 44 47 50 50 50 53 53 48 41
30 29 27 26 26 26 26 25 24 21 20 17 17 21 23 24 26 26 26 25 23 19 16 17 18 15 15 13 10 6 2 3 8 12 16 20 25 29 33 36 40 44 47 45 45 47 51 51 52 53 53 49 42 37
25 24 22 21 21 22 23 24 24 23 22 22 22 23 24 24 24 23 21 21 20 20 19 18 17 15 14 11 7 3 2 7 12 16 21 25 29 34 37 40 43 47 48 46 47 50 52 53 54 55 52 44 38 34
22 20 21 21 23 24 23 22 21 21 21 20 22 23 23 23 22 22 21 21 20 18 18 17 17 15 12 8 3 3 8 13 17 21 26 30 34 37 40 43 47 49 48 47 49 52 53 54 56 55 48 41 37 34
18 18 20 21 21 21 23 23 22 22 23 23 21 20 20 21 21 21 21 19 19 18 18 16 13 10 6 4 5 8 13 18 23 26 29 33 37 40 42 46 49 49 48 49 52 54 55 56 57 52 44 39 36 33
21 21 22 23 24 25 27 27 25 23 22 19 19 19 20 21 21 19 18 21 18 18 16 14 11 8 6 6 9 13 18 23 27 30 33 36 40 43 47 48 50 48 48 50 53 55 57 58 56 48 41 37 35 32
22 23 23 26 27 27 26 23 20 17 15 14 16 17 19 20 19 18 20 18 16 14 12 11 9 7 8 10 14 19 23 27 31 33 36 39 43 47 49 49 49 47 49 52 55 57 59 59 53 44 39 36 34 31
22 23 24 27 27 24 21 18 16 14 13 15 17 17 18 18 17 17 16 15 14 13 12 11 10 11 12 15 20 24 28 31 34 36 39 42 46 49 49 49 47 48 51 54 56 59 60 57 48 41 37 35 33 31
22 22 23 25 24 22 19 16 14 12 13 14 17 18 17 16 16 15 14 15 14 12 12 13 14 14 17 22 25 28 31 34 37 39 42 45 50 49 50 47 46 49 52 55 57 60 60 54 45 40 37 35 34 33
21 20 20 21 23 21 17 13 11 11 13 14 18 18 17 16 14 12 12 13 13 14 15 15 17 20 23 26 29 31 34 37 39 42 45 49 49 49 47 45 47 50 53 56 58 60 58 50 44 40 38 37 36 36
20 19 19 20 21 19 15 12 12 14 15 15 16 18 18 17 15 15 15 16 17 18 19 21 23 25 27 30 32 35 37 39 42 45 49 50 48 47 44 45 48 51 54 57 60 60 55 47 43 41 39 38 38 37
19 19 19 19 19 16 14 13 15 16 16 14 13 13 14 14 15 16 17 18 19 20 22 24 26 28 30 32 34 36 39 42 45 48 50 47 46 43 44 46 49 52 56 58 60 58 52 46 43 42 41 40 40 39
18 18 18 18 17 15 15 16 17 16 15 13 13 13 13 14 15 17 19 20 21 24 26 27 28 30 31 34 36 39 43 45 49 48 45 44 42 43 44 47 51 55 58 60 60 56 50 45 43 42 42 41 40 39

GFSWCAN_500_spd_108.txt.gz
Wind_Speed
41 41 42 42 41 37 35 34 31 29 27 29 29 25 23 23 22 20 19 18 16 14 11 12 13 13 13 12 13 12 14 19 26 20 13 7 3 3 3 2 4 6 7 4 5 7 10 10 10 10 11 11 13 14
40 40 40 40 40 38 36 36 34 33 32 30 26 25 25 25 22 21 20 18 17 14 13 13 13 13 12 11 12 14 15 17 19 18 14 13 8 6 5 2 3 5 4 4 4 6 8 10 13 15 16 14 14 15
43 41 37 35 34 33 34 35 34 30 27 26 26 26 26 24 23 22 20 20 17 13 15 13 13 12 12 10 9 13 15 18 19 19 17 15 14 10 11 10 6 7 7 8 7 8 10 11 13 16 17 20 21 21
41 38 36 35 33 32 31 29 28 28 27 29 28 27 25 24 23 23 22 20 17 14 14 14 12 13 12 8 9 10 12 15 18 19 21 19 19 17 16 14 12 10 9 10 10 11 12 14 16 17 17 18 19 19
44 42 39 38 36 35 34 33 32 31 30 29 28 27 26 25 25 24 23 20 16 14 13 13 13 12 9 7 7 8 9 11 14 18 19 20 15 18 18 17 18 16 14 13 13 14 15 15 17 19 20 19 19 19
47 45 44 42 40 39 37 35 34 33 31 30 30 29 28 27 26 25 22 20 17 15 14 13 9 9 10 7 6 6 7 9 10 14 17 18 19 19 18 13 15 14 14 14 14 14 16 16 19 19 19 20 20 21
48 46 45 44 42 40 38 36 34 33 32 33 32 30 29 28 26 22 22 21 18 16 15 16 14 12 10 9 8 6 6 5 7 10 13 16 15 16 19 14 14 15 13 14 14 15 16 15 19 20 21 21 21 22
50 48 47 45 44 42 40 38 37 36 36 35 33 32 31 29 27 25 23 21 19 18 18 16 15 12 10 7 6 6 5 6 5 7 11 13 14 17 18 19 16 13 12 12 12 14 14 15 16 18 20 22 24 22
50 49 47 45 44 42 41 40 38 38 37 35 35 34 32 30 27 24 23 21 21 19 18 15 16 13 12 9 6 6 6 7 7 7 9 10 13 16 14 19 17 15 11 11 14 16 16 18 16 16 19 23 24 24
49 47 46 44 43 42 42 41 40 39 38 37 35 34 32 28 27 25 24 23 23 22 18 14 15 12 12 9 10 9 9 9 9 11 13 12 13 16 19 19 17 18 15 11 13 15 14 16 19 21 19 20 25 31
48 47 47 45 44 43 42 41 41 40 40 39 37 35 33 30 28 26 26 26 24 20 15 15 14 14 12 10 11 12 13 14 14 15 15 9 10 11 12 17 22 21 18 15 15 15 17 19 20 22 23 24 26 29
42 44 45 44 44 43 43 42 41 41 41 40 39 38 36 33 32 31 30 28 24 18 13 15 15 14 14 13 11 11 13 12 12 10 9 6 5 4 3 1 7 13 14 13 15 18 21 21 21 23 25 28 32 36
39 38 39 41 42 42 42 41 41 41 40 40 38 39 39 38 38 35 29 26 19 8 9 16 19 19 17 13 11 13 13 11 9 10 4 5 5 7 4 4 4 5 10 15 19 20 20 20 20 21 23 26 29 32
39 40 39 37 37 36 34 33 34 33 34 37 38 38 38 38 38 34 28 18 12 14 17 20 21 17 14 14 13 12 9 6 5 3 6 6 9 7 6 8 12 15 16 12 11 13 15 18 21 24 27 30 33 36
36 36 37 37 37 38 38 37 36 35 35 37 39 36 35 33 32 29 22 17 17 19 20 20 20 18 18 15 14 11 8 5 4 4 4 5 6 8 10 9 7 7 8 10 12 14 18 22 26 28 31 33 36 39
34 34 34 35 37 38 37 37 35 35 33 36 39 40 32 34 28 27 22 19 17 19 20 21 21 19 19 18 15 12 12 9 3 5 6 6 5 5 4 3 5 7 9 13 16 19 22 25 29 32 34 36 38 40
33 31 31 32 35 37 35 34 32 34 36 38 40 40 34 33 29 22 20 18 20 21 20 21 19 16 16 16 14 15 16 8 7 6 6 5 5 4 2 3 6 10 14 17 19 22 28 32 34 36 38 40 42 45
33 31 30 33 34 33 33 34 35 34 35 36 36 28 22 25 24 22 22 20 19 20 18 18 19 18 15 13 14 18 11 11 10 9 8 7 5 4 3 7 11 15 18 21 26 30 33 37 39 41 41 42 46 48
32 33 35 34 33 35 33 33 35 36 35 35 27 24 25 22 23 24 26 26 22 21 18 19 18 15 15 16 16 11 11 12 12 10 9 7 6 4 6 10 14 18 22 26 31 35 38 42 44 44 44 46 49 51
39 38 38 37 34 32 32 32 32 31 31 29 21 16 20 21 22 25 26 24 24 24 24 20 14 15 17 16 11 10 13 14 12 11 10 8 6 6 11 15 19 24 28 32 36 39 43 46 47 46 46 48 50 54
38 38 38 37 34 29 24 25 25 24 20 21 25 21 17 20 24 23 25 25 25 25 20 17 17 18 17 13 11 12 15 14 13 12 11 8 8 11 15 20 25 29 33 37 40 44 47 50 50 47 47 49 51 56
33 30 26 24 27 15 19 14 20 23 25 27 22 18 18 21 24 23 22 24 24 20 18 19 20 19 16 14 15 16 17 16 15 13 11 10 12 16 20 25 29 33 37 41 44 48 50 52 52 48 49 50 52 56
33 29 25 25 24 22 17 13 15 19 23 24 21 21 20 22 25 23 22 22 20 20 21 22 21 19 17 17 18 18 17 15 15 13 11 13 16 21 25 29 34 38 41 45 48 51 53 55 53 50 50 50 54 56
32 28 19 25 20 23 22 19 17 17 19 20 19 19 20 23 25 23 21 20 20 21 23 22 20 19 19 20 19 19 17 16 16 15 16 18 21 25 30 34 38 42 45 48 51 54 56 57 54 51 50 52 55 58
25 22 22 20 19 20 21 20 19 20 18 18 16 18 22 24 22 20 20 22 22 22 21 19 21 22 21 19 19 18 18 17 17 19 20 23 27 31 35 39 43 46 49 52 54 57 57 58 54 52 52 53 56 59
19 15 17 18 21 23 22 21 20 20 19 16 15 18 20 21 22 22 21 22 22 21 22 23 23 21 20 20 19 18 18 20 21 22 25 28 32 36 40 43 46 50 52 55 57 59 58 58 55 54 54 55 58 60
13 11 12 14 17 19 20 20 20 19 18 17 17 18 19 19 19 19 21 21 22 23 23 22 21 20 20 19 19 20 21 22 24 27 30 33 36 41 44 47 49 52 55 57 59 60 59 59 56 55 57 58 60 62
9 11 14 17 17 18 18 18 18 18 18 18 17 17 16 15 17 20 21 21 21 21 21 20 19 17 18 21 23 24 25 27 29 32 34 38 41 44 47 50 52 55 57 58 61 61 60 59 57 58 59 61 62 64
15 16 18 20 22 23 22 20 16 13 12 13 14 15 15 18 20 21 20 20 21 20 19 20 21 23 24 24 25 26 27 29 32 36 39 42 45 47 49 52 55 58 58 61 61 60 60 59 59 61 62 63 65 65
17 18 20 22 21 20 18 15 13 10 9 9 11 13 14 16 18 18 17 18 19 20 21 23 24 24 24 25 26 28 30 34 37 40 42 45 47 49 52 55 57 58 60 61 60 60 59 59 62 63 64 65 67 65
17 19 21 21 20 19 17 15 12 10 8 8 10 13 14 15 16 17 17 18 20 21 21 23 24 25 27 29 31 34 36 39 41 43 45 46 48 50 54 56 57 60 60 59 59 59 59 62 63 65 66 68 67 63
16 18 20 21 20 19 17 15 14 11 9 10 12 13 16 18 18 19 19 20 21 22 23 24 26 28 31 34 36 38 39 39 41 43 44 46 49 51 54 57 58 57 57 57 58 60 62 64 66 67 69 68 64 58
17 17 17 18 20 20 19 18 15 13 11 12 14 15 17 19 20 21 21 22 24 26 27 29 30 31 32 33 34 36 37 39 40 42 44 47 50 53 55 55 54 54 55 57 59 62 64 66 68 71 68 63 57 51

GFSWCAN_500_spd_114.txt.gz
Wind_Speed
33 31 30 29 29 30 31 32 36 43 49 48 43 40 36 32 31 29 25 24 23 21 17 14 13 14 13 14 11 11 10 9 7 19 14 8 9 3 5 7 9 8 10 11 10 9 10 7 5 5 2 2 3 5
34 32 30 30 31 34 33 32 31 36 43 46 42 41 35 34 30 27 24 25 23 19 17 15 15 14 13 13 10 9 10 10 7 15 22 17 13 8 4 4 3 2 4 5 6 3 5 5 5 5 7 7 9 10
33 33 32 29 28 32 32 30 31 36 38 36 40 37 35 33 29 26 26 24 20 20 18 16 13 13 12 11 10 10 10 11 9 9 20 23 20 16 14 8 6 5 5 5 5 4 4 4 3 4 5 8 10 11
34 32 32 33 31 30 31 33 33 35 38 35 38 39 35 33 30 27 24 22 21 20 16 14 15 13 10 10 9 9 10 10 10 10 14 22 23 23 21 18 12 9 4 3 3 4 5 6 5 5 6 9 10 12
38 35 31 32 35 33 33 35 35 34 38 40 40 37 37 34 30 26 25 22 20 19 15 15 15 10 8 8 6 7 9 9 9 8 13 18 22 24 24 23 22 19 13 10 9 9 9 9 10 12 13 13 14 14
40 35 33 33 35 36 35 34 37 35 34 39 40 39 33 32 29 26 24 22 19 17 16 16 13 9 8 5 6 6 6 4 5 6 9 14 18 21 23 23 21 21 21 19 17 15 15 15 14 16 19 20 19 19
46 40 38 36 34 34 36 39 36 37 36 37 36 34 37 31 28 25 22 20 19 18 16 13 10 9 7 7 7 6 6 4 4 5 6 9 14 16 16 20 23 21 21 20 19 19 19 19 18 17 18 20 20 21
45 46 44 37 35 34 36 42 42 42 41 39 37 38 34 29 27 25 21 21 21 18 15 12 10 8 8 7 7 6 5 4 5 4 5 6 9 12 15 16 16 19 19 18 17 16 14 13 14 14 16 18 19 20
45 48 45 41 38 37 36 40 42 43 43 41 38 33 29 28 27 24 22 21 20 16 12 12 10 9 9 10 9 7 5 6 6 6 6 5 6 8 13 17 16 16 19 14 11 8 8 8 9 11 13 15 18 19
48 46 43 41 39 36 40 41 41 41 39 37 30 30 29 29 26 24 23 22 19 13 11 12 10 11 11 11 10 10 9 8 10 11 12 12 13 11 13 15 17 14 16 13 11 7 7 8 8 11 15 17 19 20
46 43 41 38 36 36 40 39 37 36 34 31 31 29 28 26 25 26 26 24 17 12 12 12 13 12 12 12 10 8 8 9 10 12 13 12 11 8 9 12 15 11 12 14 12 12 11 11 14 17 20 22 21 20
43 41 39 39 38 36 36 36 34 32 32 32 30 30 29 28 28 28 27 25 16 13 14 16 14 13 13 13 10 9 8 7 7 9 10 7 4 2 2 4 9 12 14 13 11 12 11 14 17 19 17 17 19 20
40 40 39 36 36 36 35 35 35 35 34 34 33 32 31 32 33 31 28 19 11 14 18 17 14 15 15 14 11 9 8 8 9 11 11 4 6 8 8 9 10 11 11 11 8 8 11 11 11 14 15 18 20 23
40 40 38 36 35 35 36 36 35 35 35 35 34 34 34 33 31 26 21 16 17 20 19 17 16 15 15 13 11 11 9 9 10 10 3 7 11 10 7 5 3 1 2 4 5 4 6 8 11 14 18 21 24 27
39 37 37 37 37 37 36 36 36 35 35 36 34 35 33 31 27 26 20 18 17 18 18 18 17 14 13 12 12 10 8 7 7 3 4 5 12 10 6 3 3 4 4 2 3 4 6 10 15 19 23 26 29 33
40 41 38 36 36 35 35 36 36 35 36 35 35 33 31 30 28 27 23 20 20 19 18 19 17 13 11 11 11 10 8 7 9 6 6 7 9 7 6 6 5 4 3 3 3 6 10 15 20 25 28 30 33 36
37 36 38 38 36 36 36 35 35 35 35 34 32 31 29 29 28 28 25 22 18 21 24 24 20 16 13 13 11 12 13 16 13 10 7 7 8 8 7 7 6 5 4 3 6 11 15 20 25 29 33 35 38 42
40 38 34 33 35 34 33 32 32 32 31 29 29 28 29 29 31 29 26 29 27 24 24 20 19 16 14 10 11 14 17 18 17 12 9 8 9 10 9 9 8 7 6 8 11 15 20 25 29 33 37 40 43 47
35 37 35 33 32 31 29 29 28 28 26 26 27 28 26 27 29 28 29 32 26 25 25 21 19 15 10 12 15 15 15 20 20 15 10 11 12 12 12 11 10 10 11 13 16 20 25 29 34 37 41 45 49 52
31 31 31 33 34 33 32 30 27 28 29 29 29 31 28 24 24 28 33 33 31 28 27 21 16 15 16 16 16 16 16 20 19 16 13 14 14 15 14 13 14 14 15 19 22 26 30 34 38 42 47 50 54 56
32 32 32 31 30 30 29 29 28 25 26 27 29 29 27 19 20 30 27 32 35 34 25 16 16 18 17 17 18 18 17 19 18 17 15 16 16 16 16 16 17 18 21 24 28 32 36 40 44 48 52 55 59 62
28 29 29 29 29 28 26 25 25 26 27 27 28 27 30 22 24 25 34 30 29 25 23 21 19 17 17 17 18 20 18 16 17 17 17 17 17 18 18 18 21 23 26 29 33 37 41 45 50 53 57 59 63 65
25 25 25 25 24 24 24 26 27 28 27 29 29 27 22 24 24 23 26 25 21 20 20 20 19 20 19 18 21 21 19 17 16 18 18 18 18 19 21 23 25 29 31 34 38 43 46 50 54 58 61 64 66 67
31 29 29 28 27 26 26 24 25 28 29 22 16 17 21 21 21 20 20 21 20 21 21 21 22 22 21 22 22 20 18 17 17 19 19 19 20 22 24 27 30 32 35 39 43 46 51 54 58 61 64 67 67 69
33 30 28 27 27 24 21 19 19 19 17 19 19 20 15 14 13 12 15 16 17 19 21 21 21 21 22 23 20 18 19 18 18 20 21 22 24 26 28 30 33 35 38 42 46 50 54 58 61 65 67 68 68 69
24 22 21 18 15 14 13 15 13 14 16 20 22 22 17 16 16 16 16 20 20 21 22 23 22 22 22 20 18 18 19 20 21 23 24 25 26 28 30 33 35 39 42 45 49 53 57 60 64 66 67 67 68 69
18 17 16 15 14 13 13 12 13 13 14 15 15 18 20 20 20 17 19 22 21 22 23 21 20 19 18 18 20 21 21 22 23 23 23 25 27 30 33 36 38 41 45 49 52 56 59 62 63 65 66 68 68 67
11 13 12 11 10 10 10 10 10 12 13 14 15 16 17 14 12 16 20 22 20 19 18 18 18 18 20 21 21 20 20 21 22 24 25 27 29 31 34 38 41 45 49 52 55 58 59 61 64 66 67 66 66 68
0 3 5 8 12 14 14 14 14 13 13 13 12 11 10 11 15 17 18 16 15 16 17 18 18 18 18 19 18 18 21 22 23 25 27 30 32 35 38 41 45 48 51 53 55 57 60 62 65 65 64 65 68 70
4 4 4 4 6 7 8 9 9 10 10 11 11 11 11 11 11 12 13 13 14 15 15 14 14 16 17 18 20 20 21 23 25 28 30 32 34 38 41 43 45 48 50 53 55 58 61 62 62 63 65 67 69 72
4 4 7 10 13 15 15 13 12 11 10 8 7 7 7 7 8 9 10 11 11 12 13 14 16 18 20 20 20 22 23 25 27 29 32 35 37 39 41 44 46 49 52 54 56 59 59 60 63 64 67 69 72 72
10 11 12 14 16 15 13 11 9 8 7 6 5 3 4 6 8 10 11 12 14 15 15 16 17 18 19 20 22 23 25 27 30 32 34 37 40 42 43 46 48 50 53 55 56 57 59 62 64 67 70 71 68 62
10 13 14 15 15 14 13 11 9 7 6 5 3 1 2 4 7 10 11 14 15 15 17 18 19 20 21 22 24 26 28 30 32 35 38 39 41 43 45 46 49 52 52 54 56 59 61 65 67 69 68 63 59 55

GFSWCAN_500_spd_117.txt.gz
Wind_Speed
34 32 31 25 27 32 34 30 35 37 36 42 45 48 46 46 39 32 31 24 25 27 22 21 18 16 14 14 13 14 13 11 11 12 20 15 12 9 10 8 10 16 15 15 16 17 16 7 6 3 2 2 4 4
34 32 30 30 25 27 33 32 30 34 35 41 45 48 46 43 39 33 29 25 26 23 23 20 18 15 13 13 14 14 13 12 12 11 16 21 16 13 9 6 12 7 10 13 11 10 10 10 8 6 5 6 7 8
36 34 31 29 29 28 28 33 34 34 36 43 48 43 45 42 36 35 29 26 25 23 21 20 18 14 13 13 14 13 12 14 13 12 13 21 24 18 13 10 6 7 6 7 7 6 5 6 6 5 4 4 5 7
35 31 30 29 29 34 34 30 29 33 40 42 45 47 42 38 36 35 29 26 24 21 20 20 16 14 13 12 12 12 12 13 14 12 13 16 23 28 22 19 14 11 8 6 8 8 7 5 4 4 3 4 6 8
34 32 29 28 28 30 36 36 34 33 36 43 47 45 44 38 38 32 27 26 23 22 20 17 16 14 12 12 11 11 12 13 13 13 13 16 17 21 28 25 22 19 15 12 9 7 7 7 7 6 6 7 10 13
34 33 28 28 27 26 32 35 36 34 34 34 41 45 40 39 36 31 28 26 22 20 16 14 14 12 11 9 10 10 11 11 10 9 10 12 16 16 18 23 24 24 22 19 16 15 13 12 10 10 13 16 17 18
37 35 28 27 25 27 29 31 35 33 35 34 31 34 38 38 36 30 25 23 21 19 17 14 13 12 9 9 11 11 10 9 7 6 6 8 10 13 13 16 19 21 22 20 20 19 18 18 17 17 18 19 21 22
34 34 32 27 27 29 30 30 30 33 31 35 36 35 36 35 34 29 28 25 22 19 17 14 13 12 11 11 10 10 9 8 9 7 7 6 7 9 12 15 16 16 17 19 16 17 15 14 15 16 18 20 22 22
40 34 31 28 27 27 32 32 30 35 35 32 33 38 37 35 32 28 26 22 20 17 15 13 13 10 12 12 11 10 10 9 8 7 7 6 6 7 9 14 16 16 14 15 13 10 9 8 9 10 11 13 15 15
43 36 34 31 29 27 27 33 32 34 33 36 32 35 36 35 31 28 26 23 21 18 16 15 13 11 12 11 11 11 12 12 11 10 10 11 12 13 16 16 15 16 15 16 14 11 9 8 8 9 10 10 13 16
50 38 38 36 32 28 28 30 32 36 37 37 36 36 35 32 29 27 26 23 20 17 17 16 13 13 11 11 12 11 11 11 11 12 11 12 14 15 14 15 14 13 14 15 16 14 12 10 10 9 10 13 11 14
42 42 41 38 33 30 29 29 32 37 39 39 35 35 32 31 30 30 27 24 18 17 17 14 15 13 12 12 13 11 11 10 9 10 11 11 11 8 8 7 8 12 15 15 14 11 10 10 8 11 10 12 13 15
46 45 41 35 32 30 30 35 39 41 41 39 37 35 34 34 33 29 21 16 14 15 16 17 16 14 14 14 12 12 10 8 9 10 11 11 7 5 3 5 2 11 15 14 12 10 8 8 8 9 10 13 17 19
44 39 37 35 31 31 32 36 40 39 39 38 37 36 34 32 29 19 20 21 21 23 21 18 16 16 15 13 13 14 11 10 10 11 9 7 10 11 8 6 5 7 10 11 10 9 7 6 6 9 12 16 19 22
39 37 37 35 34 34 33 31 33 34 35 36 34 33 31 28 22 20 17 19 22 22 19 17 17 16 14 13 13 12 10 9 10 8 5 7 12 12 9 6 4 5 8 9 8 6 4 4 7 11 16 21 24 27
35 35 34 34 35 36 35 32 32 31 30 30 30 29 26 23 22 19 19 21 22 22 19 17 16 15 14 13 12 12 10 13 11 8 7 7 13 12 8 6 7 7 6 5 4 4 4 7 11 16 21 25 28 31
34 33 34 34 34 34 34 33 32 33 33 30 28 26 25 24 22 22 22 22 24 24 20 20 19 16 13 11 11 13 16 15 12 10 7 8 10 10 9 9 8 6 5 5 6 6 9 12 16 21 25 29 32 36
36 35 32 32 32 32 31 30 30 29 27 26 27 26 25 26 26 25 24 25 24 24 22 22 22 18 12 9 13 17 16 15 15 15 12 9 10 10 11 10 9 7 8 9 10 12 14 18 22 26 30 34 37 41
34 32 31 30 29 28 28 28 27 26 26 27 28 27 28 28 27 26 25 25 26 25 23 24 24 16 11 14 20 21 16 14 15 17 15 10 11 12 13 12 12 11 12 13 16 18 21 24 28 32 36 40 44 48
37 35 32 31 30 29 28 27 26 27 27 27 26 26 26 27 27 26 26 26 29 30 27 21 19 12 17 20 21 20 17 15 15 19 19 14 12 15 15 15 15 15 16 18 21 24 26 30 34 38 42 46 50 54
36 35 33 30 29 28 27 26 26 25 26 27 27 27 26 26 26 27 28 28 33 32 26 27 21 20 23 22 22 20 18 18 17 19 20 17 15 17 18 18 18 19 20 22 26 28 32 35 40 44 48 51 55 60
31 33 34 32 31 30 29 28 28 28 29 28 31 30 28 27 27 29 30 32 31 36 34 26 22 22 22 22 22 20 19 19 17 19 20 17 17 19 19 19 19 21 24 27 30 33 36 40 44 49 52 55 59 63
28 27 28 28 28 29 27 27 26 27 28 29 30 30 29 27 25 25 29 28 34 35 35 27 27 25 22 21 20 20 20 19 19 18 18 18 19 20 20 21 23 26 29 31 34 37 41 44 48 52 55 59 62 66
26 25 24 25 24 23 24 24 25 24 24 24 24 25 24 27 25 23 22 24 25 25 25 28 28 28 28 25 23 22 21 21 20 18 17 19 20 21 22 25 27 29 31 34 37 41 44 47 51 54 58 61 65 68
27 26 25 24 23 22 22 22 21 21 20 19 21 23 24 23 22 20 16 18 23 26 26 26 26 27 25 24 23 22 23 23 20 19 19 20 21 23 26 27 29 31 34 37 40 43 46 49 53 57 60 64 66 68
28 27 26 24 23 21 20 18 18 21 25 20 16 16 20 20 17 15 16 19 22 23 25 25 25 23 21 21 23 23 24 23 21 20 20 21 23 25 27 29 31 34 36 38 41 44 48 52 55 59 63 64 66 68
29 27 24 21 18 17 17 17 16 17 17 16 15 17 21 19 17 12 13 16 19 22 20 20 23 23 21 22 23 24 23 22 21 21 22 23 26 28 28 30 32 34 37 41 44 47 51 55 58 60 62 65 67 70
19 20 19 17 14 13 14 14 13 13 14 15 17 19 21 20 18 18 20 22 23 24 22 21 22 22 22 22 22 22 22 22 21 21 23 25 26 27 29 32 35 38 40 43 47 50 53 55 57 61 63 66 66 68
6 7 9 12 13 15 16 17 15 14 15 16 16 16 15 17 19 20 21 21 22 21 20 20 21 21 21 20 20 22 20 19 21 23 23 24 27 29 32 34 37 40 44 46 48 51 53 57 59 62 63 65 68 69
7 7 10 13 16 18 17 17 17 19 18 16 15 14 15 16 17 17 17 17 16 16 18 19 18 18 19 21 20 19 19 20 21 22 25 27 29 31 33 37 40 43 46 48 50 53 54 57 59 61 64 66 69 73
4 5 7 9 10 10 10 11 11 11 11 10 10 10 10 11 11 13 13 13 13 14 15 15 15 16 16 16 17 18 19 21 23 25 27 28 31 34 36 39 43 46 47 49 51 54 56 58 60 63 65 69 72 72
3 7 9 11 13 12 11 11 10 9 8 8 9 9 9 9 9 10 10 10 10 10 12 13 14 15 16 17 19 20 22 23 25 26 29 32 33 36 40 42 45 46 47 50 52 55 57 59 61 65 68 70 69 64
8 10 11 12 13 12 11 11 9 7 6 5 4 4 3 3 4 6 8 9 10 11 12 13 14 16 17 19 20 22 24 26 27 29 31 33 37 40 42 44 44 46 49 51 53 55 57 60 64 67 67 64 59 54

GFSWCAN_500_spd_120.txt.gz
Wind_Speed
34 32 30 29 32 34 37 38 38 34 37 38 37 37 39 41 39 40 42 40 33 31 28 26 24 21 19 17 16 14 14 14 14 13 13 13 15 15 13 10 10 15 16 14 16 18 16 10 7 7 5 5 4 3
37 34 31 30 30 35 36 36 36 39 37 35 34 36 36 40 40 40 42 40 34 30 27 25 23 21 18 17 15 14 14 13 13 14 13 13 16 17 17 12 12 12 12 16 13 15 19 16 13 10 9 8 6 6
38 35 33 30 28 34 38 40 39 41 42 36 30 33 37 41 40 41 40 37 33 28 26 24 22 20 17 17 14 12 13 13 13 14 14 14 15 21 20 15 10 10 7 8 8 10 8 8 10 10 9 7 5 3
36 36 36 33 29 30 37 40 40 42 40 36 35 33 38 42 41 41 35 34 31 25 22 22 20 18 18 15 12 12 12 13 13 14 14 14 16 17 26 21 17 13 10 7 9 8 8 8 8 7 6 5 2 0
36 36 35 33 32 27 30 36 38 41 40 37 35 34 37 41 40 35 33 33 30 27 23 21 20 18 15 12 11 11 12 11 12 13 13 15 16 17 19 27 26 23 17 13 11 9 9 8 6 6 5 3 3 6
36 34 32 29 30 27 30 32 34 38 38 39 37 37 37 36 36 33 32 30 30 24 20 19 21 16 13 11 10 11 11 11 12 11 13 13 13 15 15 16 21 27 25 22 18 14 11 8 7 7 7 8 10 11
31 31 29 26 25 27 32 31 32 36 38 38 36 36 36 36 34 31 28 28 27 24 22 21 18 14 12 11 9 11 11 11 11 11 9 8 9 9 11 12 13 17 20 21 23 20 17 13 12 13 13 13 14 16
32 28 26 25 24 26 30 34 33 33 35 35 34 35 38 38 36 32 32 31 28 24 23 20 15 13 12 9 9 11 11 11 11 12 12 11 9 8 8 9 10 11 14 17 17 18 16 16 15 13 12 12 13 14
35 27 27 22 21 25 29 32 33 32 35 33 31 35 38 39 37 35 33 29 26 24 19 18 15 13 12 9 10 10 11 12 11 12 11 11 10 8 8 9 10 13 14 13 15 14 12 11 11 11 11 10 12 15
35 32 30 24 22 21 25 31 34 32 33 31 33 37 36 34 35 35 32 28 24 23 23 20 17 13 11 10 9 10 12 13 13 14 13 13 13 14 16 16 15 14 16 16 13 14 15 14 12 11 11 10 9 12
34 29 26 25 23 24 25 30 32 32 32 33 34 32 29 32 35 33 31 29 27 25 23 18 15 11 11 10 9 11 13 13 12 13 13 13 14 15 16 15 13 13 14 15 15 17 16 13 9 8 7 7 9 8
33 29 28 25 21 21 22 25 28 30 29 30 28 30 33 35 35 33 30 28 27 25 20 17 14 11 11 10 10 11 12 12 12 12 12 13 14 14 10 10 9 9 12 15 16 17 15 12 9 6 3 4 6 9
35 33 29 24 22 19 16 21 29 33 31 33 31 33 35 36 36 34 28 25 23 20 17 15 14 12 10 10 11 11 12 11 10 11 13 15 15 8 2 3 4 9 13 13 14 14 12 9 6 3 2 5 9 12
40 35 31 26 23 20 18 21 25 28 34 34 35 35 36 36 32 27 25 25 24 21 18 14 12 12 11 11 10 11 11 11 11 12 14 14 8 7 5 1 5 3 12 13 12 10 10 8 3 2 5 8 12 16
36 36 38 32 26 22 22 23 25 28 34 36 34 35 33 29 28 27 28 26 23 19 16 15 14 12 12 12 11 12 11 11 12 12 13 9 7 9 7 5 4 2 7 11 11 9 7 5 5 7 9 12 17 21
45 39 35 30 25 23 24 24 27 31 35 37 35 34 29 28 28 26 26 23 20 18 15 13 13 13 13 11 11 12 12 16 14 11 10 7 8 10 10 8 6 5 7 8 8 7 7 8 9 10 13 17 21 25
41 33 31 31 27 27 27 28 30 34 35 35 32 29 27 27 26 25 23 21 20 19 17 17 16 15 12 11 12 13 15 15 12 10 9 10 9 11 11 9 7 8 7 7 7 9 10 11 13 16 19 23 27 30
33 30 30 29 29 30 30 29 28 26 28 28 29 28 27 27 25 24 22 21 21 20 20 19 18 15 13 13 15 16 17 14 14 14 13 13 10 11 12 11 10 9 8 9 10 12 14 16 18 22 26 29 33 36
30 27 28 29 32 34 33 30 28 27 26 26 25 26 26 24 22 22 22 22 22 22 22 22 20 17 17 18 18 19 17 13 14 16 14 16 12 12 14 13 13 13 12 13 14 16 18 21 23 27 31 35 39 43
27 28 29 29 30 32 33 32 30 28 27 28 27 27 24 22 22 22 23 23 22 22 22 20 19 20 20 19 20 20 16 15 16 15 14 16 17 13 14 16 15 15 16 18 19 21 23 26 28 32 36 41 44 49
28 31 29 28 28 28 29 28 28 28 27 27 26 25 23 22 22 22 23 23 23 22 21 21 23 24 23 20 20 18 16 16 16 15 15 16 20 17 15 17 18 19 20 20 22 24 28 30 32 36 41 44 49 53
30 31 30 28 27 26 25 24 25 24 25 25 24 24 24 23 22 23 23 23 22 24 26 26 29 29 24 21 21 20 19 19 19 18 17 16 19 20 18 18 19 21 22 24 27 29 31 34 36 40 45 49 52 55
30 29 28 28 27 27 26 25 25 25 24 23 24 24 24 24 24 23 23 22 24 28 29 30 33 32 25 22 20 20 22 22 21 20 18 17 19 21 20 20 22 23 26 28 29 31 34 36 40 44 48 51 53 57
24 23 24 25 26 26 26 25 24 24 24 24 24 23 23 23 23 23 22 22 26 28 32 32 36 35 29 26 25 23 24 24 23 21 21 19 19 19 20 21 24 27 28 29 31 33 37 40 43 46 49 52 56 60
24 23 21 18 18 18 20 21 21 21 21 21 21 21 21 22 23 21 19 19 21 25 27 32 36 35 35 32 30 29 29 28 26 24 23 21 20 20 21 22 25 28 30 31 34 36 39 42 45 48 52 55 59 62
21 20 19 19 19 18 16 17 18 19 18 18 18 19 20 22 22 20 16 17 21 22 23 24 24 26 28 28 28 27 26 26 26 25 22 22 22 22 23 25 27 28 30 32 35 39 42 45 48 51 55 58 61 63
22 22 20 18 17 16 15 15 16 16 16 16 15 15 16 17 17 15 16 20 20 19 20 23 25 26 26 26 24 24 24 25 24 23 23 24 24 24 25 26 27 29 32 35 39 42 44 47 51 54 57 59 61 64
25 22 19 17 15 13 13 12 12 14 16 16 15 15 14 14 15 14 15 18 18 17 19 21 21 20 21 24 25 24 23 23 22 23 24 24 25 26 26 27 30 32 35 39 41 43 47 50 53 56 58 59 62 65
17 15 14 14 14 13 14 14 13 12 13 13 14 15 14 17 20 21 21 20 20 22 21 22 23 23 22 22 22 22 22 22 23 23 24 26 26 26 27 30 32 35 37 40 43 46 49 52 54 56 58 61 63 66
8 11 12 16 20 21 21 19 20 19 16 16 16 16 15 16 17 19 21 24 25 24 21 19 18 19 19 20 20 21 21 21 22 24 24 24 25 27 29 32 34 37 40 42 46 49 52 53 55 57 59 62 64 68
9 11 12 13 14 17 19 20 19 19 19 18 19 18 18 18 17 17 17 17 16 14 13 12 13 16 17 19 19 20 21 20 20 21 23 24 26 29 31 34 37 39 42 46 49 50 51 54 56 58 60 63 67 71
4 5 7 7 8 8 7 7 7 7 8 9 10 10 10 11 11 12 12 11 10 10 12 14 15 16 16 16 16 16 18 19 20 22 24 26 29 31 34 37 39 42 46 48 48 50 52 54 56 59 63 67 70 69
4 6 7 9 9 7 7 7 6 6 5 5 5 5 6 7 8 9 9 10 11 11 11 12 12 13 14 15 16 17 18 20 22 25 27 29 31 34 37 39 42 44 45 46 49 51 53 56 58 62 66 67 65 60

GFSWCAN_500_spd_126.txt.gz
Wind_Speed
33 31 28 26 24 22 20 22 22 33 34 28 25 24 23 27 34 36 36 35 33 32 31 28 31 32 29 23 20 18 16 13 12 10 9 8 8 9 10 11 13 17 18 20 22 23 21 19 19 20 15 14 11 10
33 30 27 25 24 22 22 26 27 39 36 27 25 25 31 35 36 34 34 33 30 30 27 28 31 30 26 21 19 17 14 12 10 9 9 8 9 10 11 12 13 14 16 17 23 22 25 23 22 22 18 15 14 13
31 30 27 26 24 22 24 26 35 39 33 29 30 35 34 35 34 32 30 31 30 29 29 31 30 28 24 21 18 14 13 10 8 8 7 8 9 12 13 13 14 14 15 14 16 20 20 22 22 19 21 19 17 16
32 29 28 27 24 23 24 26 38 37 32 28 29 34 35 33 30 27 29 29 27 27 27 29 30 29 23 20 17 14 11 9 8 8 8 9 10 12 13 13 14 16 15 15 14 13 17 21 22 25 23 21 19 18
34 31 29 26 25 23 24 25 40 37 37 36 36 35 32 33 29 25 28 25 24 27 27 29 30 28 23 19 16 13 11 8 7 7 8 9 10 11 11 12 15 16 18 19 17 13 15 18 17 18 17 16 17 17
30 32 29 25 24 23 25 27 37 36 37 35 34 34 29 22 28 27 27 26 26 27 26 29 28 26 24 20 16 13 9 8 6 7 8 9 9 9 9 10 13 14 15 20 22 18 14 13 16 14 14 16 17 17
36 32 31 27 24 23 24 29 34 37 37 39 38 30 28 24 26 25 25 22 21 23 27 29 28 25 23 20 17 13 10 7 5 6 7 8 8 7 6 6 6 7 9 12 16 17 19 15 10 12 14 13 12 11
37 34 32 29 25 22 24 31 34 35 38 40 36 32 25 27 27 26 26 24 25 29 28 29 28 26 22 19 16 13 9 6 6 5 7 6 7 10 11 9 8 7 6 7 12 16 18 17 20 17 15 12 10 9
35 31 34 31 27 25 26 33 35 34 37 40 37 34 27 29 26 25 24 25 26 26 26 26 28 24 21 18 15 12 8 4 4 5 6 8 9 10 10 10 10 10 10 10 10 12 19 20 19 18 17 15 12 11
37 26 30 32 30 28 28 31 35 36 38 40 37 36 33 31 31 28 28 27 25 25 27 29 27 24 22 18 14 11 7 4 4 5 8 9 10 11 12 13 14 15 16 16 16 16 17 20 22 21 19 18 17 15
28 30 32 31 31 30 29 29 32 36 39 39 38 36 34 32 28 28 28 27 25 26 29 32 27 25 21 18 15 11 7 4 4 5 7 10 10 10 11 13 15 16 17 18 20 21 20 19 20 19 18 17 16 15
32 29 30 29 30 30 28 30 30 32 36 35 34 36 37 35 30 28 28 26 23 26 30 30 25 23 20 17 14 10 8 4 4 6 7 9 10 11 13 14 15 14 14 17 18 22 23 21 20 19 16 13 12 13
32 28 26 25 27 29 28 32 32 33 36 36 40 38 38 36 35 33 30 24 21 22 27 25 23 23 20 16 14 11 7 3 3 6 8 9 10 11 14 13 9 9 14 15 16 20 22 22 21 18 17 13 13 13
29 26 21 21 24 29 29 32 33 34 38 40 36 35 38 37 36 27 24 22 24 27 28 26 24 22 19 17 14 11 7 2 3 5 7 9 11 13 10 7 6 10 10 8 11 16 18 21 20 18 17 15 15 15
25 23 22 22 21 24 28 29 32 31 35 38 36 33 30 25 25 24 24 26 28 28 25 25 25 23 19 17 15 11 7 3 3 5 7 9 11 12 6 8 6 8 7 5 10 13 16 18 19 18 17 18 18 15
25 23 21 20 21 23 27 30 30 32 34 33 31 27 24 24 25 26 26 27 28 26 26 25 23 21 19 17 15 11 7 4 4 6 8 9 9 9 6 9 7 7 6 7 11 13 14 16 18 18 19 19 17 17
27 18 16 17 19 19 20 26 30 30 29 30 27 27 27 26 26 25 25 26 26 24 24 23 21 20 18 19 16 12 8 6 5 6 8 10 10 10 8 8 9 8 7 10 14 14 15 17 17 18 18 18 19 21
20 18 15 12 15 16 17 21 27 29 27 28 28 28 28 28 25 24 25 27 26 24 23 21 20 20 20 19 16 13 11 9 7 7 8 10 12 11 10 9 10 9 8 11 13 15 16 16 17 18 20 22 23 26
21 18 14 9 11 14 17 21 24 27 28 28 26 25 25 25 25 26 28 27 26 25 23 22 21 22 21 19 18 15 11 9 9 9 10 12 13 12 12 13 12 13 12 13 16 17 17 18 20 23 24 24 28 31
17 15 12 13 15 15 18 20 22 25 26 27 27 25 26 28 29 26 25 29 27 24 23 21 23 23 23 22 20 16 14 12 12 13 13 15 15 14 13 15 17 16 17 17 18 21 22 23 26 27 27 30 33 35
16 15 10 14 15 16 18 19 20 22 21 23 24 26 28 29 29 29 26 26 25 23 23 24 25 24 23 22 20 18 17 16 15 15 16 17 16 15 15 16 20 21 19 19 20 22 24 26 27 29 31 32 34 36
18 15 12 10 14 16 18 19 19 21 22 22 23 24 26 27 28 26 26 25 24 23 23 23 24 23 24 23 24 22 20 18 17 16 17 18 16 14 15 16 18 22 24 23 22 22 24 27 30 31 33 35 37 39
18 17 15 13 14 17 19 20 20 22 22 22 23 24 26 26 25 24 23 22 22 22 23 24 25 25 26 25 25 24 23 22 21 19 19 20 17 14 15 16 18 20 22 22 24 25 26 28 30 33 34 36 38 41
14 16 15 16 16 17 18 19 20 20 22 23 24 24 24 24 23 23 22 23 24 24 24 24 25 26 26 26 27 27 28 27 26 23 23 21 19 18 19 19 20 21 24 24 23 25 27 29 31 33 35 37 40 44
15 16 16 18 18 17 18 19 20 20 21 21 21 21 21 21 21 21 21 22 23 23 24 25 27 27 27 28 29 30 30 30 28 27 26 25 24 24 25 24 23 23 25 27 26 26 28 31 33 35 37 40 42 46
19 16 16 18 16 16 17 18 19 19 19 19 20 20 20 21 21 21 21 22 23 25 27 27 27 27 28 29 30 30 30 29 28 27 28 29 27 26 26 24 24 25 25 28 29 29 31 33 35 37 39 42 45 48
18 17 16 16 14 15 16 16 16 16 16 17 18 18 19 19 19 20 21 22 23 25 25 24 23 23 24 25 25 26 25 23 21 22 22 23 24 25 26 25 26 26 27 29 29 31 33 35 37 39 41 44 47 51
18 17 16 14 13 13 13 13 13 14 15 15 16 16 16 17 18 19 20 20 20 19 18 17 15 16 16 16 16 17 19 21 21 21 22 24 25 25 25 26 26 27 28 29 31 33 35 36 38 41 43 47 50 52
15 14 13 12 12 12 12 13 13 13 14 14 14 14 13 13 13 14 12 12 13 12 11 11 12 13 14 16 17 19 21 21 22 22 23 24 25 26 26 26 26 27 28 31 33 33 35 38 40 43 45 48 51 54
13 12 11 11 10 10 9 10 10 10 10 10 11 11 11 10 10 11 12 13 15 16 18 19 19 19 20 21 22 24 24 25 25 25 24 24 25 25 25 26 26 29 30 31 33 35 37 39 42 44 47 50 52 54
7 7 8 8 8 8 9 8 8 8 8 7 7 8 9 9 9 11 12 14 16 17 18 20 21 21 21 20 19 18 18 19 20 21 21 22 22 23 24 25 26 28 31 32 33 35 38 41 43 46 49 50 53 55
4 3 3 2 1 1 0 2 6 9 11 11 12 13 13 14 14 15 16 16 16 16 16 17 16 15 12 11 12 13 14 16 18 19 19 19 20 22 23 24 26 28 29 31 34 37 39 42 45 47 49 51 54 58
3 4 4 4 4 4 4 4 4 3 3 3 3 4 5 5 6 7 9 9 10 10 10 11 11 12 13 14 15 16 16 17 18 18 18 20 21 22 23 24 27 29 31 33 36 38 41 44 46 48 51 54 58 60

GFSWCAN_500_spd_129.txt.gz
Wind_Speed
35 35 34 33 31 28 24 22 24 23 30 31 33 34 34 31 34 34 32 31 32 33 33 28 24 24 26 26 29 29 27 25 23 21 18 14 12 10 9 9 11 13 15 19 22 25 28 26 25 24 23 22 23 21
41 36 35 33 31 27 25 24 26 24 34 35 32 29 27 30 31 30 30 30 34 30 25 27 26 27 31 32 27 28 25 24 22 18 16 12 10 9 9 10 13 15 17 20 23 24 27 28 28 25 21 21 24 21
38 37 36 34 30 27 26 27 27 30 38 36 31 24 24 26 27 32 31 35 32 31 27 25 24 30 32 32 27 26 24 23 20 18 15 11 8 8 9 12 14 17 18 20 22 22 24 26 26 27 26 22 24 21
37 35 35 33 29 27 27 28 31 35 36 33 30 25 30 32 33 33 35 29 28 27 26 26 30 33 34 29 26 25 24 21 19 15 13 9 7 7 10 13 16 15 18 17 19 20 19 18 23 21 21 21 22 25
33 37 35 32 29 28 28 31 33 36 33 26 30 31 33 31 31 33 32 30 30 28 25 26 29 32 30 27 26 24 22 20 16 14 10 7 5 9 11 13 15 17 16 18 19 19 17 17 18 21 23 23 24 25
44 37 33 32 30 28 30 31 33 35 34 29 31 34 30 24 26 30 30 31 29 27 27 28 27 31 32 27 25 22 20 18 15 12 8 4 6 10 12 14 14 16 17 19 21 22 19 17 16 20 19 18 18 18
32 32 33 31 29 27 30 30 35 34 35 33 30 29 27 25 22 22 23 22 22 23 24 28 28 30 30 27 24 22 20 18 14 10 6 4 7 9 12 12 13 11 10 11 14 18 21 21 18 15 17 14 15 15
35 32 32 31 29 28 29 28 33 33 34 35 32 28 28 28 26 26 26 25 24 24 24 26 27 29 31 26 23 22 19 16 13 9 5 5 8 10 12 14 15 13 13 10 9 12 16 19 19 19 14 14 17 16
36 33 29 29 27 27 28 29 31 30 37 35 32 27 27 26 24 28 27 26 26 26 23 25 26 25 28 27 24 21 18 15 12 8 4 6 8 11 12 14 14 15 15 14 14 14 12 17 21 20 18 21 19 18
33 31 29 27 26 25 26 29 30 31 33 36 32 29 28 28 29 30 29 28 24 25 26 27 26 29 27 25 23 20 18 15 11 7 4 6 8 11 12 13 15 16 17 18 18 18 18 16 20 23 22 24 23 21
32 31 30 27 24 22 23 29 29 29 31 37 35 32 25 25 31 30 28 28 28 26 25 27 29 30 29 26 23 20 17 14 10 6 5 6 8 11 11 13 14 16 17 18 20 21 22 22 20 21 23 23 20 19
33 31 32 28 25 22 22 28 29 29 29 34 31 31 29 28 30 31 30 30 26 25 26 27 27 30 29 27 23 20 17 13 9 6 5 7 9 10 11 13 15 17 18 19 19 20 21 24 23 21 20 19 18 18
26 25 28 29 26 24 23 27 30 31 33 36 35 33 33 31 32 33 34 29 22 20 21 24 27 28 27 25 22 19 16 13 10 7 5 8 9 10 12 13 16 15 13 16 20 20 21 22 24 22 21 20 18 16
27 28 28 28 27 25 24 26 29 33 35 36 36 37 36 36 35 30 27 24 22 20 21 25 29 28 23 22 21 19 16 13 10 7 7 7 8 10 11 12 10 9 12 17 14 14 16 18 22 22 21 21 20 17
26 26 25 27 28 26 25 29 30 31 35 37 36 39 36 32 29 26 27 27 24 22 21 26 28 27 26 24 21 19 16 15 11 9 7 6 8 9 10 10 9 10 12 13 9 9 10 14 18 21 21 21 22 20
24 24 23 23 26 27 26 29 30 31 32 33 34 33 30 29 28 28 28 28 24 22 23 28 29 27 24 24 21 19 16 13 12 11 8 6 8 8 9 9 10 12 11 11 9 8 9 12 16 19 20 21 21 20
21 18 20 20 22 25 25 27 29 31 34 33 31 29 25 28 27 28 28 26 24 24 26 27 28 26 24 23 21 19 16 15 14 12 9 8 8 8 9 9 9 12 11 11 10 13 12 13 15 17 19 20 21 23
18 16 18 20 20 24 26 26 27 28 29 30 30 29 28 28 27 26 24 24 24 24 26 26 24 24 23 22 20 18 17 17 16 13 11 10 10 11 11 11 11 12 13 12 11 12 15 16 18 19 21 22 23 25
16 16 14 14 15 20 24 27 27 27 27 29 29 28 29 27 24 24 23 24 25 27 29 27 26 25 23 23 21 19 19 17 16 14 13 12 12 13 14 13 14 15 15 16 14 15 16 18 19 21 23 25 26 28
12 11 7 12 12 15 20 23 26 26 25 27 29 29 28 26 24 23 23 26 28 27 26 26 25 24 23 22 21 20 19 18 18 17 16 15 15 16 16 17 17 17 19 19 20 19 20 21 23 25 27 29 31 33
11 7 7 13 13 14 15 19 24 27 27 27 27 25 24 25 23 24 25 27 29 28 27 27 26 25 23 23 22 21 20 20 19 19 19 18 19 20 20 20 20 19 19 22 24 23 23 24 26 28 30 31 33 35
10 9 7 11 13 15 14 17 20 23 25 26 25 24 22 22 22 25 24 28 30 29 29 26 25 24 24 24 23 23 23 22 22 22 21 20 21 21 22 22 21 21 21 21 23 27 28 28 27 28 29 31 34 36
10 8 6 10 12 14 15 16 17 20 22 23 23 22 22 23 26 26 25 25 26 27 26 25 24 24 24 25 25 25 25 25 25 26 25 24 24 23 23 23 21 20 21 23 24 25 28 28 29 30 30 32 34 36
12 10 7 9 10 13 15 16 16 16 18 20 21 21 21 21 22 24 24 24 24 24 24 24 24 24 25 26 26 26 27 28 28 28 28 28 27 27 26 25 24 23 24 26 28 28 29 31 31 31 32 34 36 38
10 10 12 12 11 12 15 16 16 16 16 16 16 17 19 20 21 21 22 22 23 23 23 24 24 25 25 26 27 28 30 31 32 32 32 31 30 31 31 30 29 29 30 30 31 31 31 31 32 34 34 36 38 41
11 10 10 12 11 11 13 14 15 16 15 15 16 16 17 18 20 20 20 22 22 22 22 22 23 24 26 27 28 29 31 33 33 34 33 32 30 30 32 33 33 33 32 32 32 32 32 32 32 34 37 38 41 42
17 14 11 10 10 11 11 12 13 14 14 14 15 16 17 18 18 19 20 21 21 22 23 24 24 24 25 26 28 29 30 31 32 32 31 29 28 28 30 31 30 30 32 33 32 32 32 33 34 36 39 40 41 43
15 13 11 10 10 9 10 11 11 13 14 14 14 15 15 16 17 18 19 20 21 22 23 24 25 25 24 23 23 23 23 23 23 24 24 25 25 26 26 28 29 31 31 32 32 32 33 34 36 38 39 41 42 44
14 12 10 10 9 9 9 9 11 12 12 13 13 13 14 15 16 17 19 20 21 21 21 20 18 18 18 18 20 21 22 23 24 25 25 26 26 27 27 28 30 31 32 32 32 33 34 36 36 38 39 41 43 47
11 11 11 10 9 9 9 9 9 10 11 12 12 13 13 12 12 13 14 14 15 16 17 17 17 18 20 22 24 25 27 29 30 30 29 28 27 28 28 28 29 30 31 31 32 33 34 35 35 37 40 44 46 48
6 5 5 5 5 5 6 6 7 8 8 10 11 12 14 15 16 16 16 15 16 16 18 19 21 22 23 24 25 26 27 26 24 22 22 23 24 25 25 26 26 27 28 28 28 29 31 34 37 40 42 45 48 50
3 2 1 3 5 5 8 11 13 14 14 14 14 14 14 15 15 15 16 18 19 21 22 22 22 21 21 22 23 22 19 17 18 20 22 23 24 23 22 22 23 25 27 28 29 32 34 36 38 42 45 47 50 52
4 4 4 4 4 4 4 4 4 6 8 11 13 14 14 14 15 15 17 16 16 16 16 16 17 18 17 18 18 18 19 19 19 18 19 20 21 23 24 25 25 26 28 30 32 33 35 39 42 44 47 50 53 56

GFSWCAN_500_spd_132.txt.gz
Wind_Speed
41 38 35 33 33 32 30 28 27 27 27 30 33 33 32 33 31 33 36 36 37 35 39 34 28 26 26 29 29 30 33 35 35 32 25 23 24 20 15 13 9 11 12 14 18 21 26 24 27 29 28 26 26 24
41 36 31 31 33 32 30 28 26 27 27 29 32 32 33 34 30 33 33 34 38 36 28 24 21 22 26 26 26 32 33 31 28 24 25 25 21 14 14 11 11 13 13 16 19 22 25 26 27 30 30 29 26 23
42 40 33 28 32 33 30 27 26 27 27 30 31 32 34 33 31 31 31 31 31 30 31 29 28 26 23 22 28 29 32 27 23 24 24 19 16 16 12 13 10 12 15 17 22 23 27 27 28 26 26 25 26 25
43 40 38 36 34 31 29 27 28 30 33 33 32 30 32 32 28 28 30 28 29 26 26 27 24 22 23 29 30 29 25 25 25 25 24 23 19 15 12 10 12 11 16 18 23 24 25 24 22 21 20 21 21 22
39 34 39 37 33 31 29 29 31 31 34 34 30 28 26 23 28 29 30 29 28 30 25 22 22 27 33 31 27 29 27 26 25 24 22 22 14 12 10 10 12 14 16 21 21 25 23 22 21 18 15 17 18 18
44 38 36 34 32 31 31 32 31 28 33 31 30 24 21 23 22 23 31 30 32 27 27 24 25 29 30 33 29 28 27 26 24 23 20 15 16 11 9 11 12 16 18 21 23 23 23 23 22 19 16 20 23 20
37 35 32 32 33 31 32 31 30 26 35 30 34 31 27 26 27 28 27 29 29 25 24 24 26 26 32 34 29 28 26 25 23 22 20 16 12 9 9 11 14 17 18 18 17 16 16 19 22 21 19 17 20 18
36 34 33 32 33 32 30 29 29 37 34 33 31 26 25 27 31 31 30 31 29 27 25 26 27 29 33 31 28 27 25 23 22 20 19 14 11 8 9 11 16 18 18 18 17 16 15 14 17 20 19 17 19 15
40 33 32 32 30 32 30 31 34 37 34 32 28 26 27 27 29 30 32 31 29 26 23 25 25 24 29 30 26 26 24 22 21 19 16 13 9 8 10 13 16 17 17 17 18 18 18 17 16 16 19 19 17 16
33 32 30 31 29 31 31 31 33 33 34 33 31 30 30 32 29 27 26 26 24 24 26 25 24 26 30 32 28 26 23 21 20 18 16 12 9 8 11 14 14 16 16 18 19 20 20 20 19 17 17 20 20 20
29 32 31 28 27 28 29 31 32 29 31 34 31 32 33 32 26 27 26 25 25 27 28 26 27 26 26 30 28 26 22 21 20 19 15 11 8 10 12 13 14 15 16 17 19 20 21 22 23 22 20 19 21 22
30 29 28 26 25 26 28 28 30 28 31 36 30 33 29 27 25 27 27 26 27 26 26 25 25 24 26 28 28 25 23 22 21 18 15 10 9 9 12 13 13 15 16 18 20 22 23 23 22 22 22 21 20 19
25 24 26 24 24 24 27 27 27 28 31 33 33 32 28 26 27 27 27 26 24 20 21 20 21 25 28 28 27 25 24 22 20 18 15 10 9 9 11 13 14 16 19 16 15 20 23 24 22 21 21 21 20 19
21 23 23 23 22 21 22 26 28 29 32 34 36 33 33 29 25 23 22 20 22 22 22 21 22 22 26 28 28 26 23 22 21 18 14 11 9 9 11 12 14 15 12 13 17 19 16 14 16 18 19 20 21 21
24 24 24 21 21 20 19 22 26 26 30 35 34 34 32 26 20 18 21 25 26 24 22 21 23 24 26 28 27 24 23 22 20 16 14 12 10 10 10 13 13 13 11 13 16 15 12 11 10 13 16 19 20 22
23 24 23 21 21 19 17 20 24 28 28 33 34 31 27 25 21 20 22 26 26 23 22 21 23 26 28 29 25 25 22 21 19 18 16 13 11 10 10 12 13 13 13 14 14 14 12 10 11 13 15 18 20 21
17 17 17 20 20 19 18 21 22 26 30 30 28 25 24 22 21 23 24 27 25 24 22 20 21 25 26 27 25 21 19 20 19 19 17 15 12 11 11 11 13 14 15 15 15 15 14 13 12 12 13 17 19 21
15 14 16 15 20 22 21 22 23 22 21 22 24 24 24 25 24 24 26 25 26 23 20 19 20 25 26 24 20 21 21 20 20 20 18 15 14 13 13 13 13 14 16 16 18 18 16 15 16 17 17 19 21 23
14 11 12 13 18 22 22 22 22 22 23 23 23 23 23 23 24 25 26 27 25 24 23 23 24 25 22 21 20 20 20 20 21 21 19 17 17 17 16 16 15 16 16 17 18 20 21 20 19 19 21 23 24 25
13 9 10 11 14 18 19 19 21 21 23 25 25 24 24 23 25 26 26 26 24 19 24 24 20 22 21 22 20 20 21 22 22 21 20 20 19 19 20 20 20 21 21 21 21 22 23 24 24 24 25 27 28 29
8 7 8 8 9 14 18 19 19 20 22 23 24 24 24 25 22 22 22 22 23 24 23 25 24 22 22 21 21 22 22 21 22 22 22 22 22 22 23 24 24 24 23 23 24 25 25 25 27 28 29 30 30 30
6 7 7 9 9 10 13 17 20 20 20 20 24 24 23 22 22 21 22 23 26 27 26 25 25 24 23 23 22 22 21 22 23 24 24 25 25 25 26 27 26 26 25 26 26 26 27 28 29 30 31 33 35 34
3 3 4 8 8 9 9 11 14 18 20 21 22 21 21 22 22 21 21 22 26 27 28 27 25 24 23 23 23 23 24 24 24 25 25 26 27 28 29 29 29 28 28 28 28 27 28 29 31 33 34 35 37 37
4 1 1 5 8 9 10 10 11 13 17 19 21 20 20 19 20 21 21 21 24 26 26 25 24 24 23 23 22 24 24 24 25 26 26 27 29 30 30 31 31 31 31 32 32 32 32 34 35 36 36 36 37 38
6 6 4 3 7 8 10 11 10 11 12 14 17 19 20 21 20 20 21 22 22 23 24 24 24 23 22 22 23 24 25 26 26 27 30 31 31 31 32 33 33 34 34 35 36 37 37 37 37 37 37 37 38 38
10 10 8 5 7 8 10 11 12 11 11 12 13 15 17 17 18 19 17 21 23 23 22 21 22 23 23 24 23 24 25 26 27 28 30 32 34 35 35 35 34 34 35 37 39 39 40 39 38 37 37 38 39 40
16 15 10 5 8 9 9 10 11 12 12 12 12 12 13 13 14 15 18 19 19 18 19 20 21 21 22 22 23 24 26 28 29 30 32 33 34 34 34 34 33 33 34 35 35 36 36 36 36 37 39 39 40 41
16 14 9 8 8 9 9 10 10 11 12 12 11 12 12 12 13 14 14 15 16 16 17 19 20 21 22 23 25 26 28 29 29 29 28 28 29 29 30 30 30 30 30 31 32 34 35 36 37 39 40 40 41 43
10 11 10 8 9 9 9 9 9 9 9 9 9 9 9 10 11 12 12 14 15 16 18 20 22 24 25 25 25 25 25 25 26 26 27 29 31 32 33 32 31 31 31 32 33 34 35 36 37 38 39 41 41 42
8 8 7 8 8 8 9 8 8 8 8 9 9 10 12 13 13 14 15 16 17 19 19 19 19 19 20 21 21 22 24 27 29 31 32 34 36 35 32 29 29 29 30 31 32 33 33 34 35 35 37 39 40 42
6 5 5 5 5 6 7 7 8 9 10 11 12 13 14 15 14 15 16 17 17 18 19 20 21 21 22 24 26 28 29 30 31 31 30 29 27 25 25 26 27 28 29 28 28 29 32 34 34 34 36 38 41 45
5 3 2 5 7 8 9 10 11 13 14 14 14 15 15 16 16 18 19 20 21 22 22 22 23 24 25 26 26 26 27 28 28 26 23 23 26 27 27 24 24 26 28 29 30 30 31 32 33 35 39 42 45 47
6 4 4 2 1 3 5 7 9 10 12 14 15 15 15 16 15 17 19 20 21 21 22 22 22 22 23 23 23 23 24 24 24 24 24 24 24 25 25 25 25 26 27 28 28 29 31 33 37 39 42 44 46 49

GFSWCAN_500_spd_135.txt.gz
Wind_Speed
45 42 40 37 33 32 34 35 34 34 33 32 31 27 34 28 31 35 31 30 36 37 31 28 25 25 27 30 28 29 33 32 29 27 27 27 30 25 22 17 17 17 16 15 16 18 20 20 24 26 29 29 28 25
47 44 39 32 30 28 32 32 32 30 28 27 25 30 28 28 27 30 34 31 30 30 33 31 30 28 25 24 25 25 20 21 25 26 31 35 26 24 19 17 16 16 12 14 14 16 19 23 27 29 30 30 26 26
48 43 36 41 36 33 31 31 29 28 24 22 24 27 26 28 24 24 25 30 34 31 31 28 30 27 20 17 17 21 21 23 24 30 34 27 26 20 17 18 16 13 11 12 15 16 23 26 29 29 27 25 23 23
48 39 38 33 32 31 29 29 28 25 24 21 25 27 30 30 33 32 32 33 32 28 26 26 24 20 18 18 20 23 27 27 30 31 26 26 20 20 20 15 12 11 11 13 16 21 24 27 28 27 24 22 20 18
43 46 39 31 27 24 28 29 27 25 26 26 29 31 35 42 35 32 33 27 22 27 26 23 20 19 21 20 21 22 28 32 28 24 23 24 23 21 17 14 13 9 11 15 19 23 24 27 26 26 24 19 17 18
49 47 39 29 33 28 29 29 26 28 33 29 32 33 33 41 39 38 33 27 25 26 25 26 22 23 22 24 28 33 31 27 24 24 22 21 18 19 18 15 10 10 14 15 21 22 23 23 23 22 22 19 16 16
45 41 33 35 29 29 30 29 28 28 33 34 35 34 30 35 33 31 30 28 28 26 23 27 25 25 29 30 28 31 27 23 22 21 21 19 21 19 15 13 10 13 13 18 22 22 21 19 16 15 17 19 18 16
43 33 35 31 30 29 30 27 28 27 35 37 36 32 30 28 25 29 25 24 25 25 27 26 25 26 30 31 27 29 25 22 22 22 21 21 19 17 16 12 13 13 16 20 21 22 20 19 17 16 16 16 17 16
37 33 32 31 29 28 27 25 28 30 35 34 30 27 24 28 30 29 27 30 30 27 25 24 25 23 25 28 28 26 23 22 22 20 21 20 19 18 15 12 13 14 17 20 20 21 19 18 19 19 17 15 16 17
34 29 28 28 27 27 25 27 30 34 36 32 26 24 33 34 29 29 28 31 32 27 27 23 24 21 23 29 30 26 24 21 22 23 22 21 20 18 14 11 13 14 17 20 18 19 19 20 21 21 20 18 16 17
28 28 27 26 28 27 28 29 30 33 32 28 23 23 30 28 27 27 29 29 28 26 24 26 27 25 24 26 25 26 24 25 24 22 22 20 19 17 13 11 13 14 16 17 17 18 19 21 23 23 22 21 20 18
27 26 26 27 29 28 29 32 30 30 32 29 22 32 31 27 24 21 23 24 24 23 24 24 24 22 23 26 26 25 24 25 24 23 22 20 19 16 13 12 13 15 16 16 18 21 21 20 21 22 21 19 20 19
27 26 24 25 25 27 27 31 29 29 30 31 26 31 32 31 27 24 23 21 19 19 20 21 22 23 25 24 28 28 27 25 25 23 21 21 19 16 14 13 13 14 15 16 17 16 19 19 17 18 19 19 19 18
27 26 24 23 25 27 26 30 30 27 28 30 32 36 36 31 24 20 20 19 20 22 22 24 23 23 22 23 24 28 27 26 25 21 20 21 19 16 14 12 12 13 14 15 15 16 17 14 14 14 13 14 16 17
22 24 24 22 24 26 27 27 26 26 31 33 35 34 28 22 20 17 19 21 22 22 21 22 22 22 23 24 24 24 26 25 23 19 21 20 19 17 14 12 12 13 13 14 14 16 17 15 14 13 13 14 16 18
18 21 23 22 22 24 27 27 26 29 32 33 33 30 28 22 18 16 16 18 19 21 23 24 24 23 22 22 23 26 24 23 21 21 19 20 19 17 15 14 13 13 13 13 14 15 16 16 14 13 13 14 16 18
14 16 18 19 20 20 22 24 26 28 30 30 30 27 23 20 17 16 14 17 20 22 21 22 21 21 20 20 19 21 21 21 20 19 19 20 18 17 16 16 15 15 15 16 16 16 16 17 16 17 17 15 15 17
15 14 15 18 18 18 18 19 21 22 22 23 24 23 22 23 23 20 18 18 21 21 20 18 18 18 18 19 20 21 22 20 18 17 19 19 18 17 18 18 17 17 17 17 18 19 19 18 19 19 20 20 21 21
12 12 12 14 17 15 14 16 19 19 21 23 23 23 23 23 21 19 20 20 18 18 17 19 19 17 16 19 22 22 21 19 17 18 19 19 19 19 19 20 19 19 19 20 20 20 21 21 21 22 24 23 24 25
12 11 9 9 11 14 14 15 17 17 18 19 21 22 22 22 21 20 20 21 21 20 20 19 19 18 19 21 21 19 19 19 18 18 19 20 20 21 22 22 21 22 23 23 23 23 23 23 22 23 24 24 26 28
8 8 8 8 11 14 14 14 16 16 17 18 17 17 17 17 17 18 20 20 21 21 19 18 19 19 20 22 23 21 19 18 18 19 20 20 21 22 24 24 25 25 26 26 26 26 26 25 25 26 27 27 28 29
13 8 7 7 8 10 13 15 16 15 15 15 15 17 17 17 16 15 18 20 21 23 20 18 21 23 22 23 22 21 19 19 19 19 20 21 23 24 26 27 27 28 29 28 28 29 29 29 30 30 30 31 32 34
12 8 7 8 7 7 8 11 14 14 14 14 15 16 15 16 17 18 18 19 18 21 22 21 21 24 25 22 21 20 19 20 21 21 21 22 23 24 26 27 29 29 30 30 31 31 32 32 33 34 35 35 36 37
9 7 4 4 6 6 6 7 10 12 14 14 14 16 18 18 18 19 19 19 19 21 23 22 23 21 20 19 20 20 20 21 21 22 22 22 24 25 26 28 29 30 31 32 33 34 35 36 37 38 39 40 40 41
8 4 4 1 4 5 6 5 6 7 10 13 15 16 16 16 17 17 18 19 19 19 21 22 22 22 21 20 21 22 21 20 21 23 23 23 24 26 27 29 30 32 34 35 35 36 38 39 40 41 41 41 42 40
7 5 5 3 2 6 6 6 6 6 6 8 10 14 16 17 18 17 17 18 19 18 17 17 17 18 19 20 21 22 21 21 21 23 24 26 27 28 29 31 34 34 33 33 34 34 35 35 35 35 36 36 37 38
11 9 5 4 3 6 7 7 8 8 7 8 9 9 10 12 12 13 16 17 16 15 15 15 16 17 19 19 19 20 21 22 23 24 26 27 29 30 30 28 27 28 30 31 32 32 32 32 32 33 35 37 39 40
17 15 10 6 7 9 9 9 9 9 9 9 9 9 8 8 8 9 10 10 11 12 13 14 15 16 17 18 19 21 23 25 26 27 27 27 28 27 27 28 30 33 36 37 35 33 33 33 34 36 37 38 39 40
15 13 10 10 10 11 11 10 9 9 10 10 10 9 9 10 11 11 11 12 13 13 14 15 16 18 20 22 24 26 27 27 26 25 25 24 26 29 32 34 36 37 36 34 31 30 31 31 33 33 34 35 36 37
4 7 7 7 8 9 9 9 9 10 10 10 11 11 12 12 12 12 13 14 15 16 17 18 20 21 22 22 22 21 22 22 23 24 28 31 33 34 33 32 31 29 27 28 29 30 30 30 31 33 34 35 36 38
6 4 3 3 4 6 7 8 9 11 12 13 13 14 15 15 15 16 17 17 18 18 18 18 18 18 18 20 22 23 25 26 29 30 30 30 30 30 29 27 27 29 29 28 27 29 30 31 31 33 34 34 36 38
5 3 2 3 4 6 6 7 9 10 12 12 13 13 14 14 12 13 14 15 16 17 17 19 20 21 21 22 24 26 27 27 27 28 27 26 26 27 28 28 27 28 28 28 28 28 29 30 30 31 34 36 39 41
5 4 3 2 1 1 4 6 8 9 10 11 12 12 13 12 13 15 15 14 15 16 17 19 21 22 22 22 22 23 23 23 24 24 24 25 25 25 25 25 25 26 26 27 27 27 28 30 32 34 36 38 40 42